<?xml version="1.0" encoding="UTF-8" standalone="no" ?>
<gpx xmlns="http://www.topografix.com/GPX/1/1" xmlns:xsi="http://www.w3.org/2001/XMLSchema-instance" xsi:schemaLocation="http://www.topografix.com/GPX/1/1 http://www.topografix.com/GPX/1/1/gpx.xsd" version="1.1" creator="VisuGPX - https://www.visugpx.com">
  <metadata>
    <name>randonné nocturne briollay</name>
    <desc><![CDATA[jolis parcours vtt  entre pote avec tartiflette 
]]></desc>
  </metadata>
  <trk>
    <name><![CDATA[NOCTURNE BRIOLLAY]]></name>
    <trkseg>
      <trkpt lat="47.56994" lon="-0.50225">
        <ele>-10.92</ele>
        <time>2017-03-26T08:02:20Z</time>
      </trkpt>
      <trkpt lat="47.57005" lon="-0.50239">
        <ele>-10.44</ele>
        <time>2017-03-26T08:02:56Z</time>
      </trkpt>
      <trkpt lat="47.57007" lon="-0.50243">
        <ele>-10.44</ele>
        <time>2017-03-26T08:03:28Z</time>
      </trkpt>
      <trkpt lat="47.57" lon="-0.50241">
        <ele>-9.96</ele>
        <time>2017-03-26T08:04:15Z</time>
      </trkpt>
      <trkpt lat="47.57002" lon="-0.50254">
        <ele>-9.48</ele>
        <time>2017-03-26T08:04:50Z</time>
      </trkpt>
      <trkpt lat="47.57003" lon="-0.50252">
        <ele>-12.84</ele>
        <time>2017-03-26T08:04:53Z</time>
      </trkpt>
      <trkpt lat="47.57003" lon="-0.50252">
        <ele>-7.07</ele>
        <time>2017-03-26T08:04:54Z</time>
      </trkpt>
      <trkpt lat="47.57001" lon="-0.50251">
        <ele>-9.96</ele>
        <time>2017-03-26T08:05:01Z</time>
      </trkpt>
      <trkpt lat="47.57003" lon="-0.50251">
        <ele>-6.11</ele>
        <time>2017-03-26T08:05:10Z</time>
      </trkpt>
      <trkpt lat="47.57004" lon="-0.5025">
        <ele>-2.27</ele>
        <time>2017-03-26T08:05:14Z</time>
      </trkpt>
      <trkpt lat="47.57004" lon="-0.50251">
        <ele>1.1</ele>
        <time>2017-03-26T08:05:17Z</time>
      </trkpt>
      <trkpt lat="47.57004" lon="-0.5025">
        <ele>4.46</ele>
        <time>2017-03-26T08:05:21Z</time>
      </trkpt>
      <trkpt lat="47.57004" lon="-0.50249">
        <ele>5.91</ele>
        <time>2017-03-26T08:05:24Z</time>
      </trkpt>
      <trkpt lat="47.57004" lon="-0.50249">
        <ele>9.27</ele>
        <time>2017-03-26T08:05:27Z</time>
      </trkpt>
      <trkpt lat="47.57003" lon="-0.50249">
        <ele>12.15</ele>
        <time>2017-03-26T08:05:31Z</time>
      </trkpt>
      <trkpt lat="47.57003" lon="-0.50248">
        <ele>13.6</ele>
        <time>2017-03-26T08:05:34Z</time>
      </trkpt>
      <trkpt lat="47.57002" lon="-0.50248">
        <ele>16.48</ele>
        <time>2017-03-26T08:05:39Z</time>
      </trkpt>
      <trkpt lat="47.57002" lon="-0.50248">
        <ele>19.84</ele>
        <time>2017-03-26T08:05:45Z</time>
      </trkpt>
      <trkpt lat="47.57002" lon="-0.50248">
        <ele>19.84</ele>
        <time>2017-03-26T08:05:46Z</time>
      </trkpt>
      <trkpt lat="47.57003" lon="-0.50248">
        <ele>22.73</ele>
        <time>2017-03-26T08:05:53Z</time>
      </trkpt>
      <trkpt lat="47.57005" lon="-0.50245">
        <ele>26.09</ele>
        <time>2017-03-26T08:06:05Z</time>
      </trkpt>
      <trkpt lat="47.57003" lon="-0.50245">
        <ele>28.98</ele>
        <time>2017-03-26T08:06:22Z</time>
      </trkpt>
      <trkpt lat="47.57005" lon="-0.50242">
        <ele>31.38</ele>
        <time>2017-03-26T08:06:45Z</time>
      </trkpt>
      <trkpt lat="47.57003" lon="-0.50247">
        <ele>31.86</ele>
        <time>2017-03-26T08:07:19Z</time>
      </trkpt>
      <trkpt lat="47.57003" lon="-0.50247">
        <ele>32.34</ele>
        <time>2017-03-26T08:07:23Z</time>
      </trkpt>
      <trkpt lat="47.57004" lon="-0.50249">
        <ele>31.86</ele>
        <time>2017-03-26T08:07:26Z</time>
      </trkpt>
      <trkpt lat="47.56998" lon="-0.50268">
        <ele>32.82</ele>
        <time>2017-03-26T08:07:37Z</time>
      </trkpt>
      <trkpt lat="47.57004" lon="-0.50271">
        <ele>33.3</ele>
        <time>2017-03-26T08:07:42Z</time>
      </trkpt>
      <trkpt lat="47.57014" lon="-0.50261">
        <ele>33.78</ele>
        <time>2017-03-26T08:07:48Z</time>
      </trkpt>
      <trkpt lat="47.57035" lon="-0.50252">
        <ele>29.46</ele>
        <time>2017-03-26T08:07:56Z</time>
      </trkpt>
      <trkpt lat="47.57038" lon="-0.50252">
        <ele>40.99</ele>
        <time>2017-03-26T08:07:57Z</time>
      </trkpt>
      <trkpt lat="47.57041" lon="-0.50252">
        <ele>36.67</ele>
        <time>2017-03-26T08:07:58Z</time>
      </trkpt>
      <trkpt lat="47.57046" lon="-0.50253">
        <ele>35.71</ele>
        <time>2017-03-26T08:08:00Z</time>
      </trkpt>
      <trkpt lat="47.57089" lon="-0.50276">
        <ele>39.07</ele>
        <time>2017-03-26T08:08:16Z</time>
      </trkpt>
      <trkpt lat="47.57128" lon="-0.50293">
        <ele>40.03</ele>
        <time>2017-03-26T08:08:30Z</time>
      </trkpt>
      <trkpt lat="47.57171" lon="-0.50266">
        <ele>39.07</ele>
        <time>2017-03-26T08:08:43Z</time>
      </trkpt>
      <trkpt lat="47.57174" lon="-0.50265">
        <ele>39.07</ele>
        <time>2017-03-26T08:08:44Z</time>
      </trkpt>
      <trkpt lat="47.57178" lon="-0.50266">
        <ele>38.59</ele>
        <time>2017-03-26T08:08:45Z</time>
      </trkpt>
      <trkpt lat="47.57182" lon="-0.50269">
        <ele>39.55</ele>
        <time>2017-03-26T08:08:46Z</time>
      </trkpt>
      <trkpt lat="47.57184" lon="-0.50273">
        <ele>39.07</ele>
        <time>2017-03-26T08:08:47Z</time>
      </trkpt>
      <trkpt lat="47.57186" lon="-0.50277">
        <ele>38.59</ele>
        <time>2017-03-26T08:08:48Z</time>
      </trkpt>
      <trkpt lat="47.57188" lon="-0.50286">
        <ele>38.59</ele>
        <time>2017-03-26T08:08:50Z</time>
      </trkpt>
      <trkpt lat="47.57196" lon="-0.50314">
        <ele>35.23</ele>
        <time>2017-03-26T08:08:58Z</time>
      </trkpt>
      <trkpt lat="47.57199" lon="-0.50325">
        <ele>32.34</ele>
        <time>2017-03-26T08:09:01Z</time>
      </trkpt>
      <trkpt lat="47.572" lon="-0.5033">
        <ele>31.38</ele>
        <time>2017-03-26T08:09:03Z</time>
      </trkpt>
      <trkpt lat="47.57217" lon="-0.50332">
        <ele>28.98</ele>
        <time>2017-03-26T08:09:07Z</time>
      </trkpt>
      <trkpt lat="47.57231" lon="-0.50336">
        <ele>27.05</ele>
        <time>2017-03-26T08:09:10Z</time>
      </trkpt>
      <trkpt lat="47.5724" lon="-0.50342">
        <ele>24.65</ele>
        <time>2017-03-26T08:09:12Z</time>
      </trkpt>
      <trkpt lat="47.57264" lon="-0.50345">
        <ele>20.32</ele>
        <time>2017-03-26T08:09:17Z</time>
      </trkpt>
      <trkpt lat="47.57273" lon="-0.50346">
        <ele>20.32</ele>
        <time>2017-03-26T08:09:19Z</time>
      </trkpt>
      <trkpt lat="47.57277" lon="-0.50344">
        <ele>20.32</ele>
        <time>2017-03-26T08:09:20Z</time>
      </trkpt>
      <trkpt lat="47.57281" lon="-0.50341">
        <ele>20.32</ele>
        <time>2017-03-26T08:09:21Z</time>
      </trkpt>
      <trkpt lat="47.57285" lon="-0.50337">
        <ele>20.81</ele>
        <time>2017-03-26T08:09:22Z</time>
      </trkpt>
      <trkpt lat="47.57288" lon="-0.50335">
        <ele>20.32</ele>
        <time>2017-03-26T08:09:23Z</time>
      </trkpt>
      <trkpt lat="47.57299" lon="-0.50326">
        <ele>20.81</ele>
        <time>2017-03-26T08:09:28Z</time>
      </trkpt>
      <trkpt lat="47.57301" lon="-0.50329">
        <ele>20.81</ele>
        <time>2017-03-26T08:09:32Z</time>
      </trkpt>
      <trkpt lat="47.57305" lon="-0.50348">
        <ele>20.32</ele>
        <time>2017-03-26T08:09:37Z</time>
      </trkpt>
      <trkpt lat="47.57308" lon="-0.50371">
        <ele>17.44</ele>
        <time>2017-03-26T08:09:40Z</time>
      </trkpt>
      <trkpt lat="47.57293" lon="-0.50393">
        <ele>16.48</ele>
        <time>2017-03-26T08:09:45Z</time>
      </trkpt>
      <trkpt lat="47.57226" lon="-0.50449">
        <ele>16</ele>
        <time>2017-03-26T08:10:02Z</time>
      </trkpt>
      <trkpt lat="47.57168" lon="-0.50497">
        <ele>16.48</ele>
        <time>2017-03-26T08:10:15Z</time>
      </trkpt>
      <trkpt lat="47.57112" lon="-0.5053">
        <ele>16.48</ele>
        <time>2017-03-26T08:10:29Z</time>
      </trkpt>
      <trkpt lat="47.57052" lon="-0.50559">
        <ele>16.48</ele>
        <time>2017-03-26T08:10:41Z</time>
      </trkpt>
      <trkpt lat="47.57038" lon="-0.5057">
        <ele>16.48</ele>
        <time>2017-03-26T08:10:44Z</time>
      </trkpt>
      <trkpt lat="47.57034" lon="-0.50574">
        <ele>16.48</ele>
        <time>2017-03-26T08:10:45Z</time>
      </trkpt>
      <trkpt lat="47.57029" lon="-0.50578">
        <ele>16.96</ele>
        <time>2017-03-26T08:10:46Z</time>
      </trkpt>
      <trkpt lat="47.57018" lon="-0.50582">
        <ele>16.48</ele>
        <time>2017-03-26T08:10:48Z</time>
      </trkpt>
      <trkpt lat="47.57013" lon="-0.50583">
        <ele>16.48</ele>
        <time>2017-03-26T08:10:49Z</time>
      </trkpt>
      <trkpt lat="47.56992" lon="-0.50585">
        <ele>16.48</ele>
        <time>2017-03-26T08:10:53Z</time>
      </trkpt>
      <trkpt lat="47.56987" lon="-0.50586">
        <ele>16.96</ele>
        <time>2017-03-26T08:10:54Z</time>
      </trkpt>
      <trkpt lat="47.5695" lon="-0.50606">
        <ele>16.96</ele>
        <time>2017-03-26T08:11:02Z</time>
      </trkpt>
      <trkpt lat="47.56942" lon="-0.50614">
        <ele>16.96</ele>
        <time>2017-03-26T08:11:04Z</time>
      </trkpt>
      <trkpt lat="47.5694" lon="-0.5062">
        <ele>16.96</ele>
        <time>2017-03-26T08:11:05Z</time>
      </trkpt>
      <trkpt lat="47.56939" lon="-0.50627">
        <ele>17.44</ele>
        <time>2017-03-26T08:11:06Z</time>
      </trkpt>
      <trkpt lat="47.56939" lon="-0.50634">
        <ele>16.96</ele>
        <time>2017-03-26T08:11:07Z</time>
      </trkpt>
      <trkpt lat="47.5694" lon="-0.50641">
        <ele>16.96</ele>
        <time>2017-03-26T08:11:08Z</time>
      </trkpt>
      <trkpt lat="47.56941" lon="-0.50648">
        <ele>16.48</ele>
        <time>2017-03-26T08:11:09Z</time>
      </trkpt>
      <trkpt lat="47.56942" lon="-0.50655">
        <ele>16.48</ele>
        <time>2017-03-26T08:11:10Z</time>
      </trkpt>
      <trkpt lat="47.56942" lon="-0.50661">
        <ele>16.48</ele>
        <time>2017-03-26T08:11:11Z</time>
      </trkpt>
      <trkpt lat="47.5694" lon="-0.50666">
        <ele>16.48</ele>
        <time>2017-03-26T08:11:12Z</time>
      </trkpt>
      <trkpt lat="47.56937" lon="-0.5067">
        <ele>16.48</ele>
        <time>2017-03-26T08:11:13Z</time>
      </trkpt>
      <trkpt lat="47.56934" lon="-0.50674">
        <ele>16.48</ele>
        <time>2017-03-26T08:11:14Z</time>
      </trkpt>
      <trkpt lat="47.5693" lon="-0.50677">
        <ele>16.48</ele>
        <time>2017-03-26T08:11:15Z</time>
      </trkpt>
      <trkpt lat="47.56926" lon="-0.50679">
        <ele>16.48</ele>
        <time>2017-03-26T08:11:16Z</time>
      </trkpt>
      <trkpt lat="47.56922" lon="-0.50678">
        <ele>16</ele>
        <time>2017-03-26T08:11:17Z</time>
      </trkpt>
      <trkpt lat="47.56917" lon="-0.50675">
        <ele>16</ele>
        <time>2017-03-26T08:11:18Z</time>
      </trkpt>
      <trkpt lat="47.56913" lon="-0.50673">
        <ele>16</ele>
        <time>2017-03-26T08:11:19Z</time>
      </trkpt>
      <trkpt lat="47.56908" lon="-0.5067">
        <ele>16.48</ele>
        <time>2017-03-26T08:11:20Z</time>
      </trkpt>
      <trkpt lat="47.56899" lon="-0.50667">
        <ele>16.96</ele>
        <time>2017-03-26T08:11:22Z</time>
      </trkpt>
      <trkpt lat="47.56889" lon="-0.50665">
        <ele>16.96</ele>
        <time>2017-03-26T08:11:24Z</time>
      </trkpt>
      <trkpt lat="47.56884" lon="-0.50665">
        <ele>16.48</ele>
        <time>2017-03-26T08:11:25Z</time>
      </trkpt>
      <trkpt lat="47.56868" lon="-0.50667">
        <ele>16.48</ele>
        <time>2017-03-26T08:11:28Z</time>
      </trkpt>
      <trkpt lat="47.56859" lon="-0.5067">
        <ele>16.48</ele>
        <time>2017-03-26T08:11:30Z</time>
      </trkpt>
      <trkpt lat="47.56854" lon="-0.5067">
        <ele>16.48</ele>
        <time>2017-03-26T08:11:31Z</time>
      </trkpt>
      <trkpt lat="47.5685" lon="-0.50669">
        <ele>16.48</ele>
        <time>2017-03-26T08:11:32Z</time>
      </trkpt>
      <trkpt lat="47.56845" lon="-0.50668">
        <ele>16.48</ele>
        <time>2017-03-26T08:11:33Z</time>
      </trkpt>
      <trkpt lat="47.56841" lon="-0.50668">
        <ele>16.48</ele>
        <time>2017-03-26T08:11:34Z</time>
      </trkpt>
      <trkpt lat="47.56836" lon="-0.5067">
        <ele>16.96</ele>
        <time>2017-03-26T08:11:35Z</time>
      </trkpt>
      <trkpt lat="47.56832" lon="-0.50671">
        <ele>16.48</ele>
        <time>2017-03-26T08:11:36Z</time>
      </trkpt>
      <trkpt lat="47.56827" lon="-0.50673">
        <ele>16.96</ele>
        <time>2017-03-26T08:11:37Z</time>
      </trkpt>
      <trkpt lat="47.5682" lon="-0.5068">
        <ele>16.96</ele>
        <time>2017-03-26T08:11:39Z</time>
      </trkpt>
      <trkpt lat="47.56817" lon="-0.50684">
        <ele>16.48</ele>
        <time>2017-03-26T08:11:40Z</time>
      </trkpt>
      <trkpt lat="47.56813" lon="-0.50688">
        <ele>16.96</ele>
        <time>2017-03-26T08:11:41Z</time>
      </trkpt>
      <trkpt lat="47.56809" lon="-0.50692">
        <ele>16.96</ele>
        <time>2017-03-26T08:11:42Z</time>
      </trkpt>
      <trkpt lat="47.56804" lon="-0.50694">
        <ele>16.96</ele>
        <time>2017-03-26T08:11:43Z</time>
      </trkpt>
      <trkpt lat="47.56791" lon="-0.50701">
        <ele>16.96</ele>
        <time>2017-03-26T08:11:46Z</time>
      </trkpt>
      <trkpt lat="47.56787" lon="-0.50703">
        <ele>16.48</ele>
        <time>2017-03-26T08:11:47Z</time>
      </trkpt>
      <trkpt lat="47.56784" lon="-0.50707">
        <ele>16.48</ele>
        <time>2017-03-26T08:11:48Z</time>
      </trkpt>
      <trkpt lat="47.56771" lon="-0.50729">
        <ele>16.96</ele>
        <time>2017-03-26T08:11:53Z</time>
      </trkpt>
      <trkpt lat="47.56768" lon="-0.50733">
        <ele>16.96</ele>
        <time>2017-03-26T08:11:54Z</time>
      </trkpt>
      <trkpt lat="47.56763" lon="-0.50735">
        <ele>16</ele>
        <time>2017-03-26T08:11:55Z</time>
      </trkpt>
      <trkpt lat="47.56758" lon="-0.50735">
        <ele>16.48</ele>
        <time>2017-03-26T08:11:56Z</time>
      </trkpt>
      <trkpt lat="47.56753" lon="-0.50735">
        <ele>16.48</ele>
        <time>2017-03-26T08:11:57Z</time>
      </trkpt>
      <trkpt lat="47.56742" lon="-0.50735">
        <ele>16.48</ele>
        <time>2017-03-26T08:11:59Z</time>
      </trkpt>
      <trkpt lat="47.56737" lon="-0.50737">
        <ele>16.48</ele>
        <time>2017-03-26T08:12:00Z</time>
      </trkpt>
      <trkpt lat="47.56731" lon="-0.50739">
        <ele>16.48</ele>
        <time>2017-03-26T08:12:01Z</time>
      </trkpt>
      <trkpt lat="47.56726" lon="-0.50741">
        <ele>16.48</ele>
        <time>2017-03-26T08:12:02Z</time>
      </trkpt>
      <trkpt lat="47.56721" lon="-0.50744">
        <ele>16.48</ele>
        <time>2017-03-26T08:12:03Z</time>
      </trkpt>
      <trkpt lat="47.56648" lon="-0.50809">
        <ele>16</ele>
        <time>2017-03-26T08:12:19Z</time>
      </trkpt>
      <trkpt lat="47.56575" lon="-0.50875">
        <ele>16</ele>
        <time>2017-03-26T08:12:34Z</time>
      </trkpt>
      <trkpt lat="47.56495" lon="-0.50971">
        <ele>15.52</ele>
        <time>2017-03-26T08:12:51Z</time>
      </trkpt>
      <trkpt lat="47.56444" lon="-0.51062">
        <ele>15.52</ele>
        <time>2017-03-26T08:13:04Z</time>
      </trkpt>
      <trkpt lat="47.5644" lon="-0.51067">
        <ele>15.52</ele>
        <time>2017-03-26T08:13:05Z</time>
      </trkpt>
      <trkpt lat="47.56436" lon="-0.51073">
        <ele>15.52</ele>
        <time>2017-03-26T08:13:06Z</time>
      </trkpt>
      <trkpt lat="47.56348" lon="-0.51157">
        <ele>15.52</ele>
        <time>2017-03-26T08:13:23Z</time>
      </trkpt>
      <trkpt lat="47.56342" lon="-0.51159">
        <ele>15.04</ele>
        <time>2017-03-26T08:13:24Z</time>
      </trkpt>
      <trkpt lat="47.56336" lon="-0.5116">
        <ele>15.52</ele>
        <time>2017-03-26T08:13:25Z</time>
      </trkpt>
      <trkpt lat="47.5633" lon="-0.51159">
        <ele>15.52</ele>
        <time>2017-03-26T08:13:26Z</time>
      </trkpt>
      <trkpt lat="47.56324" lon="-0.51158">
        <ele>15.52</ele>
        <time>2017-03-26T08:13:27Z</time>
      </trkpt>
      <trkpt lat="47.56318" lon="-0.51156">
        <ele>15.52</ele>
        <time>2017-03-26T08:13:28Z</time>
      </trkpt>
      <trkpt lat="47.56312" lon="-0.51153">
        <ele>15.04</ele>
        <time>2017-03-26T08:13:29Z</time>
      </trkpt>
      <trkpt lat="47.56277" lon="-0.51128">
        <ele>16.48</ele>
        <time>2017-03-26T08:13:36Z</time>
      </trkpt>
      <trkpt lat="47.56272" lon="-0.51124">
        <ele>16.48</ele>
        <time>2017-03-26T08:13:37Z</time>
      </trkpt>
      <trkpt lat="47.56226" lon="-0.51069">
        <ele>16.96</ele>
        <time>2017-03-26T08:13:48Z</time>
      </trkpt>
      <trkpt lat="47.56221" lon="-0.51066">
        <ele>16.48</ele>
        <time>2017-03-26T08:13:49Z</time>
      </trkpt>
      <trkpt lat="47.56216" lon="-0.51064">
        <ele>16.48</ele>
        <time>2017-03-26T08:13:50Z</time>
      </trkpt>
      <trkpt lat="47.5619" lon="-0.51055">
        <ele>16</ele>
        <time>2017-03-26T08:13:55Z</time>
      </trkpt>
      <trkpt lat="47.56185" lon="-0.51051">
        <ele>16</ele>
        <time>2017-03-26T08:13:56Z</time>
      </trkpt>
      <trkpt lat="47.5618" lon="-0.51047">
        <ele>16.48</ele>
        <time>2017-03-26T08:13:57Z</time>
      </trkpt>
      <trkpt lat="47.56119" lon="-0.50991">
        <ele>16.96</ele>
        <time>2017-03-26T08:14:10Z</time>
      </trkpt>
      <trkpt lat="47.56114" lon="-0.50988">
        <ele>16.48</ele>
        <time>2017-03-26T08:14:11Z</time>
      </trkpt>
      <trkpt lat="47.56038" lon="-0.50917">
        <ele>17.44</ele>
        <time>2017-03-26T08:14:27Z</time>
      </trkpt>
      <trkpt lat="47.56" lon="-0.50865">
        <ele>16.96</ele>
        <time>2017-03-26T08:14:36Z</time>
      </trkpt>
      <trkpt lat="47.55997" lon="-0.50856">
        <ele>16.48</ele>
        <time>2017-03-26T08:14:37Z</time>
      </trkpt>
      <trkpt lat="47.55995" lon="-0.50848">
        <ele>16.96</ele>
        <time>2017-03-26T08:14:38Z</time>
      </trkpt>
      <trkpt lat="47.55993" lon="-0.50839">
        <ele>16.48</ele>
        <time>2017-03-26T08:14:39Z</time>
      </trkpt>
      <trkpt lat="47.55992" lon="-0.5083">
        <ele>16.48</ele>
        <time>2017-03-26T08:14:40Z</time>
      </trkpt>
      <trkpt lat="47.5599" lon="-0.50813">
        <ele>16.96</ele>
        <time>2017-03-26T08:14:42Z</time>
      </trkpt>
      <trkpt lat="47.5599" lon="-0.50805">
        <ele>17.44</ele>
        <time>2017-03-26T08:14:43Z</time>
      </trkpt>
      <trkpt lat="47.55989" lon="-0.5079">
        <ele>16.96</ele>
        <time>2017-03-26T08:14:45Z</time>
      </trkpt>
      <trkpt lat="47.55986" lon="-0.50775">
        <ele>17.44</ele>
        <time>2017-03-26T08:14:47Z</time>
      </trkpt>
      <trkpt lat="47.55943" lon="-0.50683">
        <ele>16.96</ele>
        <time>2017-03-26T08:15:01Z</time>
      </trkpt>
      <trkpt lat="47.55937" lon="-0.5067">
        <ele>16.96</ele>
        <time>2017-03-26T08:15:03Z</time>
      </trkpt>
      <trkpt lat="47.55935" lon="-0.50663">
        <ele>17.44</ele>
        <time>2017-03-26T08:15:04Z</time>
      </trkpt>
      <trkpt lat="47.55918" lon="-0.50575">
        <ele>16.96</ele>
        <time>2017-03-26T08:15:15Z</time>
      </trkpt>
      <trkpt lat="47.55918" lon="-0.50567">
        <ele>16</ele>
        <time>2017-03-26T08:15:16Z</time>
      </trkpt>
      <trkpt lat="47.55917" lon="-0.50559">
        <ele>16</ele>
        <time>2017-03-26T08:15:17Z</time>
      </trkpt>
      <trkpt lat="47.55911" lon="-0.50504">
        <ele>16</ele>
        <time>2017-03-26T08:15:24Z</time>
      </trkpt>
      <trkpt lat="47.55911" lon="-0.50497">
        <ele>16.48</ele>
        <time>2017-03-26T08:15:25Z</time>
      </trkpt>
      <trkpt lat="47.55911" lon="-0.5049">
        <ele>16.48</ele>
        <time>2017-03-26T08:15:26Z</time>
      </trkpt>
      <trkpt lat="47.55911" lon="-0.50457">
        <ele>16.96</ele>
        <time>2017-03-26T08:15:31Z</time>
      </trkpt>
      <trkpt lat="47.55913" lon="-0.5045">
        <ele>16.48</ele>
        <time>2017-03-26T08:15:32Z</time>
      </trkpt>
      <trkpt lat="47.55916" lon="-0.5043">
        <ele>16.48</ele>
        <time>2017-03-26T08:15:35Z</time>
      </trkpt>
      <trkpt lat="47.55921" lon="-0.50377">
        <ele>16</ele>
        <time>2017-03-26T08:15:43Z</time>
      </trkpt>
      <trkpt lat="47.55918" lon="-0.50316">
        <ele>16</ele>
        <time>2017-03-26T08:15:54Z</time>
      </trkpt>
      <trkpt lat="47.55919" lon="-0.50294">
        <ele>15.04</ele>
        <time>2017-03-26T08:15:59Z</time>
      </trkpt>
      <trkpt lat="47.55919" lon="-0.50292">
        <ele>15.04</ele>
        <time>2017-03-26T08:16:00Z</time>
      </trkpt>
      <trkpt lat="47.55894" lon="-0.50268">
        <ele>13.6</ele>
        <time>2017-03-26T08:16:10Z</time>
      </trkpt>
      <trkpt lat="47.55863" lon="-0.50235">
        <ele>15.04</ele>
        <time>2017-03-26T08:16:23Z</time>
      </trkpt>
      <trkpt lat="47.55828" lon="-0.50197">
        <ele>14.56</ele>
        <time>2017-03-26T08:16:36Z</time>
      </trkpt>
      <trkpt lat="47.5581" lon="-0.50177">
        <ele>15.04</ele>
        <time>2017-03-26T08:16:42Z</time>
      </trkpt>
      <trkpt lat="47.55808" lon="-0.50167">
        <ele>15.04</ele>
        <time>2017-03-26T08:16:44Z</time>
      </trkpt>
      <trkpt lat="47.55808" lon="-0.50158">
        <ele>14.56</ele>
        <time>2017-03-26T08:16:46Z</time>
      </trkpt>
      <trkpt lat="47.5581" lon="-0.50156">
        <ele>14.56</ele>
        <time>2017-03-26T08:16:47Z</time>
      </trkpt>
      <trkpt lat="47.55812" lon="-0.50155">
        <ele>15.04</ele>
        <time>2017-03-26T08:16:48Z</time>
      </trkpt>
      <trkpt lat="47.55815" lon="-0.50157">
        <ele>15.04</ele>
        <time>2017-03-26T08:16:49Z</time>
      </trkpt>
      <trkpt lat="47.55862" lon="-0.50185">
        <ele>16</ele>
        <time>2017-03-26T08:17:01Z</time>
      </trkpt>
      <trkpt lat="47.55892" lon="-0.50208">
        <ele>17.44</ele>
        <time>2017-03-26T08:17:10Z</time>
      </trkpt>
      <trkpt lat="47.55926" lon="-0.50234">
        <ele>19.84</ele>
        <time>2017-03-26T08:17:23Z</time>
      </trkpt>
      <trkpt lat="47.55934" lon="-0.50238">
        <ele>19.84</ele>
        <time>2017-03-26T08:17:26Z</time>
      </trkpt>
      <trkpt lat="47.55938" lon="-0.50237">
        <ele>19.84</ele>
        <time>2017-03-26T08:17:27Z</time>
      </trkpt>
      <trkpt lat="47.55943" lon="-0.50237">
        <ele>19.84</ele>
        <time>2017-03-26T08:17:28Z</time>
      </trkpt>
      <trkpt lat="47.55948" lon="-0.50239">
        <ele>19.84</ele>
        <time>2017-03-26T08:17:29Z</time>
      </trkpt>
      <trkpt lat="47.55953" lon="-0.50242">
        <ele>19.84</ele>
        <time>2017-03-26T08:17:30Z</time>
      </trkpt>
      <trkpt lat="47.55957" lon="-0.50247">
        <ele>20.32</ele>
        <time>2017-03-26T08:17:31Z</time>
      </trkpt>
      <trkpt lat="47.55962" lon="-0.5025">
        <ele>19.84</ele>
        <time>2017-03-26T08:17:32Z</time>
      </trkpt>
      <trkpt lat="47.55968" lon="-0.50253">
        <ele>19.84</ele>
        <time>2017-03-26T08:17:33Z</time>
      </trkpt>
      <trkpt lat="47.55975" lon="-0.50256">
        <ele>19.36</ele>
        <time>2017-03-26T08:17:34Z</time>
      </trkpt>
      <trkpt lat="47.55981" lon="-0.50257">
        <ele>18.88</ele>
        <time>2017-03-26T08:17:35Z</time>
      </trkpt>
      <trkpt lat="47.55988" lon="-0.50254">
        <ele>18.88</ele>
        <time>2017-03-26T08:17:36Z</time>
      </trkpt>
      <trkpt lat="47.55995" lon="-0.50249">
        <ele>17.92</ele>
        <time>2017-03-26T08:17:37Z</time>
      </trkpt>
      <trkpt lat="47.56001" lon="-0.50244">
        <ele>17.92</ele>
        <time>2017-03-26T08:17:38Z</time>
      </trkpt>
      <trkpt lat="47.56007" lon="-0.5024">
        <ele>17.44</ele>
        <time>2017-03-26T08:17:39Z</time>
      </trkpt>
      <trkpt lat="47.56042" lon="-0.50223">
        <ele>17.92</ele>
        <time>2017-03-26T08:17:45Z</time>
      </trkpt>
      <trkpt lat="47.56053" lon="-0.50221">
        <ele>17.44</ele>
        <time>2017-03-26T08:17:47Z</time>
      </trkpt>
      <trkpt lat="47.56079" lon="-0.50214">
        <ele>17.44</ele>
        <time>2017-03-26T08:17:52Z</time>
      </trkpt>
      <trkpt lat="47.56084" lon="-0.50212">
        <ele>18.4</ele>
        <time>2017-03-26T08:17:53Z</time>
      </trkpt>
      <trkpt lat="47.56156" lon="-0.50189">
        <ele>19.36</ele>
        <time>2017-03-26T08:18:09Z</time>
      </trkpt>
      <trkpt lat="47.56226" lon="-0.50142">
        <ele>19.84</ele>
        <time>2017-03-26T08:18:24Z</time>
      </trkpt>
      <trkpt lat="47.56303" lon="-0.50097">
        <ele>19.84</ele>
        <time>2017-03-26T08:18:39Z</time>
      </trkpt>
      <trkpt lat="47.56389" lon="-0.5006">
        <ele>19.36</ele>
        <time>2017-03-26T08:18:55Z</time>
      </trkpt>
      <trkpt lat="47.56469" lon="-0.50014">
        <ele>18.4</ele>
        <time>2017-03-26T08:19:08Z</time>
      </trkpt>
      <trkpt lat="47.56499" lon="-0.5">
        <ele>18.88</ele>
        <time>2017-03-26T08:19:13Z</time>
      </trkpt>
      <trkpt lat="47.56505" lon="-0.49999">
        <ele>18.88</ele>
        <time>2017-03-26T08:19:14Z</time>
      </trkpt>
      <trkpt lat="47.5651" lon="-0.49999">
        <ele>18.88</ele>
        <time>2017-03-26T08:19:15Z</time>
      </trkpt>
      <trkpt lat="47.56516" lon="-0.49997">
        <ele>19.36</ele>
        <time>2017-03-26T08:19:16Z</time>
      </trkpt>
      <trkpt lat="47.56521" lon="-0.49995">
        <ele>19.36</ele>
        <time>2017-03-26T08:19:17Z</time>
      </trkpt>
      <trkpt lat="47.56527" lon="-0.49992">
        <ele>19.36</ele>
        <time>2017-03-26T08:19:18Z</time>
      </trkpt>
      <trkpt lat="47.56532" lon="-0.49989">
        <ele>19.36</ele>
        <time>2017-03-26T08:19:19Z</time>
      </trkpt>
      <trkpt lat="47.56537" lon="-0.49986">
        <ele>19.84</ele>
        <time>2017-03-26T08:19:20Z</time>
      </trkpt>
      <trkpt lat="47.56543" lon="-0.49982">
        <ele>19.36</ele>
        <time>2017-03-26T08:19:21Z</time>
      </trkpt>
      <trkpt lat="47.56612" lon="-0.4993">
        <ele>19.84</ele>
        <time>2017-03-26T08:19:35Z</time>
      </trkpt>
      <trkpt lat="47.56704" lon="-0.49863">
        <ele>20.32</ele>
        <time>2017-03-26T08:19:54Z</time>
      </trkpt>
      <trkpt lat="47.56722" lon="-0.49848">
        <ele>20.32</ele>
        <time>2017-03-26T08:19:58Z</time>
      </trkpt>
      <trkpt lat="47.56726" lon="-0.49843">
        <ele>20.81</ele>
        <time>2017-03-26T08:19:59Z</time>
      </trkpt>
      <trkpt lat="47.5673" lon="-0.49839">
        <ele>20.81</ele>
        <time>2017-03-26T08:20:00Z</time>
      </trkpt>
      <trkpt lat="47.56734" lon="-0.49835">
        <ele>20.81</ele>
        <time>2017-03-26T08:20:01Z</time>
      </trkpt>
      <trkpt lat="47.56738" lon="-0.49831">
        <ele>20.81</ele>
        <time>2017-03-26T08:20:02Z</time>
      </trkpt>
      <trkpt lat="47.56742" lon="-0.49827">
        <ele>20.32</ele>
        <time>2017-03-26T08:20:03Z</time>
      </trkpt>
      <trkpt lat="47.56746" lon="-0.49822">
        <ele>20.81</ele>
        <time>2017-03-26T08:20:04Z</time>
      </trkpt>
      <trkpt lat="47.5675" lon="-0.49818">
        <ele>20.81</ele>
        <time>2017-03-26T08:20:05Z</time>
      </trkpt>
      <trkpt lat="47.56758" lon="-0.49809">
        <ele>20.81</ele>
        <time>2017-03-26T08:20:07Z</time>
      </trkpt>
      <trkpt lat="47.56772" lon="-0.49796">
        <ele>20.32</ele>
        <time>2017-03-26T08:20:10Z</time>
      </trkpt>
      <trkpt lat="47.56849" lon="-0.49724">
        <ele>20.32</ele>
        <time>2017-03-26T08:20:27Z</time>
      </trkpt>
      <trkpt lat="47.5687" lon="-0.49704">
        <ele>19.84</ele>
        <time>2017-03-26T08:20:32Z</time>
      </trkpt>
      <trkpt lat="47.56937" lon="-0.49652">
        <ele>20.81</ele>
        <time>2017-03-26T08:20:47Z</time>
      </trkpt>
      <trkpt lat="47.56992" lon="-0.49617">
        <ele>20.81</ele>
        <time>2017-03-26T08:20:59Z</time>
      </trkpt>
      <trkpt lat="47.56995" lon="-0.49613">
        <ele>20.81</ele>
        <time>2017-03-26T08:21:00Z</time>
      </trkpt>
      <trkpt lat="47.56998" lon="-0.49607">
        <ele>20.81</ele>
        <time>2017-03-26T08:21:01Z</time>
      </trkpt>
      <trkpt lat="47.57001" lon="-0.49601">
        <ele>20.81</ele>
        <time>2017-03-26T08:21:02Z</time>
      </trkpt>
      <trkpt lat="47.57003" lon="-0.49594">
        <ele>20.81</ele>
        <time>2017-03-26T08:21:03Z</time>
      </trkpt>
      <trkpt lat="47.57044" lon="-0.49473">
        <ele>21.29</ele>
        <time>2017-03-26T08:21:20Z</time>
      </trkpt>
      <trkpt lat="47.57054" lon="-0.49434">
        <ele>21.29</ele>
        <time>2017-03-26T08:21:25Z</time>
      </trkpt>
      <trkpt lat="47.57087" lon="-0.49325">
        <ele>21.77</ele>
        <time>2017-03-26T08:21:40Z</time>
      </trkpt>
      <trkpt lat="47.57124" lon="-0.492">
        <ele>21.29</ele>
        <time>2017-03-26T08:21:56Z</time>
      </trkpt>
      <trkpt lat="47.57155" lon="-0.49075">
        <ele>20.81</ele>
        <time>2017-03-26T08:22:11Z</time>
      </trkpt>
      <trkpt lat="47.57159" lon="-0.49068">
        <ele>21.29</ele>
        <time>2017-03-26T08:22:12Z</time>
      </trkpt>
      <trkpt lat="47.57163" lon="-0.49061">
        <ele>20.81</ele>
        <time>2017-03-26T08:22:13Z</time>
      </trkpt>
      <trkpt lat="47.57185" lon="-0.49032">
        <ele>20.81</ele>
        <time>2017-03-26T08:22:18Z</time>
      </trkpt>
      <trkpt lat="47.57189" lon="-0.49025">
        <ele>20.32</ele>
        <time>2017-03-26T08:22:19Z</time>
      </trkpt>
      <trkpt lat="47.57207" lon="-0.48971">
        <ele>20.81</ele>
        <time>2017-03-26T08:22:26Z</time>
      </trkpt>
      <trkpt lat="47.5721" lon="-0.48964">
        <ele>20.81</ele>
        <time>2017-03-26T08:22:27Z</time>
      </trkpt>
      <trkpt lat="47.57221" lon="-0.48944">
        <ele>21.29</ele>
        <time>2017-03-26T08:22:30Z</time>
      </trkpt>
      <trkpt lat="47.57272" lon="-0.48842">
        <ele>21.77</ele>
        <time>2017-03-26T08:22:45Z</time>
      </trkpt>
      <trkpt lat="47.57278" lon="-0.48828">
        <ele>21.77</ele>
        <time>2017-03-26T08:22:47Z</time>
      </trkpt>
      <trkpt lat="47.5728" lon="-0.4882">
        <ele>21.77</ele>
        <time>2017-03-26T08:22:48Z</time>
      </trkpt>
      <trkpt lat="47.57282" lon="-0.48813">
        <ele>21.77</ele>
        <time>2017-03-26T08:22:49Z</time>
      </trkpt>
      <trkpt lat="47.57283" lon="-0.48806">
        <ele>21.77</ele>
        <time>2017-03-26T08:22:50Z</time>
      </trkpt>
      <trkpt lat="47.57283" lon="-0.48798">
        <ele>21.77</ele>
        <time>2017-03-26T08:22:51Z</time>
      </trkpt>
      <trkpt lat="47.57283" lon="-0.4879">
        <ele>22.25</ele>
        <time>2017-03-26T08:22:52Z</time>
      </trkpt>
      <trkpt lat="47.57278" lon="-0.48616">
        <ele>21.77</ele>
        <time>2017-03-26T08:23:12Z</time>
      </trkpt>
      <trkpt lat="47.57279" lon="-0.48463">
        <ele>20.32</ele>
        <time>2017-03-26T08:23:27Z</time>
      </trkpt>
      <trkpt lat="47.57281" lon="-0.48434">
        <ele>20.32</ele>
        <time>2017-03-26T08:23:30Z</time>
      </trkpt>
      <trkpt lat="47.57283" lon="-0.48426">
        <ele>20.32</ele>
        <time>2017-03-26T08:23:31Z</time>
      </trkpt>
      <trkpt lat="47.57286" lon="-0.48411">
        <ele>20.32</ele>
        <time>2017-03-26T08:23:33Z</time>
      </trkpt>
      <trkpt lat="47.57289" lon="-0.48404">
        <ele>20.32</ele>
        <time>2017-03-26T08:23:34Z</time>
      </trkpt>
      <trkpt lat="47.57294" lon="-0.48392">
        <ele>20.81</ele>
        <time>2017-03-26T08:23:36Z</time>
      </trkpt>
      <trkpt lat="47.57296" lon="-0.48386">
        <ele>21.29</ele>
        <time>2017-03-26T08:23:37Z</time>
      </trkpt>
      <trkpt lat="47.57298" lon="-0.48382">
        <ele>22.25</ele>
        <time>2017-03-26T08:23:38Z</time>
      </trkpt>
      <trkpt lat="47.57301" lon="-0.48377">
        <ele>22.25</ele>
        <time>2017-03-26T08:23:39Z</time>
      </trkpt>
      <trkpt lat="47.57302" lon="-0.48372">
        <ele>22.73</ele>
        <time>2017-03-26T08:23:40Z</time>
      </trkpt>
      <trkpt lat="47.57304" lon="-0.48366">
        <ele>23.21</ele>
        <time>2017-03-26T08:23:41Z</time>
      </trkpt>
      <trkpt lat="47.57306" lon="-0.48361">
        <ele>23.69</ele>
        <time>2017-03-26T08:23:42Z</time>
      </trkpt>
      <trkpt lat="47.57308" lon="-0.48297">
        <ele>26.09</ele>
        <time>2017-03-26T08:23:55Z</time>
      </trkpt>
      <trkpt lat="47.57309" lon="-0.48283">
        <ele>26.57</ele>
        <time>2017-03-26T08:23:58Z</time>
      </trkpt>
      <trkpt lat="47.57312" lon="-0.4828">
        <ele>26.57</ele>
        <time>2017-03-26T08:23:59Z</time>
      </trkpt>
      <trkpt lat="47.57315" lon="-0.48279">
        <ele>27.05</ele>
        <time>2017-03-26T08:24:00Z</time>
      </trkpt>
      <trkpt lat="47.57318" lon="-0.48278">
        <ele>27.05</ele>
        <time>2017-03-26T08:24:01Z</time>
      </trkpt>
      <trkpt lat="47.57321" lon="-0.48278">
        <ele>27.53</ele>
        <time>2017-03-26T08:24:02Z</time>
      </trkpt>
      <trkpt lat="47.57324" lon="-0.48279">
        <ele>27.53</ele>
        <time>2017-03-26T08:24:03Z</time>
      </trkpt>
      <trkpt lat="47.57327" lon="-0.48279">
        <ele>28.02</ele>
        <time>2017-03-26T08:24:04Z</time>
      </trkpt>
      <trkpt lat="47.57333" lon="-0.48279">
        <ele>28.98</ele>
        <time>2017-03-26T08:24:06Z</time>
      </trkpt>
      <trkpt lat="47.57382" lon="-0.48281">
        <ele>31.86</ele>
        <time>2017-03-26T08:24:24Z</time>
      </trkpt>
      <trkpt lat="47.57439" lon="-0.48279">
        <ele>32.82</ele>
        <time>2017-03-26T08:24:40Z</time>
      </trkpt>
      <trkpt lat="47.57494" lon="-0.48272">
        <ele>34.74</ele>
        <time>2017-03-26T08:24:56Z</time>
      </trkpt>
      <trkpt lat="47.57518" lon="-0.48268">
        <ele>36.67</ele>
        <time>2017-03-26T08:25:04Z</time>
      </trkpt>
      <trkpt lat="47.57561" lon="-0.48261">
        <ele>39.55</ele>
        <time>2017-03-26T08:25:19Z</time>
      </trkpt>
      <trkpt lat="47.57632" lon="-0.48256">
        <ele>40.51</ele>
        <time>2017-03-26T08:25:40Z</time>
      </trkpt>
      <trkpt lat="47.57676" lon="-0.48255">
        <ele>40.99</ele>
        <time>2017-03-26T08:25:54Z</time>
      </trkpt>
      <trkpt lat="47.57692" lon="-0.48257">
        <ele>41.47</ele>
        <time>2017-03-26T08:25:58Z</time>
      </trkpt>
      <trkpt lat="47.57696" lon="-0.48256">
        <ele>40.99</ele>
        <time>2017-03-26T08:25:59Z</time>
      </trkpt>
      <trkpt lat="47.57705" lon="-0.48255">
        <ele>40.51</ele>
        <time>2017-03-26T08:26:01Z</time>
      </trkpt>
      <trkpt lat="47.57709" lon="-0.48255">
        <ele>40.51</ele>
        <time>2017-03-26T08:26:02Z</time>
      </trkpt>
      <trkpt lat="47.57739" lon="-0.48256">
        <ele>39.07</ele>
        <time>2017-03-26T08:26:08Z</time>
      </trkpt>
      <trkpt lat="47.57744" lon="-0.48257">
        <ele>39.07</ele>
        <time>2017-03-26T08:26:09Z</time>
      </trkpt>
      <trkpt lat="47.57818" lon="-0.48253">
        <ele>37.15</ele>
        <time>2017-03-26T08:26:22Z</time>
      </trkpt>
      <trkpt lat="47.57826" lon="-0.48252">
        <ele>36.67</ele>
        <time>2017-03-26T08:26:24Z</time>
      </trkpt>
      <trkpt lat="47.5783" lon="-0.48251">
        <ele>37.63</ele>
        <time>2017-03-26T08:26:25Z</time>
      </trkpt>
      <trkpt lat="47.57834" lon="-0.48251">
        <ele>37.15</ele>
        <time>2017-03-26T08:26:26Z</time>
      </trkpt>
      <trkpt lat="47.57842" lon="-0.4825">
        <ele>37.15</ele>
        <time>2017-03-26T08:26:28Z</time>
      </trkpt>
      <trkpt lat="47.57846" lon="-0.48249">
        <ele>37.63</ele>
        <time>2017-03-26T08:26:29Z</time>
      </trkpt>
      <trkpt lat="47.5785" lon="-0.48247">
        <ele>37.15</ele>
        <time>2017-03-26T08:26:30Z</time>
      </trkpt>
      <trkpt lat="47.5789" lon="-0.48234">
        <ele>39.07</ele>
        <time>2017-03-26T08:26:40Z</time>
      </trkpt>
      <trkpt lat="47.57894" lon="-0.48234">
        <ele>39.07</ele>
        <time>2017-03-26T08:26:41Z</time>
      </trkpt>
      <trkpt lat="47.57898" lon="-0.48234">
        <ele>39.55</ele>
        <time>2017-03-26T08:26:42Z</time>
      </trkpt>
      <trkpt lat="47.57902" lon="-0.48235">
        <ele>40.03</ele>
        <time>2017-03-26T08:26:43Z</time>
      </trkpt>
      <trkpt lat="47.57906" lon="-0.48233">
        <ele>40.51</ele>
        <time>2017-03-26T08:26:44Z</time>
      </trkpt>
      <trkpt lat="47.5791" lon="-0.48232">
        <ele>40.51</ele>
        <time>2017-03-26T08:26:45Z</time>
      </trkpt>
      <trkpt lat="47.57918" lon="-0.48227">
        <ele>40.03</ele>
        <time>2017-03-26T08:26:47Z</time>
      </trkpt>
      <trkpt lat="47.57927" lon="-0.48221">
        <ele>40.03</ele>
        <time>2017-03-26T08:26:49Z</time>
      </trkpt>
      <trkpt lat="47.57965" lon="-0.482">
        <ele>40.03</ele>
        <time>2017-03-26T08:26:57Z</time>
      </trkpt>
      <trkpt lat="47.57969" lon="-0.48196">
        <ele>40.03</ele>
        <time>2017-03-26T08:26:58Z</time>
      </trkpt>
      <trkpt lat="47.57973" lon="-0.48192">
        <ele>40.03</ele>
        <time>2017-03-26T08:26:59Z</time>
      </trkpt>
      <trkpt lat="47.57976" lon="-0.48186">
        <ele>40.03</ele>
        <time>2017-03-26T08:27:00Z</time>
      </trkpt>
      <trkpt lat="47.57978" lon="-0.48179">
        <ele>40.03</ele>
        <time>2017-03-26T08:27:01Z</time>
      </trkpt>
      <trkpt lat="47.57979" lon="-0.48172">
        <ele>40.03</ele>
        <time>2017-03-26T08:27:02Z</time>
      </trkpt>
      <trkpt lat="47.57981" lon="-0.48165">
        <ele>39.55</ele>
        <time>2017-03-26T08:27:03Z</time>
      </trkpt>
      <trkpt lat="47.57982" lon="-0.48157">
        <ele>40.51</ele>
        <time>2017-03-26T08:27:04Z</time>
      </trkpt>
      <trkpt lat="47.5799" lon="-0.48071">
        <ele>40.99</ele>
        <time>2017-03-26T08:27:16Z</time>
      </trkpt>
      <trkpt lat="47.5799" lon="-0.48064">
        <ele>40.99</ele>
        <time>2017-03-26T08:27:17Z</time>
      </trkpt>
      <trkpt lat="47.57989" lon="-0.48057">
        <ele>41.47</ele>
        <time>2017-03-26T08:27:18Z</time>
      </trkpt>
      <trkpt lat="47.57988" lon="-0.4805">
        <ele>40.99</ele>
        <time>2017-03-26T08:27:19Z</time>
      </trkpt>
      <trkpt lat="47.57986" lon="-0.48044">
        <ele>41.47</ele>
        <time>2017-03-26T08:27:20Z</time>
      </trkpt>
      <trkpt lat="47.57985" lon="-0.48037">
        <ele>41.47</ele>
        <time>2017-03-26T08:27:21Z</time>
      </trkpt>
      <trkpt lat="47.57969" lon="-0.47962">
        <ele>43.4</ele>
        <time>2017-03-26T08:27:33Z</time>
      </trkpt>
      <trkpt lat="47.57953" lon="-0.47905">
        <ele>46.28</ele>
        <time>2017-03-26T08:27:43Z</time>
      </trkpt>
      <trkpt lat="47.57943" lon="-0.4787">
        <ele>49.16</ele>
        <time>2017-03-26T08:27:53Z</time>
      </trkpt>
      <trkpt lat="47.57943" lon="-0.47839">
        <ele>51.09</ele>
        <time>2017-03-26T08:28:02Z</time>
      </trkpt>
      <trkpt lat="47.57944" lon="-0.47837">
        <ele>51.09</ele>
        <time>2017-03-26T08:28:03Z</time>
      </trkpt>
      <trkpt lat="47.57944" lon="-0.47835">
        <ele>51.57</ele>
        <time>2017-03-26T08:28:04Z</time>
      </trkpt>
      <trkpt lat="47.57945" lon="-0.47832">
        <ele>51.57</ele>
        <time>2017-03-26T08:28:05Z</time>
      </trkpt>
      <trkpt lat="47.57946" lon="-0.47829">
        <ele>52.05</ele>
        <time>2017-03-26T08:28:06Z</time>
      </trkpt>
      <trkpt lat="47.57946" lon="-0.47825">
        <ele>52.05</ele>
        <time>2017-03-26T08:28:07Z</time>
      </trkpt>
      <trkpt lat="47.57948" lon="-0.47814">
        <ele>53.01</ele>
        <time>2017-03-26T08:28:10Z</time>
      </trkpt>
      <trkpt lat="47.57946" lon="-0.47811">
        <ele>53.49</ele>
        <time>2017-03-26T08:28:11Z</time>
      </trkpt>
      <trkpt lat="47.57948" lon="-0.4776">
        <ele>54.45</ele>
        <time>2017-03-26T08:28:21Z</time>
      </trkpt>
      <trkpt lat="47.57947" lon="-0.47727">
        <ele>55.41</ele>
        <time>2017-03-26T08:28:28Z</time>
      </trkpt>
      <trkpt lat="47.57945" lon="-0.47725">
        <ele>54.93</ele>
        <time>2017-03-26T08:28:29Z</time>
      </trkpt>
      <trkpt lat="47.57942" lon="-0.47724">
        <ele>54.93</ele>
        <time>2017-03-26T08:28:30Z</time>
      </trkpt>
      <trkpt lat="47.5794" lon="-0.47723">
        <ele>54.93</ele>
        <time>2017-03-26T08:28:31Z</time>
      </trkpt>
      <trkpt lat="47.57936" lon="-0.47722">
        <ele>55.41</ele>
        <time>2017-03-26T08:28:32Z</time>
      </trkpt>
      <trkpt lat="47.57883" lon="-0.47696">
        <ele>54.45</ele>
        <time>2017-03-26T08:28:47Z</time>
      </trkpt>
      <trkpt lat="47.57864" lon="-0.47673">
        <ele>53.97</ele>
        <time>2017-03-26T08:28:54Z</time>
      </trkpt>
      <trkpt lat="47.57865" lon="-0.47668">
        <ele>53.97</ele>
        <time>2017-03-26T08:28:55Z</time>
      </trkpt>
      <trkpt lat="47.57866" lon="-0.47663">
        <ele>53.97</ele>
        <time>2017-03-26T08:28:56Z</time>
      </trkpt>
      <trkpt lat="47.57889" lon="-0.47583">
        <ele>53.97</ele>
        <time>2017-03-26T08:29:10Z</time>
      </trkpt>
      <trkpt lat="47.57936" lon="-0.47513">
        <ele>53.49</ele>
        <time>2017-03-26T08:29:25Z</time>
      </trkpt>
      <trkpt lat="47.57949" lon="-0.475">
        <ele>53.97</ele>
        <time>2017-03-26T08:29:28Z</time>
      </trkpt>
      <trkpt lat="47.57953" lon="-0.47495">
        <ele>53.97</ele>
        <time>2017-03-26T08:29:29Z</time>
      </trkpt>
      <trkpt lat="47.57957" lon="-0.4749">
        <ele>53.97</ele>
        <time>2017-03-26T08:29:30Z</time>
      </trkpt>
      <trkpt lat="47.57975" lon="-0.47462">
        <ele>53.49</ele>
        <time>2017-03-26T08:29:35Z</time>
      </trkpt>
      <trkpt lat="47.57981" lon="-0.47449">
        <ele>53.49</ele>
        <time>2017-03-26T08:29:37Z</time>
      </trkpt>
      <trkpt lat="47.58008" lon="-0.47379">
        <ele>54.45</ele>
        <time>2017-03-26T08:29:48Z</time>
      </trkpt>
      <trkpt lat="47.58015" lon="-0.47368">
        <ele>54.45</ele>
        <time>2017-03-26T08:29:50Z</time>
      </trkpt>
      <trkpt lat="47.58019" lon="-0.47363">
        <ele>54.45</ele>
        <time>2017-03-26T08:29:51Z</time>
      </trkpt>
      <trkpt lat="47.58093" lon="-0.47305">
        <ele>55.89</ele>
        <time>2017-03-26T08:30:08Z</time>
      </trkpt>
      <trkpt lat="47.58118" lon="-0.47286">
        <ele>56.37</ele>
        <time>2017-03-26T08:30:14Z</time>
      </trkpt>
      <trkpt lat="47.58122" lon="-0.47282">
        <ele>56.37</ele>
        <time>2017-03-26T08:30:15Z</time>
      </trkpt>
      <trkpt lat="47.58184" lon="-0.47228">
        <ele>57.34</ele>
        <time>2017-03-26T08:30:31Z</time>
      </trkpt>
      <trkpt lat="47.58188" lon="-0.47225">
        <ele>57.82</ele>
        <time>2017-03-26T08:30:32Z</time>
      </trkpt>
      <trkpt lat="47.58192" lon="-0.47222">
        <ele>58.3</ele>
        <time>2017-03-26T08:30:33Z</time>
      </trkpt>
      <trkpt lat="47.5824" lon="-0.47195">
        <ele>58.3</ele>
        <time>2017-03-26T08:30:48Z</time>
      </trkpt>
      <trkpt lat="47.5827" lon="-0.47184">
        <ele>58.3</ele>
        <time>2017-03-26T08:30:58Z</time>
      </trkpt>
      <trkpt lat="47.58273" lon="-0.47182">
        <ele>58.78</ele>
        <time>2017-03-26T08:30:59Z</time>
      </trkpt>
      <trkpt lat="47.58282" lon="-0.47178">
        <ele>58.78</ele>
        <time>2017-03-26T08:31:01Z</time>
      </trkpt>
      <trkpt lat="47.58286" lon="-0.47175">
        <ele>58.78</ele>
        <time>2017-03-26T08:31:02Z</time>
      </trkpt>
      <trkpt lat="47.5829" lon="-0.47172">
        <ele>59.26</ele>
        <time>2017-03-26T08:31:03Z</time>
      </trkpt>
      <trkpt lat="47.58294" lon="-0.47168">
        <ele>59.26</ele>
        <time>2017-03-26T08:31:04Z</time>
      </trkpt>
      <trkpt lat="47.58297" lon="-0.47164">
        <ele>59.26</ele>
        <time>2017-03-26T08:31:05Z</time>
      </trkpt>
      <trkpt lat="47.58357" lon="-0.47097">
        <ele>59.74</ele>
        <time>2017-03-26T08:31:20Z</time>
      </trkpt>
      <trkpt lat="47.58368" lon="-0.4708">
        <ele>58.78</ele>
        <time>2017-03-26T08:31:23Z</time>
      </trkpt>
      <trkpt lat="47.58371" lon="-0.47074">
        <ele>58.78</ele>
        <time>2017-03-26T08:31:24Z</time>
      </trkpt>
      <trkpt lat="47.58389" lon="-0.46969">
        <ele>58.78</ele>
        <time>2017-03-26T08:31:38Z</time>
      </trkpt>
      <trkpt lat="47.58393" lon="-0.46958">
        <ele>58.3</ele>
        <time>2017-03-26T08:31:41Z</time>
      </trkpt>
      <trkpt lat="47.58396" lon="-0.46954">
        <ele>58.3</ele>
        <time>2017-03-26T08:31:43Z</time>
      </trkpt>
      <trkpt lat="47.58396" lon="-0.4695">
        <ele>58.3</ele>
        <time>2017-03-26T08:31:44Z</time>
      </trkpt>
      <trkpt lat="47.58394" lon="-0.46935">
        <ele>58.3</ele>
        <time>2017-03-26T08:31:47Z</time>
      </trkpt>
      <trkpt lat="47.58394" lon="-0.46928">
        <ele>58.3</ele>
        <time>2017-03-26T08:31:48Z</time>
      </trkpt>
      <trkpt lat="47.58402" lon="-0.4682">
        <ele>57.82</ele>
        <time>2017-03-26T08:32:02Z</time>
      </trkpt>
      <trkpt lat="47.58427" lon="-0.46685">
        <ele>58.3</ele>
        <time>2017-03-26T08:32:18Z</time>
      </trkpt>
      <trkpt lat="47.58439" lon="-0.46637">
        <ele>57.82</ele>
        <time>2017-03-26T08:32:24Z</time>
      </trkpt>
      <trkpt lat="47.58477" lon="-0.4652">
        <ele>55.89</ele>
        <time>2017-03-26T08:32:38Z</time>
      </trkpt>
      <trkpt lat="47.58502" lon="-0.46404">
        <ele>57.34</ele>
        <time>2017-03-26T08:32:52Z</time>
      </trkpt>
      <trkpt lat="47.58501" lon="-0.46397">
        <ele>56.86</ele>
        <time>2017-03-26T08:32:53Z</time>
      </trkpt>
      <trkpt lat="47.58498" lon="-0.46393">
        <ele>56.86</ele>
        <time>2017-03-26T08:32:54Z</time>
      </trkpt>
      <trkpt lat="47.58493" lon="-0.4639">
        <ele>56.86</ele>
        <time>2017-03-26T08:32:55Z</time>
      </trkpt>
      <trkpt lat="47.58487" lon="-0.46389">
        <ele>56.86</ele>
        <time>2017-03-26T08:32:56Z</time>
      </trkpt>
      <trkpt lat="47.58482" lon="-0.46389">
        <ele>56.86</ele>
        <time>2017-03-26T08:32:57Z</time>
      </trkpt>
      <trkpt lat="47.58476" lon="-0.46388">
        <ele>56.37</ele>
        <time>2017-03-26T08:32:58Z</time>
      </trkpt>
      <trkpt lat="47.5847" lon="-0.46387">
        <ele>56.37</ele>
        <time>2017-03-26T08:32:59Z</time>
      </trkpt>
      <trkpt lat="47.58464" lon="-0.46385">
        <ele>56.37</ele>
        <time>2017-03-26T08:33:00Z</time>
      </trkpt>
      <trkpt lat="47.58458" lon="-0.46381">
        <ele>55.89</ele>
        <time>2017-03-26T08:33:01Z</time>
      </trkpt>
      <trkpt lat="47.58451" lon="-0.46376">
        <ele>54.93</ele>
        <time>2017-03-26T08:33:02Z</time>
      </trkpt>
      <trkpt lat="47.58444" lon="-0.4637">
        <ele>54.93</ele>
        <time>2017-03-26T08:33:03Z</time>
      </trkpt>
      <trkpt lat="47.58408" lon="-0.46351">
        <ele>53.49</ele>
        <time>2017-03-26T08:33:08Z</time>
      </trkpt>
      <trkpt lat="47.58385" lon="-0.46349">
        <ele>53.01</ele>
        <time>2017-03-26T08:33:11Z</time>
      </trkpt>
      <trkpt lat="47.58338" lon="-0.46357">
        <ele>51.57</ele>
        <time>2017-03-26T08:33:17Z</time>
      </trkpt>
      <trkpt lat="47.58286" lon="-0.46377">
        <ele>49.65</ele>
        <time>2017-03-26T08:33:24Z</time>
      </trkpt>
      <trkpt lat="47.58271" lon="-0.4638">
        <ele>49.16</ele>
        <time>2017-03-26T08:33:26Z</time>
      </trkpt>
      <trkpt lat="47.58263" lon="-0.4638">
        <ele>49.16</ele>
        <time>2017-03-26T08:33:27Z</time>
      </trkpt>
      <trkpt lat="47.58256" lon="-0.46378">
        <ele>48.68</ele>
        <time>2017-03-26T08:33:28Z</time>
      </trkpt>
      <trkpt lat="47.58177" lon="-0.46343">
        <ele>45.8</ele>
        <time>2017-03-26T08:33:39Z</time>
      </trkpt>
      <trkpt lat="47.5817" lon="-0.4634">
        <ele>45.8</ele>
        <time>2017-03-26T08:33:40Z</time>
      </trkpt>
      <trkpt lat="47.58166" lon="-0.46335">
        <ele>45.32</ele>
        <time>2017-03-26T08:33:41Z</time>
      </trkpt>
      <trkpt lat="47.58162" lon="-0.46329">
        <ele>44.84</ele>
        <time>2017-03-26T08:33:42Z</time>
      </trkpt>
      <trkpt lat="47.58158" lon="-0.46321">
        <ele>44.84</ele>
        <time>2017-03-26T08:33:43Z</time>
      </trkpt>
      <trkpt lat="47.58157" lon="-0.46314">
        <ele>44.84</ele>
        <time>2017-03-26T08:33:44Z</time>
      </trkpt>
      <trkpt lat="47.58158" lon="-0.46306">
        <ele>45.32</ele>
        <time>2017-03-26T08:33:45Z</time>
      </trkpt>
      <trkpt lat="47.5816" lon="-0.46298">
        <ele>44.84</ele>
        <time>2017-03-26T08:33:46Z</time>
      </trkpt>
      <trkpt lat="47.58163" lon="-0.4629">
        <ele>45.32</ele>
        <time>2017-03-26T08:33:47Z</time>
      </trkpt>
      <trkpt lat="47.58166" lon="-0.46283">
        <ele>45.32</ele>
        <time>2017-03-26T08:33:48Z</time>
      </trkpt>
      <trkpt lat="47.58168" lon="-0.46278">
        <ele>44.84</ele>
        <time>2017-03-26T08:33:49Z</time>
      </trkpt>
      <trkpt lat="47.58171" lon="-0.46278">
        <ele>44.84</ele>
        <time>2017-03-26T08:33:50Z</time>
      </trkpt>
      <trkpt lat="47.58172" lon="-0.46278">
        <ele>44.84</ele>
        <time>2017-03-26T08:33:51Z</time>
      </trkpt>
      <trkpt lat="47.58171" lon="-0.46279">
        <ele>44.84</ele>
        <time>2017-03-26T08:33:52Z</time>
      </trkpt>
      <trkpt lat="47.5817" lon="-0.4628">
        <ele>44.84</ele>
        <time>2017-03-26T08:33:53Z</time>
      </trkpt>
      <trkpt lat="47.5817" lon="-0.46282">
        <ele>45.32</ele>
        <time>2017-03-26T08:33:54Z</time>
      </trkpt>
      <trkpt lat="47.58168" lon="-0.46286">
        <ele>44.84</ele>
        <time>2017-03-26T08:33:55Z</time>
      </trkpt>
      <trkpt lat="47.58167" lon="-0.46291">
        <ele>44.84</ele>
        <time>2017-03-26T08:33:56Z</time>
      </trkpt>
      <trkpt lat="47.58165" lon="-0.46295">
        <ele>44.84</ele>
        <time>2017-03-26T08:33:57Z</time>
      </trkpt>
      <trkpt lat="47.58155" lon="-0.46312">
        <ele>44.36</ele>
        <time>2017-03-26T08:34:02Z</time>
      </trkpt>
      <trkpt lat="47.58159" lon="-0.46313">
        <ele>43.4</ele>
        <time>2017-03-26T08:34:12Z</time>
      </trkpt>
      <trkpt lat="47.58163" lon="-0.46312">
        <ele>44.36</ele>
        <time>2017-03-26T08:34:43Z</time>
      </trkpt>
      <trkpt lat="47.5817" lon="-0.46308">
        <ele>44.36</ele>
        <time>2017-03-26T08:35:09Z</time>
      </trkpt>
      <trkpt lat="47.58168" lon="-0.46303">
        <ele>45.32</ele>
        <time>2017-03-26T08:35:23Z</time>
      </trkpt>
      <trkpt lat="47.58169" lon="-0.46302">
        <ele>44.84</ele>
        <time>2017-03-26T08:35:24Z</time>
      </trkpt>
      <trkpt lat="47.5817" lon="-0.46299">
        <ele>45.8</ele>
        <time>2017-03-26T08:35:25Z</time>
      </trkpt>
      <trkpt lat="47.5817" lon="-0.46297">
        <ele>45.8</ele>
        <time>2017-03-26T08:35:26Z</time>
      </trkpt>
      <trkpt lat="47.58172" lon="-0.46294">
        <ele>45.32</ele>
        <time>2017-03-26T08:35:27Z</time>
      </trkpt>
      <trkpt lat="47.58174" lon="-0.4629">
        <ele>45.32</ele>
        <time>2017-03-26T08:35:28Z</time>
      </trkpt>
      <trkpt lat="47.58176" lon="-0.46286">
        <ele>45.8</ele>
        <time>2017-03-26T08:35:29Z</time>
      </trkpt>
      <trkpt lat="47.58179" lon="-0.46281">
        <ele>45.8</ele>
        <time>2017-03-26T08:35:30Z</time>
      </trkpt>
      <trkpt lat="47.58181" lon="-0.46276">
        <ele>45.8</ele>
        <time>2017-03-26T08:35:31Z</time>
      </trkpt>
      <trkpt lat="47.58201" lon="-0.46232">
        <ele>47.24</ele>
        <time>2017-03-26T08:35:39Z</time>
      </trkpt>
      <trkpt lat="47.58218" lon="-0.46193">
        <ele>48.68</ele>
        <time>2017-03-26T08:35:45Z</time>
      </trkpt>
      <trkpt lat="47.58222" lon="-0.46188">
        <ele>49.16</ele>
        <time>2017-03-26T08:35:46Z</time>
      </trkpt>
      <trkpt lat="47.58226" lon="-0.46183">
        <ele>49.65</ele>
        <time>2017-03-26T08:35:47Z</time>
      </trkpt>
      <trkpt lat="47.58231" lon="-0.46177">
        <ele>49.65</ele>
        <time>2017-03-26T08:35:48Z</time>
      </trkpt>
      <trkpt lat="47.58234" lon="-0.4617">
        <ele>50.13</ele>
        <time>2017-03-26T08:35:49Z</time>
      </trkpt>
      <trkpt lat="47.58237" lon="-0.46163">
        <ele>50.61</ele>
        <time>2017-03-26T08:35:50Z</time>
      </trkpt>
      <trkpt lat="47.58239" lon="-0.46156">
        <ele>51.09</ele>
        <time>2017-03-26T08:35:51Z</time>
      </trkpt>
      <trkpt lat="47.58241" lon="-0.4615">
        <ele>51.09</ele>
        <time>2017-03-26T08:35:52Z</time>
      </trkpt>
      <trkpt lat="47.58246" lon="-0.46137">
        <ele>51.09</ele>
        <time>2017-03-26T08:35:54Z</time>
      </trkpt>
      <trkpt lat="47.58248" lon="-0.46132">
        <ele>51.57</ele>
        <time>2017-03-26T08:35:55Z</time>
      </trkpt>
      <trkpt lat="47.5827" lon="-0.46063">
        <ele>52.05</ele>
        <time>2017-03-26T08:36:07Z</time>
      </trkpt>
      <trkpt lat="47.58271" lon="-0.46056">
        <ele>52.05</ele>
        <time>2017-03-26T08:36:08Z</time>
      </trkpt>
      <trkpt lat="47.58272" lon="-0.46048">
        <ele>52.05</ele>
        <time>2017-03-26T08:36:09Z</time>
      </trkpt>
      <trkpt lat="47.58273" lon="-0.4604">
        <ele>52.05</ele>
        <time>2017-03-26T08:36:10Z</time>
      </trkpt>
      <trkpt lat="47.58274" lon="-0.46033">
        <ele>51.57</ele>
        <time>2017-03-26T08:36:11Z</time>
      </trkpt>
      <trkpt lat="47.58275" lon="-0.46025">
        <ele>52.05</ele>
        <time>2017-03-26T08:36:12Z</time>
      </trkpt>
      <trkpt lat="47.58286" lon="-0.45914">
        <ele>51.57</ele>
        <time>2017-03-26T08:36:26Z</time>
      </trkpt>
      <trkpt lat="47.5829" lon="-0.45892">
        <ele>52.05</ele>
        <time>2017-03-26T08:36:29Z</time>
      </trkpt>
      <trkpt lat="47.58291" lon="-0.45884">
        <ele>51.57</ele>
        <time>2017-03-26T08:36:30Z</time>
      </trkpt>
      <trkpt lat="47.58292" lon="-0.45876">
        <ele>51.57</ele>
        <time>2017-03-26T08:36:31Z</time>
      </trkpt>
      <trkpt lat="47.5831" lon="-0.45718">
        <ele>52.05</ele>
        <time>2017-03-26T08:36:51Z</time>
      </trkpt>
      <trkpt lat="47.58311" lon="-0.45711">
        <ele>51.57</ele>
        <time>2017-03-26T08:36:52Z</time>
      </trkpt>
      <trkpt lat="47.58314" lon="-0.4569">
        <ele>51.57</ele>
        <time>2017-03-26T08:36:55Z</time>
      </trkpt>
      <trkpt lat="47.58316" lon="-0.45684">
        <ele>51.57</ele>
        <time>2017-03-26T08:36:56Z</time>
      </trkpt>
      <trkpt lat="47.58319" lon="-0.45679">
        <ele>51.57</ele>
        <time>2017-03-26T08:36:57Z</time>
      </trkpt>
      <trkpt lat="47.58324" lon="-0.45674">
        <ele>52.05</ele>
        <time>2017-03-26T08:36:58Z</time>
      </trkpt>
      <trkpt lat="47.58328" lon="-0.4567">
        <ele>51.09</ele>
        <time>2017-03-26T08:36:59Z</time>
      </trkpt>
      <trkpt lat="47.58337" lon="-0.45662">
        <ele>51.57</ele>
        <time>2017-03-26T08:37:01Z</time>
      </trkpt>
      <trkpt lat="47.58414" lon="-0.45606">
        <ele>49.65</ele>
        <time>2017-03-26T08:37:15Z</time>
      </trkpt>
      <trkpt lat="47.58471" lon="-0.45588">
        <ele>48.2</ele>
        <time>2017-03-26T08:37:23Z</time>
      </trkpt>
      <trkpt lat="47.58479" lon="-0.45588">
        <ele>47.24</ele>
        <time>2017-03-26T08:37:24Z</time>
      </trkpt>
      <trkpt lat="47.58487" lon="-0.45589">
        <ele>47.24</ele>
        <time>2017-03-26T08:37:25Z</time>
      </trkpt>
      <trkpt lat="47.58495" lon="-0.45591">
        <ele>47.24</ele>
        <time>2017-03-26T08:37:26Z</time>
      </trkpt>
      <trkpt lat="47.58502" lon="-0.45593">
        <ele>47.24</ele>
        <time>2017-03-26T08:37:27Z</time>
      </trkpt>
      <trkpt lat="47.58509" lon="-0.45598">
        <ele>46.28</ele>
        <time>2017-03-26T08:37:28Z</time>
      </trkpt>
      <trkpt lat="47.58516" lon="-0.45603">
        <ele>46.28</ele>
        <time>2017-03-26T08:37:29Z</time>
      </trkpt>
      <trkpt lat="47.58523" lon="-0.45608">
        <ele>46.28</ele>
        <time>2017-03-26T08:37:30Z</time>
      </trkpt>
      <trkpt lat="47.5853" lon="-0.45609">
        <ele>45.8</ele>
        <time>2017-03-26T08:37:31Z</time>
      </trkpt>
      <trkpt lat="47.58537" lon="-0.45606">
        <ele>45.8</ele>
        <time>2017-03-26T08:37:32Z</time>
      </trkpt>
      <trkpt lat="47.58543" lon="-0.456">
        <ele>45.32</ele>
        <time>2017-03-26T08:37:33Z</time>
      </trkpt>
      <trkpt lat="47.58548" lon="-0.45592">
        <ele>45.32</ele>
        <time>2017-03-26T08:37:34Z</time>
      </trkpt>
      <trkpt lat="47.58553" lon="-0.45583">
        <ele>45.32</ele>
        <time>2017-03-26T08:37:35Z</time>
      </trkpt>
      <trkpt lat="47.58557" lon="-0.45573">
        <ele>44.84</ele>
        <time>2017-03-26T08:37:36Z</time>
      </trkpt>
      <trkpt lat="47.58561" lon="-0.45563">
        <ele>44.84</ele>
        <time>2017-03-26T08:37:37Z</time>
      </trkpt>
      <trkpt lat="47.5864" lon="-0.454">
        <ele>42.92</ele>
        <time>2017-03-26T08:37:54Z</time>
      </trkpt>
      <trkpt lat="47.58725" lon="-0.45275">
        <ele>40.03</ele>
        <time>2017-03-26T08:38:10Z</time>
      </trkpt>
      <trkpt lat="47.58804" lon="-0.45183">
        <ele>37.15</ele>
        <time>2017-03-26T08:38:23Z</time>
      </trkpt>
      <trkpt lat="47.5881" lon="-0.45176">
        <ele>37.15</ele>
        <time>2017-03-26T08:38:24Z</time>
      </trkpt>
      <trkpt lat="47.58863" lon="-0.45114">
        <ele>36.67</ele>
        <time>2017-03-26T08:38:33Z</time>
      </trkpt>
      <trkpt lat="47.58867" lon="-0.45105">
        <ele>36.19</ele>
        <time>2017-03-26T08:38:34Z</time>
      </trkpt>
      <trkpt lat="47.5887" lon="-0.45094">
        <ele>35.71</ele>
        <time>2017-03-26T08:38:35Z</time>
      </trkpt>
      <trkpt lat="47.58871" lon="-0.45083">
        <ele>35.71</ele>
        <time>2017-03-26T08:38:36Z</time>
      </trkpt>
      <trkpt lat="47.58871" lon="-0.45072">
        <ele>35.71</ele>
        <time>2017-03-26T08:38:37Z</time>
      </trkpt>
      <trkpt lat="47.5887" lon="-0.45061">
        <ele>35.71</ele>
        <time>2017-03-26T08:38:38Z</time>
      </trkpt>
      <trkpt lat="47.58868" lon="-0.4505">
        <ele>35.71</ele>
        <time>2017-03-26T08:38:39Z</time>
      </trkpt>
      <trkpt lat="47.58857" lon="-0.44973">
        <ele>34.26</ele>
        <time>2017-03-26T08:38:46Z</time>
      </trkpt>
      <trkpt lat="47.58849" lon="-0.44923">
        <ele>34.26</ele>
        <time>2017-03-26T08:38:51Z</time>
      </trkpt>
      <trkpt lat="47.58835" lon="-0.44792">
        <ele>33.3</ele>
        <time>2017-03-26T08:39:04Z</time>
      </trkpt>
      <trkpt lat="47.58817" lon="-0.44634">
        <ele>33.3</ele>
        <time>2017-03-26T08:39:20Z</time>
      </trkpt>
      <trkpt lat="47.588" lon="-0.44495">
        <ele>33.3</ele>
        <time>2017-03-26T08:39:36Z</time>
      </trkpt>
      <trkpt lat="47.5878" lon="-0.44342">
        <ele>30.42</ele>
        <time>2017-03-26T08:39:51Z</time>
      </trkpt>
      <trkpt lat="47.58765" lon="-0.44205">
        <ele>27.05</ele>
        <time>2017-03-26T08:40:03Z</time>
      </trkpt>
      <trkpt lat="47.58751" lon="-0.44108">
        <ele>26.57</ele>
        <time>2017-03-26T08:40:12Z</time>
      </trkpt>
      <trkpt lat="47.58748" lon="-0.44099">
        <ele>26.09</ele>
        <time>2017-03-26T08:40:13Z</time>
      </trkpt>
      <trkpt lat="47.58744" lon="-0.44091">
        <ele>26.57</ele>
        <time>2017-03-26T08:40:14Z</time>
      </trkpt>
      <trkpt lat="47.5874" lon="-0.44084">
        <ele>26.57</ele>
        <time>2017-03-26T08:40:15Z</time>
      </trkpt>
      <trkpt lat="47.58735" lon="-0.44077">
        <ele>26.57</ele>
        <time>2017-03-26T08:40:16Z</time>
      </trkpt>
      <trkpt lat="47.58682" lon="-0.44">
        <ele>26.57</ele>
        <time>2017-03-26T08:40:28Z</time>
      </trkpt>
      <trkpt lat="47.58681" lon="-0.43991">
        <ele>26.57</ele>
        <time>2017-03-26T08:40:29Z</time>
      </trkpt>
      <trkpt lat="47.58683" lon="-0.43982">
        <ele>26.57</ele>
        <time>2017-03-26T08:40:30Z</time>
      </trkpt>
      <trkpt lat="47.58686" lon="-0.43975">
        <ele>26.57</ele>
        <time>2017-03-26T08:40:31Z</time>
      </trkpt>
      <trkpt lat="47.58691" lon="-0.43968">
        <ele>26.57</ele>
        <time>2017-03-26T08:40:32Z</time>
      </trkpt>
      <trkpt lat="47.58758" lon="-0.43846">
        <ele>25.61</ele>
        <time>2017-03-26T08:40:47Z</time>
      </trkpt>
      <trkpt lat="47.58853" lon="-0.43696">
        <ele>24.65</ele>
        <time>2017-03-26T08:41:07Z</time>
      </trkpt>
      <trkpt lat="47.58939" lon="-0.43579">
        <ele>23.69</ele>
        <time>2017-03-26T08:41:24Z</time>
      </trkpt>
      <trkpt lat="47.58948" lon="-0.43564">
        <ele>23.69</ele>
        <time>2017-03-26T08:41:26Z</time>
      </trkpt>
      <trkpt lat="47.58952" lon="-0.43556">
        <ele>23.69</ele>
        <time>2017-03-26T08:41:27Z</time>
      </trkpt>
      <trkpt lat="47.58955" lon="-0.43547">
        <ele>23.69</ele>
        <time>2017-03-26T08:41:28Z</time>
      </trkpt>
      <trkpt lat="47.58958" lon="-0.43538">
        <ele>23.21</ele>
        <time>2017-03-26T08:41:29Z</time>
      </trkpt>
      <trkpt lat="47.5896" lon="-0.43529">
        <ele>23.21</ele>
        <time>2017-03-26T08:41:30Z</time>
      </trkpt>
      <trkpt lat="47.58981" lon="-0.43441">
        <ele>22.73</ele>
        <time>2017-03-26T08:41:40Z</time>
      </trkpt>
      <trkpt lat="47.58984" lon="-0.43434">
        <ele>22.73</ele>
        <time>2017-03-26T08:41:41Z</time>
      </trkpt>
      <trkpt lat="47.58988" lon="-0.43429">
        <ele>23.69</ele>
        <time>2017-03-26T08:41:42Z</time>
      </trkpt>
      <trkpt lat="47.58993" lon="-0.43425">
        <ele>23.21</ele>
        <time>2017-03-26T08:41:43Z</time>
      </trkpt>
      <trkpt lat="47.58998" lon="-0.43422">
        <ele>23.69</ele>
        <time>2017-03-26T08:41:44Z</time>
      </trkpt>
      <trkpt lat="47.59008" lon="-0.43413">
        <ele>23.21</ele>
        <time>2017-03-26T08:41:46Z</time>
      </trkpt>
      <trkpt lat="47.59013" lon="-0.43409">
        <ele>23.69</ele>
        <time>2017-03-26T08:41:47Z</time>
      </trkpt>
      <trkpt lat="47.59073" lon="-0.43344">
        <ele>24.65</ele>
        <time>2017-03-26T08:42:00Z</time>
      </trkpt>
      <trkpt lat="47.5915" lon="-0.43286">
        <ele>25.13</ele>
        <time>2017-03-26T08:42:15Z</time>
      </trkpt>
      <trkpt lat="47.59155" lon="-0.43282">
        <ele>25.61</ele>
        <time>2017-03-26T08:42:16Z</time>
      </trkpt>
      <trkpt lat="47.5916" lon="-0.43279">
        <ele>25.61</ele>
        <time>2017-03-26T08:42:17Z</time>
      </trkpt>
      <trkpt lat="47.59225" lon="-0.4323">
        <ele>26.09</ele>
        <time>2017-03-26T08:42:31Z</time>
      </trkpt>
      <trkpt lat="47.59291" lon="-0.432">
        <ele>27.05</ele>
        <time>2017-03-26T08:42:45Z</time>
      </trkpt>
      <trkpt lat="47.59329" lon="-0.43199">
        <ele>28.5</ele>
        <time>2017-03-26T08:42:53Z</time>
      </trkpt>
      <trkpt lat="47.59333" lon="-0.432">
        <ele>28.02</ele>
        <time>2017-03-26T08:42:54Z</time>
      </trkpt>
      <trkpt lat="47.59361" lon="-0.43198">
        <ele>28.02</ele>
        <time>2017-03-26T08:43:06Z</time>
      </trkpt>
      <trkpt lat="47.59363" lon="-0.43196">
        <ele>29.46</ele>
        <time>2017-03-26T08:43:22Z</time>
      </trkpt>
      <trkpt lat="47.59365" lon="-0.43199">
        <ele>28.98</ele>
        <time>2017-03-26T08:43:44Z</time>
      </trkpt>
      <trkpt lat="47.59367" lon="-0.432">
        <ele>28.5</ele>
        <time>2017-03-26T08:44:09Z</time>
      </trkpt>
      <trkpt lat="47.59365" lon="-0.432">
        <ele>28.5</ele>
        <time>2017-03-26T08:44:38Z</time>
      </trkpt>
      <trkpt lat="47.59369" lon="-0.43198">
        <ele>28.5</ele>
        <time>2017-03-26T08:45:03Z</time>
      </trkpt>
      <trkpt lat="47.5937" lon="-0.43195">
        <ele>28.5</ele>
        <time>2017-03-26T08:45:05Z</time>
      </trkpt>
      <trkpt lat="47.5937" lon="-0.43192">
        <ele>28.98</ele>
        <time>2017-03-26T08:45:06Z</time>
      </trkpt>
      <trkpt lat="47.59371" lon="-0.43189">
        <ele>28.98</ele>
        <time>2017-03-26T08:45:07Z</time>
      </trkpt>
      <trkpt lat="47.59373" lon="-0.43185">
        <ele>28.98</ele>
        <time>2017-03-26T08:45:08Z</time>
      </trkpt>
      <trkpt lat="47.59374" lon="-0.43182">
        <ele>28.98</ele>
        <time>2017-03-26T08:45:09Z</time>
      </trkpt>
      <trkpt lat="47.59409" lon="-0.43144">
        <ele>30.42</ele>
        <time>2017-03-26T08:45:22Z</time>
      </trkpt>
      <trkpt lat="47.5945" lon="-0.43129">
        <ele>31.38</ele>
        <time>2017-03-26T08:45:34Z</time>
      </trkpt>
      <trkpt lat="47.59467" lon="-0.43106">
        <ele>32.34</ele>
        <time>2017-03-26T08:45:41Z</time>
      </trkpt>
      <trkpt lat="47.59468" lon="-0.43103">
        <ele>32.82</ele>
        <time>2017-03-26T08:45:42Z</time>
      </trkpt>
      <trkpt lat="47.59469" lon="-0.43095">
        <ele>33.3</ele>
        <time>2017-03-26T08:45:51Z</time>
      </trkpt>
      <trkpt lat="47.59469" lon="-0.43096">
        <ele>33.3</ele>
        <time>2017-03-26T08:46:08Z</time>
      </trkpt>
      <trkpt lat="47.59472" lon="-0.43098">
        <ele>33.3</ele>
        <time>2017-03-26T08:46:22Z</time>
      </trkpt>
      <trkpt lat="47.59474" lon="-0.431">
        <ele>32.82</ele>
        <time>2017-03-26T08:46:34Z</time>
      </trkpt>
      <trkpt lat="47.59475" lon="-0.431">
        <ele>32.82</ele>
        <time>2017-03-26T08:46:47Z</time>
      </trkpt>
      <trkpt lat="47.59488" lon="-0.4311">
        <ele>32.34</ele>
        <time>2017-03-26T08:46:54Z</time>
      </trkpt>
      <trkpt lat="47.59505" lon="-0.43097">
        <ele>33.78</ele>
        <time>2017-03-26T08:47:03Z</time>
      </trkpt>
      <trkpt lat="47.59514" lon="-0.43099">
        <ele>34.26</ele>
        <time>2017-03-26T08:47:11Z</time>
      </trkpt>
      <trkpt lat="47.59516" lon="-0.431">
        <ele>34.74</ele>
        <time>2017-03-26T08:47:16Z</time>
      </trkpt>
      <trkpt lat="47.59519" lon="-0.43081">
        <ele>34.26</ele>
        <time>2017-03-26T08:47:25Z</time>
      </trkpt>
      <trkpt lat="47.59517" lon="-0.43071">
        <ele>33.78</ele>
        <time>2017-03-26T08:47:33Z</time>
      </trkpt>
      <trkpt lat="47.5952" lon="-0.43069">
        <ele>34.26</ele>
        <time>2017-03-26T08:48:15Z</time>
      </trkpt>
      <trkpt lat="47.59518" lon="-0.43072">
        <ele>34.74</ele>
        <time>2017-03-26T08:48:49Z</time>
      </trkpt>
      <trkpt lat="47.59523" lon="-0.43071">
        <ele>34.74</ele>
        <time>2017-03-26T08:49:36Z</time>
      </trkpt>
      <trkpt lat="47.59521" lon="-0.4307">
        <ele>36.19</ele>
        <time>2017-03-26T08:50:11Z</time>
      </trkpt>
      <trkpt lat="47.59521" lon="-0.43069">
        <ele>35.71</ele>
        <time>2017-03-26T08:50:12Z</time>
      </trkpt>
      <trkpt lat="47.59525" lon="-0.43057">
        <ele>35.71</ele>
        <time>2017-03-26T08:50:24Z</time>
      </trkpt>
      <trkpt lat="47.59529" lon="-0.43057">
        <ele>36.67</ele>
        <time>2017-03-26T08:50:47Z</time>
      </trkpt>
      <trkpt lat="47.59529" lon="-0.43058">
        <ele>36.67</ele>
        <time>2017-03-26T08:50:52Z</time>
      </trkpt>
      <trkpt lat="47.59542" lon="-0.4308">
        <ele>38.11</ele>
        <time>2017-03-26T08:51:02Z</time>
      </trkpt>
      <trkpt lat="47.59562" lon="-0.43091">
        <ele>39.07</ele>
        <time>2017-03-26T08:51:12Z</time>
      </trkpt>
      <trkpt lat="47.59576" lon="-0.43081">
        <ele>39.55</ele>
        <time>2017-03-26T08:51:19Z</time>
      </trkpt>
      <trkpt lat="47.59561" lon="-0.43065">
        <ele>39.55</ele>
        <time>2017-03-26T08:51:26Z</time>
      </trkpt>
      <trkpt lat="47.59564" lon="-0.43056">
        <ele>39.55</ele>
        <time>2017-03-26T08:51:35Z</time>
      </trkpt>
      <trkpt lat="47.59565" lon="-0.43053">
        <ele>39.55</ele>
        <time>2017-03-26T08:51:42Z</time>
      </trkpt>
      <trkpt lat="47.5957" lon="-0.43048">
        <ele>40.03</ele>
        <time>2017-03-26T08:51:47Z</time>
      </trkpt>
      <trkpt lat="47.59564" lon="-0.43023">
        <ele>40.03</ele>
        <time>2017-03-26T08:51:54Z</time>
      </trkpt>
      <trkpt lat="47.59561" lon="-0.43016">
        <ele>39.55</ele>
        <time>2017-03-26T08:52:04Z</time>
      </trkpt>
      <trkpt lat="47.59561" lon="-0.43008">
        <ele>39.55</ele>
        <time>2017-03-26T08:52:17Z</time>
      </trkpt>
      <trkpt lat="47.5956" lon="-0.43001">
        <ele>39.07</ele>
        <time>2017-03-26T08:52:19Z</time>
      </trkpt>
      <trkpt lat="47.59544" lon="-0.42979">
        <ele>38.59</ele>
        <time>2017-03-26T08:52:28Z</time>
      </trkpt>
      <trkpt lat="47.59536" lon="-0.42972">
        <ele>38.59</ele>
        <time>2017-03-26T08:52:31Z</time>
      </trkpt>
      <trkpt lat="47.59531" lon="-0.42972">
        <ele>39.07</ele>
        <time>2017-03-26T08:52:33Z</time>
      </trkpt>
      <trkpt lat="47.59526" lon="-0.4293">
        <ele>39.55</ele>
        <time>2017-03-26T08:52:43Z</time>
      </trkpt>
      <trkpt lat="47.59509" lon="-0.4291">
        <ele>41.47</ele>
        <time>2017-03-26T08:52:54Z</time>
      </trkpt>
      <trkpt lat="47.59504" lon="-0.42901">
        <ele>41.95</ele>
        <time>2017-03-26T08:53:04Z</time>
      </trkpt>
      <trkpt lat="47.59502" lon="-0.42899">
        <ele>41.95</ele>
        <time>2017-03-26T08:53:07Z</time>
      </trkpt>
      <trkpt lat="47.59501" lon="-0.42892">
        <ele>41.95</ele>
        <time>2017-03-26T08:53:23Z</time>
      </trkpt>
      <trkpt lat="47.59504" lon="-0.4289">
        <ele>42.44</ele>
        <time>2017-03-26T08:53:29Z</time>
      </trkpt>
      <trkpt lat="47.595" lon="-0.42886">
        <ele>42.44</ele>
        <time>2017-03-26T08:53:32Z</time>
      </trkpt>
      <trkpt lat="47.59484" lon="-0.42876">
        <ele>43.4</ele>
        <time>2017-03-26T08:53:40Z</time>
      </trkpt>
      <trkpt lat="47.59475" lon="-0.42878">
        <ele>42.92</ele>
        <time>2017-03-26T08:53:51Z</time>
      </trkpt>
      <trkpt lat="47.59461" lon="-0.42873">
        <ele>43.4</ele>
        <time>2017-03-26T08:54:26Z</time>
      </trkpt>
      <trkpt lat="47.59462" lon="-0.4287">
        <ele>43.88</ele>
        <time>2017-03-26T08:55:02Z</time>
      </trkpt>
      <trkpt lat="47.59462" lon="-0.42879">
        <ele>44.36</ele>
        <time>2017-03-26T08:55:05Z</time>
      </trkpt>
      <trkpt lat="47.59462" lon="-0.42883">
        <ele>43.88</ele>
        <time>2017-03-26T08:55:06Z</time>
      </trkpt>
      <trkpt lat="47.59464" lon="-0.42888">
        <ele>43.88</ele>
        <time>2017-03-26T08:55:07Z</time>
      </trkpt>
      <trkpt lat="47.59467" lon="-0.42894">
        <ele>43.88</ele>
        <time>2017-03-26T08:55:08Z</time>
      </trkpt>
      <trkpt lat="47.59468" lon="-0.429">
        <ele>44.36</ele>
        <time>2017-03-26T08:55:09Z</time>
      </trkpt>
      <trkpt lat="47.59467" lon="-0.42906">
        <ele>44.36</ele>
        <time>2017-03-26T08:55:10Z</time>
      </trkpt>
      <trkpt lat="47.59467" lon="-0.42912">
        <ele>44.36</ele>
        <time>2017-03-26T08:55:11Z</time>
      </trkpt>
      <trkpt lat="47.59462" lon="-0.42957">
        <ele>42.92</ele>
        <time>2017-03-26T08:55:20Z</time>
      </trkpt>
      <trkpt lat="47.59461" lon="-0.42963">
        <ele>42.44</ele>
        <time>2017-03-26T08:55:48Z</time>
      </trkpt>
      <trkpt lat="47.59459" lon="-0.4296">
        <ele>43.88</ele>
        <time>2017-03-26T08:56:22Z</time>
      </trkpt>
      <trkpt lat="47.59459" lon="-0.42958">
        <ele>43.88</ele>
        <time>2017-03-26T08:56:23Z</time>
      </trkpt>
      <trkpt lat="47.59457" lon="-0.42957">
        <ele>43.88</ele>
        <time>2017-03-26T08:56:24Z</time>
      </trkpt>
      <trkpt lat="47.59447" lon="-0.42949">
        <ele>43.88</ele>
        <time>2017-03-26T08:56:38Z</time>
      </trkpt>
      <trkpt lat="47.59448" lon="-0.42948">
        <ele>43.4</ele>
        <time>2017-03-26T08:56:51Z</time>
      </trkpt>
      <trkpt lat="47.59442" lon="-0.42959">
        <ele>43.4</ele>
        <time>2017-03-26T08:57:32Z</time>
      </trkpt>
      <trkpt lat="47.5944" lon="-0.42955">
        <ele>43.4</ele>
        <time>2017-03-26T08:58:17Z</time>
      </trkpt>
      <trkpt lat="47.5945" lon="-0.4294">
        <ele>43.4</ele>
        <time>2017-03-26T08:59:02Z</time>
      </trkpt>
      <trkpt lat="47.59455" lon="-0.42946">
        <ele>43.4</ele>
        <time>2017-03-26T08:59:36Z</time>
      </trkpt>
      <trkpt lat="47.59456" lon="-0.42946">
        <ele>43.88</ele>
        <time>2017-03-26T09:00:16Z</time>
      </trkpt>
      <trkpt lat="47.59461" lon="-0.42946">
        <ele>44.36</ele>
        <time>2017-03-26T09:00:50Z</time>
      </trkpt>
      <trkpt lat="47.59461" lon="-0.42947">
        <ele>45.32</ele>
        <time>2017-03-26T09:01:25Z</time>
      </trkpt>
      <trkpt lat="47.59456" lon="-0.42939">
        <ele>45.32</ele>
        <time>2017-03-26T09:01:33Z</time>
      </trkpt>
      <trkpt lat="47.59455" lon="-0.42937">
        <ele>45.32</ele>
        <time>2017-03-26T09:01:34Z</time>
      </trkpt>
      <trkpt lat="47.59454" lon="-0.42934">
        <ele>45.32</ele>
        <time>2017-03-26T09:01:35Z</time>
      </trkpt>
      <trkpt lat="47.59455" lon="-0.42931">
        <ele>45.32</ele>
        <time>2017-03-26T09:01:36Z</time>
      </trkpt>
      <trkpt lat="47.59454" lon="-0.42929">
        <ele>45.8</ele>
        <time>2017-03-26T09:01:37Z</time>
      </trkpt>
      <trkpt lat="47.59453" lon="-0.42925">
        <ele>45.8</ele>
        <time>2017-03-26T09:01:38Z</time>
      </trkpt>
      <trkpt lat="47.59451" lon="-0.42921">
        <ele>45.8</ele>
        <time>2017-03-26T09:01:39Z</time>
      </trkpt>
      <trkpt lat="47.59439" lon="-0.42909">
        <ele>46.28</ele>
        <time>2017-03-26T09:01:44Z</time>
      </trkpt>
      <trkpt lat="47.59436" lon="-0.42906">
        <ele>46.28</ele>
        <time>2017-03-26T09:01:46Z</time>
      </trkpt>
      <trkpt lat="47.59428" lon="-0.42915">
        <ele>45.32</ele>
        <time>2017-03-26T09:01:51Z</time>
      </trkpt>
      <trkpt lat="47.59426" lon="-0.42936">
        <ele>43.88</ele>
        <time>2017-03-26T09:01:59Z</time>
      </trkpt>
      <trkpt lat="47.59428" lon="-0.42941">
        <ele>43.88</ele>
        <time>2017-03-26T09:02:17Z</time>
      </trkpt>
      <trkpt lat="47.5943" lon="-0.42948">
        <ele>43.88</ele>
        <time>2017-03-26T09:02:45Z</time>
      </trkpt>
      <trkpt lat="47.59433" lon="-0.42957">
        <ele>44.36</ele>
        <time>2017-03-26T09:03:04Z</time>
      </trkpt>
      <trkpt lat="47.59441" lon="-0.42965">
        <ele>44.36</ele>
        <time>2017-03-26T09:03:11Z</time>
      </trkpt>
      <trkpt lat="47.59434" lon="-0.42977">
        <ele>42.44</ele>
        <time>2017-03-26T09:03:21Z</time>
      </trkpt>
      <trkpt lat="47.59432" lon="-0.42979">
        <ele>40.99</ele>
        <time>2017-03-26T09:03:23Z</time>
      </trkpt>
      <trkpt lat="47.59422" lon="-0.42963">
        <ele>42.92</ele>
        <time>2017-03-26T09:03:33Z</time>
      </trkpt>
      <trkpt lat="47.59421" lon="-0.42962">
        <ele>42.44</ele>
        <time>2017-03-26T09:03:34Z</time>
      </trkpt>
      <trkpt lat="47.59416" lon="-0.42961">
        <ele>42.92</ele>
        <time>2017-03-26T09:03:37Z</time>
      </trkpt>
      <trkpt lat="47.59407" lon="-0.42939">
        <ele>44.84</ele>
        <time>2017-03-26T09:03:46Z</time>
      </trkpt>
      <trkpt lat="47.59404" lon="-0.42934">
        <ele>45.32</ele>
        <time>2017-03-26T09:04:00Z</time>
      </trkpt>
      <trkpt lat="47.59404" lon="-0.42934">
        <ele>45.32</ele>
        <time>2017-03-26T09:04:04Z</time>
      </trkpt>
      <trkpt lat="47.59418" lon="-0.42897">
        <ele>46.76</ele>
        <time>2017-03-26T09:04:17Z</time>
      </trkpt>
      <trkpt lat="47.59421" lon="-0.42897">
        <ele>46.76</ele>
        <time>2017-03-26T09:04:23Z</time>
      </trkpt>
      <trkpt lat="47.59424" lon="-0.42914">
        <ele>45.8</ele>
        <time>2017-03-26T09:04:32Z</time>
      </trkpt>
      <trkpt lat="47.59424" lon="-0.42917">
        <ele>45.8</ele>
        <time>2017-03-26T09:04:34Z</time>
      </trkpt>
      <trkpt lat="47.59429" lon="-0.42938">
        <ele>44.36</ele>
        <time>2017-03-26T09:04:40Z</time>
      </trkpt>
      <trkpt lat="47.59436" lon="-0.42956">
        <ele>44.36</ele>
        <time>2017-03-26T09:04:48Z</time>
      </trkpt>
      <trkpt lat="47.5944" lon="-0.42959">
        <ele>44.84</ele>
        <time>2017-03-26T09:04:52Z</time>
      </trkpt>
      <trkpt lat="47.5944" lon="-0.42974">
        <ele>44.36</ele>
        <time>2017-03-26T09:04:57Z</time>
      </trkpt>
      <trkpt lat="47.59436" lon="-0.42975">
        <ele>42.92</ele>
        <time>2017-03-26T09:05:00Z</time>
      </trkpt>
      <trkpt lat="47.59432" lon="-0.42977">
        <ele>41.47</ele>
        <time>2017-03-26T09:05:03Z</time>
      </trkpt>
      <trkpt lat="47.59429" lon="-0.42975">
        <ele>40.99</ele>
        <time>2017-03-26T09:05:05Z</time>
      </trkpt>
      <trkpt lat="47.59426" lon="-0.42968">
        <ele>41.95</ele>
        <time>2017-03-26T09:05:08Z</time>
      </trkpt>
      <trkpt lat="47.59417" lon="-0.42959">
        <ele>42.44</ele>
        <time>2017-03-26T09:05:21Z</time>
      </trkpt>
      <trkpt lat="47.59415" lon="-0.42959">
        <ele>42.44</ele>
        <time>2017-03-26T09:05:33Z</time>
      </trkpt>
      <trkpt lat="47.59408" lon="-0.42955">
        <ele>42.44</ele>
        <time>2017-03-26T09:05:45Z</time>
      </trkpt>
      <trkpt lat="47.59409" lon="-0.42948">
        <ele>43.4</ele>
        <time>2017-03-26T09:05:53Z</time>
      </trkpt>
      <trkpt lat="47.59402" lon="-0.42937">
        <ele>45.32</ele>
        <time>2017-03-26T09:06:04Z</time>
      </trkpt>
      <trkpt lat="47.59399" lon="-0.4294">
        <ele>45.8</ele>
        <time>2017-03-26T09:06:13Z</time>
      </trkpt>
      <trkpt lat="47.59396" lon="-0.42966">
        <ele>45.8</ele>
        <time>2017-03-26T09:06:23Z</time>
      </trkpt>
      <trkpt lat="47.59399" lon="-0.42969">
        <ele>45.8</ele>
        <time>2017-03-26T09:06:25Z</time>
      </trkpt>
      <trkpt lat="47.59399" lon="-0.42972">
        <ele>44.36</ele>
        <time>2017-03-26T09:06:28Z</time>
      </trkpt>
      <trkpt lat="47.59398" lon="-0.42974">
        <ele>40.51</ele>
        <time>2017-03-26T09:06:38Z</time>
      </trkpt>
      <trkpt lat="47.59398" lon="-0.42974">
        <ele>45.32</ele>
        <time>2017-03-26T09:06:39Z</time>
      </trkpt>
      <trkpt lat="47.59397" lon="-0.42975">
        <ele>44.36</ele>
        <time>2017-03-26T09:07:07Z</time>
      </trkpt>
      <trkpt lat="47.594" lon="-0.42971">
        <ele>43.88</ele>
        <time>2017-03-26T09:07:38Z</time>
      </trkpt>
      <trkpt lat="47.59397" lon="-0.42972">
        <ele>44.84</ele>
        <time>2017-03-26T09:07:52Z</time>
      </trkpt>
      <trkpt lat="47.59397" lon="-0.42968">
        <ele>44.84</ele>
        <time>2017-03-26T09:08:08Z</time>
      </trkpt>
      <trkpt lat="47.594" lon="-0.42966">
        <ele>45.8</ele>
        <time>2017-03-26T09:08:32Z</time>
      </trkpt>
      <trkpt lat="47.59399" lon="-0.42968">
        <ele>45.32</ele>
        <time>2017-03-26T09:08:35Z</time>
      </trkpt>
      <trkpt lat="47.5939" lon="-0.42978">
        <ele>44.84</ele>
        <time>2017-03-26T09:08:40Z</time>
      </trkpt>
      <trkpt lat="47.59388" lon="-0.42982">
        <ele>45.32</ele>
        <time>2017-03-26T09:08:42Z</time>
      </trkpt>
      <trkpt lat="47.59378" lon="-0.43008">
        <ele>41.95</ele>
        <time>2017-03-26T09:08:47Z</time>
      </trkpt>
      <trkpt lat="47.5937" lon="-0.43024">
        <ele>40.99</ele>
        <time>2017-03-26T09:08:51Z</time>
      </trkpt>
      <trkpt lat="47.59362" lon="-0.43047">
        <ele>40.03</ele>
        <time>2017-03-26T09:08:57Z</time>
      </trkpt>
      <trkpt lat="47.59369" lon="-0.43072">
        <ele>40.51</ele>
        <time>2017-03-26T09:09:05Z</time>
      </trkpt>
      <trkpt lat="47.59373" lon="-0.43078">
        <ele>40.03</ele>
        <time>2017-03-26T09:09:15Z</time>
      </trkpt>
      <trkpt lat="47.59368" lon="-0.43083">
        <ele>40.51</ele>
        <time>2017-03-26T09:09:42Z</time>
      </trkpt>
      <trkpt lat="47.59369" lon="-0.43085">
        <ele>41.47</ele>
        <time>2017-03-26T09:10:05Z</time>
      </trkpt>
      <trkpt lat="47.5937" lon="-0.43091">
        <ele>40.03</ele>
        <time>2017-03-26T09:10:15Z</time>
      </trkpt>
      <trkpt lat="47.59368" lon="-0.4309">
        <ele>40.51</ele>
        <time>2017-03-26T09:10:18Z</time>
      </trkpt>
      <trkpt lat="47.59359" lon="-0.43105">
        <ele>38.11</ele>
        <time>2017-03-26T09:10:26Z</time>
      </trkpt>
      <trkpt lat="47.59356" lon="-0.4312">
        <ele>37.15</ele>
        <time>2017-03-26T09:10:33Z</time>
      </trkpt>
      <trkpt lat="47.59356" lon="-0.43126">
        <ele>36.19</ele>
        <time>2017-03-26T09:10:46Z</time>
      </trkpt>
      <trkpt lat="47.59351" lon="-0.43124">
        <ele>36.67</ele>
        <time>2017-03-26T09:11:28Z</time>
      </trkpt>
      <trkpt lat="47.59341" lon="-0.43123">
        <ele>36.67</ele>
        <time>2017-03-26T09:12:09Z</time>
      </trkpt>
      <trkpt lat="47.59347" lon="-0.43122">
        <ele>36.19</ele>
        <time>2017-03-26T09:12:46Z</time>
      </trkpt>
      <trkpt lat="47.59346" lon="-0.43126">
        <ele>37.15</ele>
        <time>2017-03-26T09:13:25Z</time>
      </trkpt>
      <trkpt lat="47.59346" lon="-0.43127">
        <ele>36.19</ele>
        <time>2017-03-26T09:13:55Z</time>
      </trkpt>
      <trkpt lat="47.59342" lon="-0.43124">
        <ele>36.67</ele>
        <time>2017-03-26T09:14:34Z</time>
      </trkpt>
      <trkpt lat="47.5935" lon="-0.43116">
        <ele>37.15</ele>
        <time>2017-03-26T09:15:20Z</time>
      </trkpt>
      <trkpt lat="47.59349" lon="-0.43119">
        <ele>37.15</ele>
        <time>2017-03-26T09:15:53Z</time>
      </trkpt>
      <trkpt lat="47.59354" lon="-0.43122">
        <ele>37.15</ele>
        <time>2017-03-26T09:16:30Z</time>
      </trkpt>
      <trkpt lat="47.59358" lon="-0.43123">
        <ele>37.15</ele>
        <time>2017-03-26T09:17:08Z</time>
      </trkpt>
      <trkpt lat="47.59359" lon="-0.43121">
        <ele>37.63</ele>
        <time>2017-03-26T09:17:49Z</time>
      </trkpt>
      <trkpt lat="47.59353" lon="-0.4313">
        <ele>37.15</ele>
        <time>2017-03-26T09:17:59Z</time>
      </trkpt>
      <trkpt lat="47.59355" lon="-0.43141">
        <ele>36.67</ele>
        <time>2017-03-26T09:18:03Z</time>
      </trkpt>
      <trkpt lat="47.59361" lon="-0.4316">
        <ele>36.67</ele>
        <time>2017-03-26T09:18:09Z</time>
      </trkpt>
      <trkpt lat="47.59362" lon="-0.43173">
        <ele>36.19</ele>
        <time>2017-03-26T09:18:12Z</time>
      </trkpt>
      <trkpt lat="47.59366" lon="-0.4318">
        <ele>35.71</ele>
        <time>2017-03-26T09:18:14Z</time>
      </trkpt>
      <trkpt lat="47.59368" lon="-0.43179">
        <ele>36.19</ele>
        <time>2017-03-26T09:18:15Z</time>
      </trkpt>
      <trkpt lat="47.59371" lon="-0.43177">
        <ele>36.19</ele>
        <time>2017-03-26T09:18:16Z</time>
      </trkpt>
      <trkpt lat="47.59373" lon="-0.43174">
        <ele>36.19</ele>
        <time>2017-03-26T09:18:17Z</time>
      </trkpt>
      <trkpt lat="47.59375" lon="-0.43171">
        <ele>36.19</ele>
        <time>2017-03-26T09:18:18Z</time>
      </trkpt>
      <trkpt lat="47.59407" lon="-0.43142">
        <ele>37.15</ele>
        <time>2017-03-26T09:18:30Z</time>
      </trkpt>
      <trkpt lat="47.5945" lon="-0.43128">
        <ele>38.11</ele>
        <time>2017-03-26T09:18:43Z</time>
      </trkpt>
      <trkpt lat="47.5947" lon="-0.43096">
        <ele>40.03</ele>
        <time>2017-03-26T09:18:53Z</time>
      </trkpt>
      <trkpt lat="47.59472" lon="-0.43095">
        <ele>40.51</ele>
        <time>2017-03-26T09:18:54Z</time>
      </trkpt>
      <trkpt lat="47.59474" lon="-0.43095">
        <ele>40.03</ele>
        <time>2017-03-26T09:18:55Z</time>
      </trkpt>
      <trkpt lat="47.59478" lon="-0.43098">
        <ele>40.03</ele>
        <time>2017-03-26T09:18:57Z</time>
      </trkpt>
      <trkpt lat="47.59484" lon="-0.43103">
        <ele>39.55</ele>
        <time>2017-03-26T09:19:00Z</time>
      </trkpt>
      <trkpt lat="47.59504" lon="-0.43093">
        <ele>40.03</ele>
        <time>2017-03-26T09:19:10Z</time>
      </trkpt>
      <trkpt lat="47.59506" lon="-0.43095">
        <ele>40.03</ele>
        <time>2017-03-26T09:19:11Z</time>
      </trkpt>
      <trkpt lat="47.59519" lon="-0.4309">
        <ele>41.95</ele>
        <time>2017-03-26T09:19:17Z</time>
      </trkpt>
      <trkpt lat="47.59518" lon="-0.43082">
        <ele>40.99</ele>
        <time>2017-03-26T09:19:19Z</time>
      </trkpt>
      <trkpt lat="47.59521" lon="-0.43059">
        <ele>41.47</ele>
        <time>2017-03-26T09:19:27Z</time>
      </trkpt>
      <trkpt lat="47.59532" lon="-0.43071">
        <ele>41.95</ele>
        <time>2017-03-26T09:19:32Z</time>
      </trkpt>
      <trkpt lat="47.59538" lon="-0.43079">
        <ele>42.92</ele>
        <time>2017-03-26T09:19:35Z</time>
      </trkpt>
      <trkpt lat="47.59557" lon="-0.43088">
        <ele>43.4</ele>
        <time>2017-03-26T09:19:43Z</time>
      </trkpt>
      <trkpt lat="47.59577" lon="-0.43088">
        <ele>43.88</ele>
        <time>2017-03-26T09:19:51Z</time>
      </trkpt>
      <trkpt lat="47.59577" lon="-0.43081">
        <ele>43.88</ele>
        <time>2017-03-26T09:19:54Z</time>
      </trkpt>
      <trkpt lat="47.59566" lon="-0.43057">
        <ele>44.36</ele>
        <time>2017-03-26T09:20:03Z</time>
      </trkpt>
      <trkpt lat="47.59572" lon="-0.4304">
        <ele>44.84</ele>
        <time>2017-03-26T09:20:10Z</time>
      </trkpt>
      <trkpt lat="47.59568" lon="-0.43033">
        <ele>44.36</ele>
        <time>2017-03-26T09:20:12Z</time>
      </trkpt>
      <trkpt lat="47.59565" lon="-0.43019">
        <ele>44.84</ele>
        <time>2017-03-26T09:20:15Z</time>
      </trkpt>
      <trkpt lat="47.59547" lon="-0.42985">
        <ele>43.4</ele>
        <time>2017-03-26T09:20:25Z</time>
      </trkpt>
      <trkpt lat="47.5953" lon="-0.42973">
        <ele>43.4</ele>
        <time>2017-03-26T09:20:32Z</time>
      </trkpt>
      <trkpt lat="47.59526" lon="-0.42951">
        <ele>43.4</ele>
        <time>2017-03-26T09:20:37Z</time>
      </trkpt>
      <trkpt lat="47.59526" lon="-0.42941">
        <ele>43.88</ele>
        <time>2017-03-26T09:20:39Z</time>
      </trkpt>
      <trkpt lat="47.5952" lon="-0.42926">
        <ele>44.84</ele>
        <time>2017-03-26T09:20:44Z</time>
      </trkpt>
      <trkpt lat="47.59507" lon="-0.42908">
        <ele>46.76</ele>
        <time>2017-03-26T09:20:54Z</time>
      </trkpt>
      <trkpt lat="47.59503" lon="-0.42895">
        <ele>47.24</ele>
        <time>2017-03-26T09:20:58Z</time>
      </trkpt>
      <trkpt lat="47.59492" lon="-0.42889">
        <ele>47.72</ele>
        <time>2017-03-26T09:21:03Z</time>
      </trkpt>
      <trkpt lat="47.59488" lon="-0.42883">
        <ele>48.2</ele>
        <time>2017-03-26T09:21:06Z</time>
      </trkpt>
      <trkpt lat="47.5947" lon="-0.42908">
        <ele>47.72</ele>
        <time>2017-03-26T09:21:17Z</time>
      </trkpt>
      <trkpt lat="47.5946" lon="-0.42957">
        <ele>46.76</ele>
        <time>2017-03-26T09:21:28Z</time>
      </trkpt>
      <trkpt lat="47.59454" lon="-0.42956">
        <ele>47.24</ele>
        <time>2017-03-26T09:21:31Z</time>
      </trkpt>
      <trkpt lat="47.59446" lon="-0.4294">
        <ele>47.72</ele>
        <time>2017-03-26T09:21:38Z</time>
      </trkpt>
      <trkpt lat="47.59446" lon="-0.42936">
        <ele>47.24</ele>
        <time>2017-03-26T09:21:39Z</time>
      </trkpt>
      <trkpt lat="47.59444" lon="-0.42928">
        <ele>48.2</ele>
        <time>2017-03-26T09:21:41Z</time>
      </trkpt>
      <trkpt lat="47.59444" lon="-0.42925">
        <ele>48.2</ele>
        <time>2017-03-26T09:21:42Z</time>
      </trkpt>
      <trkpt lat="47.59439" lon="-0.42909">
        <ele>48.68</ele>
        <time>2017-03-26T09:21:50Z</time>
      </trkpt>
      <trkpt lat="47.59427" lon="-0.4292">
        <ele>47.24</ele>
        <time>2017-03-26T09:21:56Z</time>
      </trkpt>
      <trkpt lat="47.59427" lon="-0.42927">
        <ele>46.76</ele>
        <time>2017-03-26T09:21:58Z</time>
      </trkpt>
      <trkpt lat="47.59431" lon="-0.4294">
        <ele>45.32</ele>
        <time>2017-03-26T09:22:07Z</time>
      </trkpt>
      <trkpt lat="47.59435" lon="-0.42939">
        <ele>44.84</ele>
        <time>2017-03-26T09:22:45Z</time>
      </trkpt>
      <trkpt lat="47.59434" lon="-0.42936">
        <ele>45.32</ele>
        <time>2017-03-26T09:23:18Z</time>
      </trkpt>
      <trkpt lat="47.59428" lon="-0.42935">
        <ele>45.8</ele>
        <time>2017-03-26T09:23:32Z</time>
      </trkpt>
      <trkpt lat="47.59433" lon="-0.42945">
        <ele>45.8</ele>
        <time>2017-03-26T09:23:36Z</time>
      </trkpt>
      <trkpt lat="47.59436" lon="-0.4295">
        <ele>45.8</ele>
        <time>2017-03-26T09:23:38Z</time>
      </trkpt>
      <trkpt lat="47.5944" lon="-0.42957">
        <ele>45.8</ele>
        <time>2017-03-26T09:23:43Z</time>
      </trkpt>
      <trkpt lat="47.59442" lon="-0.4296">
        <ele>45.8</ele>
        <time>2017-03-26T09:23:46Z</time>
      </trkpt>
      <trkpt lat="47.59443" lon="-0.42972">
        <ele>46.28</ele>
        <time>2017-03-26T09:23:50Z</time>
      </trkpt>
      <trkpt lat="47.59437" lon="-0.42976">
        <ele>45.32</ele>
        <time>2017-03-26T09:23:54Z</time>
      </trkpt>
      <trkpt lat="47.59433" lon="-0.42978">
        <ele>43.88</ele>
        <time>2017-03-26T09:23:57Z</time>
      </trkpt>
      <trkpt lat="47.59431" lon="-0.42978">
        <ele>42.44</ele>
        <time>2017-03-26T09:23:58Z</time>
      </trkpt>
      <trkpt lat="47.59422" lon="-0.4297">
        <ele>44.36</ele>
        <time>2017-03-26T09:24:04Z</time>
      </trkpt>
      <trkpt lat="47.59407" lon="-0.4295">
        <ele>44.84</ele>
        <time>2017-03-26T09:24:15Z</time>
      </trkpt>
      <trkpt lat="47.59405" lon="-0.42942">
        <ele>45.8</ele>
        <time>2017-03-26T09:24:17Z</time>
      </trkpt>
      <trkpt lat="47.59394" lon="-0.4296">
        <ele>47.24</ele>
        <time>2017-03-26T09:24:27Z</time>
      </trkpt>
      <trkpt lat="47.59399" lon="-0.4297">
        <ele>47.24</ele>
        <time>2017-03-26T09:24:31Z</time>
      </trkpt>
      <trkpt lat="47.59399" lon="-0.42977">
        <ele>46.76</ele>
        <time>2017-03-26T09:24:34Z</time>
      </trkpt>
      <trkpt lat="47.59389" lon="-0.42985">
        <ele>46.28</ele>
        <time>2017-03-26T09:24:39Z</time>
      </trkpt>
      <trkpt lat="47.59382" lon="-0.43007">
        <ele>43.4</ele>
        <time>2017-03-26T09:24:45Z</time>
      </trkpt>
      <trkpt lat="47.59369" lon="-0.43045">
        <ele>41.47</ele>
        <time>2017-03-26T09:24:51Z</time>
      </trkpt>
      <trkpt lat="47.5937" lon="-0.43059">
        <ele>40.99</ele>
        <time>2017-03-26T09:24:54Z</time>
      </trkpt>
      <trkpt lat="47.59379" lon="-0.43083">
        <ele>41.95</ele>
        <time>2017-03-26T09:25:03Z</time>
      </trkpt>
      <trkpt lat="47.59376" lon="-0.43087">
        <ele>41.47</ele>
        <time>2017-03-26T09:25:11Z</time>
      </trkpt>
      <trkpt lat="47.59374" lon="-0.43086">
        <ele>40.99</ele>
        <time>2017-03-26T09:25:51Z</time>
      </trkpt>
      <trkpt lat="47.59377" lon="-0.43084">
        <ele>40.51</ele>
        <time>2017-03-26T09:26:15Z</time>
      </trkpt>
      <trkpt lat="47.59376" lon="-0.43086">
        <ele>41.47</ele>
        <time>2017-03-26T09:26:22Z</time>
      </trkpt>
      <trkpt lat="47.59376" lon="-0.43077">
        <ele>41.95</ele>
        <time>2017-03-26T09:26:32Z</time>
      </trkpt>
      <trkpt lat="47.59375" lon="-0.43078">
        <ele>42.44</ele>
        <time>2017-03-26T09:26:34Z</time>
      </trkpt>
      <trkpt lat="47.59372" lon="-0.43089">
        <ele>41.47</ele>
        <time>2017-03-26T09:26:41Z</time>
      </trkpt>
      <trkpt lat="47.59368" lon="-0.43094">
        <ele>40.51</ele>
        <time>2017-03-26T09:26:43Z</time>
      </trkpt>
      <trkpt lat="47.59358" lon="-0.4311">
        <ele>38.11</ele>
        <time>2017-03-26T09:26:49Z</time>
      </trkpt>
      <trkpt lat="47.5937" lon="-0.4312">
        <ele>39.07</ele>
        <time>2017-03-26T09:27:01Z</time>
      </trkpt>
      <trkpt lat="47.59376" lon="-0.43115">
        <ele>38.59</ele>
        <time>2017-03-26T09:27:04Z</time>
      </trkpt>
      <trkpt lat="47.59378" lon="-0.43112">
        <ele>39.07</ele>
        <time>2017-03-26T09:27:06Z</time>
      </trkpt>
      <trkpt lat="47.59381" lon="-0.43118">
        <ele>38.59</ele>
        <time>2017-03-26T09:27:09Z</time>
      </trkpt>
      <trkpt lat="47.59387" lon="-0.4312">
        <ele>37.63</ele>
        <time>2017-03-26T09:27:12Z</time>
      </trkpt>
      <trkpt lat="47.59391" lon="-0.43124">
        <ele>38.11</ele>
        <time>2017-03-26T09:27:14Z</time>
      </trkpt>
      <trkpt lat="47.59393" lon="-0.43127">
        <ele>38.11</ele>
        <time>2017-03-26T09:27:15Z</time>
      </trkpt>
      <trkpt lat="47.59394" lon="-0.43141">
        <ele>38.11</ele>
        <time>2017-03-26T09:27:18Z</time>
      </trkpt>
      <trkpt lat="47.59392" lon="-0.43145">
        <ele>37.15</ele>
        <time>2017-03-26T09:27:19Z</time>
      </trkpt>
      <trkpt lat="47.59364" lon="-0.43193">
        <ele>35.71</ele>
        <time>2017-03-26T09:27:30Z</time>
      </trkpt>
      <trkpt lat="47.59364" lon="-0.43196">
        <ele>35.71</ele>
        <time>2017-03-26T09:27:31Z</time>
      </trkpt>
      <trkpt lat="47.59366" lon="-0.432">
        <ele>36.19</ele>
        <time>2017-03-26T09:27:32Z</time>
      </trkpt>
      <trkpt lat="47.59368" lon="-0.43203">
        <ele>35.71</ele>
        <time>2017-03-26T09:27:33Z</time>
      </trkpt>
      <trkpt lat="47.59372" lon="-0.43204">
        <ele>35.71</ele>
        <time>2017-03-26T09:27:34Z</time>
      </trkpt>
      <trkpt lat="47.59376" lon="-0.43203">
        <ele>35.71</ele>
        <time>2017-03-26T09:27:35Z</time>
      </trkpt>
      <trkpt lat="47.59379" lon="-0.43203">
        <ele>35.71</ele>
        <time>2017-03-26T09:27:36Z</time>
      </trkpt>
      <trkpt lat="47.59417" lon="-0.43191">
        <ele>36.67</ele>
        <time>2017-03-26T09:27:46Z</time>
      </trkpt>
      <trkpt lat="47.59421" lon="-0.43189">
        <ele>36.67</ele>
        <time>2017-03-26T09:27:47Z</time>
      </trkpt>
      <trkpt lat="47.59425" lon="-0.43187">
        <ele>37.15</ele>
        <time>2017-03-26T09:27:48Z</time>
      </trkpt>
      <trkpt lat="47.59446" lon="-0.43188">
        <ele>37.15</ele>
        <time>2017-03-26T09:27:54Z</time>
      </trkpt>
      <trkpt lat="47.59461" lon="-0.43202">
        <ele>32.34</ele>
        <time>2017-03-26T09:27:58Z</time>
      </trkpt>
      <trkpt lat="47.59465" lon="-0.43206">
        <ele>32.34</ele>
        <time>2017-03-26T09:27:59Z</time>
      </trkpt>
      <trkpt lat="47.59469" lon="-0.4321">
        <ele>40.51</ele>
        <time>2017-03-26T09:28:00Z</time>
      </trkpt>
      <trkpt lat="47.59472" lon="-0.43213">
        <ele>37.63</ele>
        <time>2017-03-26T09:28:01Z</time>
      </trkpt>
      <trkpt lat="47.59512" lon="-0.43255">
        <ele>38.11</ele>
        <time>2017-03-26T09:28:13Z</time>
      </trkpt>
      <trkpt lat="47.59545" lon="-0.43278">
        <ele>39.07</ele>
        <time>2017-03-26T09:28:23Z</time>
      </trkpt>
      <trkpt lat="47.59567" lon="-0.43298">
        <ele>39.55</ele>
        <time>2017-03-26T09:28:31Z</time>
      </trkpt>
      <trkpt lat="47.5957" lon="-0.43296">
        <ele>40.51</ele>
        <time>2017-03-26T09:28:32Z</time>
      </trkpt>
      <trkpt lat="47.59573" lon="-0.43293">
        <ele>40.03</ele>
        <time>2017-03-26T09:28:33Z</time>
      </trkpt>
      <trkpt lat="47.59576" lon="-0.43289">
        <ele>40.99</ele>
        <time>2017-03-26T09:28:34Z</time>
      </trkpt>
      <trkpt lat="47.59577" lon="-0.43285">
        <ele>40.99</ele>
        <time>2017-03-26T09:28:35Z</time>
      </trkpt>
      <trkpt lat="47.59579" lon="-0.43282">
        <ele>41.47</ele>
        <time>2017-03-26T09:28:36Z</time>
      </trkpt>
      <trkpt lat="47.59581" lon="-0.43278">
        <ele>41.47</ele>
        <time>2017-03-26T09:28:37Z</time>
      </trkpt>
      <trkpt lat="47.59582" lon="-0.43274">
        <ele>41.95</ele>
        <time>2017-03-26T09:28:38Z</time>
      </trkpt>
      <trkpt lat="47.59584" lon="-0.43269">
        <ele>41.95</ele>
        <time>2017-03-26T09:28:39Z</time>
      </trkpt>
      <trkpt lat="47.59606" lon="-0.43204">
        <ele>42.92</ele>
        <time>2017-03-26T09:28:51Z</time>
      </trkpt>
      <trkpt lat="47.5963" lon="-0.43132">
        <ele>44.36</ele>
        <time>2017-03-26T09:29:05Z</time>
      </trkpt>
      <trkpt lat="47.59654" lon="-0.43062">
        <ele>45.32</ele>
        <time>2017-03-26T09:29:20Z</time>
      </trkpt>
      <trkpt lat="47.59672" lon="-0.42997">
        <ele>46.28</ele>
        <time>2017-03-26T09:29:33Z</time>
      </trkpt>
      <trkpt lat="47.59691" lon="-0.42941">
        <ele>46.28</ele>
        <time>2017-03-26T09:29:44Z</time>
      </trkpt>
      <trkpt lat="47.59689" lon="-0.42938">
        <ele>46.76</ele>
        <time>2017-03-26T09:29:45Z</time>
      </trkpt>
      <trkpt lat="47.59686" lon="-0.42936">
        <ele>46.76</ele>
        <time>2017-03-26T09:29:46Z</time>
      </trkpt>
      <trkpt lat="47.59633" lon="-0.42915">
        <ele>46.76</ele>
        <time>2017-03-26T09:29:59Z</time>
      </trkpt>
      <trkpt lat="47.59615" lon="-0.42907">
        <ele>46.76</ele>
        <time>2017-03-26T09:30:03Z</time>
      </trkpt>
      <trkpt lat="47.5961" lon="-0.42905">
        <ele>46.76</ele>
        <time>2017-03-26T09:30:04Z</time>
      </trkpt>
      <trkpt lat="47.59606" lon="-0.42902">
        <ele>46.76</ele>
        <time>2017-03-26T09:30:05Z</time>
      </trkpt>
      <trkpt lat="47.59601" lon="-0.429">
        <ele>46.28</ele>
        <time>2017-03-26T09:30:06Z</time>
      </trkpt>
      <trkpt lat="47.59597" lon="-0.42898">
        <ele>46.28</ele>
        <time>2017-03-26T09:30:07Z</time>
      </trkpt>
      <trkpt lat="47.59588" lon="-0.42894">
        <ele>46.76</ele>
        <time>2017-03-26T09:30:09Z</time>
      </trkpt>
      <trkpt lat="47.59584" lon="-0.42893">
        <ele>46.28</ele>
        <time>2017-03-26T09:30:10Z</time>
      </trkpt>
      <trkpt lat="47.59579" lon="-0.4289">
        <ele>46.76</ele>
        <time>2017-03-26T09:30:11Z</time>
      </trkpt>
      <trkpt lat="47.59566" lon="-0.42882">
        <ele>46.28</ele>
        <time>2017-03-26T09:30:14Z</time>
      </trkpt>
      <trkpt lat="47.59523" lon="-0.42855">
        <ele>47.72</ele>
        <time>2017-03-26T09:30:27Z</time>
      </trkpt>
      <trkpt lat="47.59524" lon="-0.42852">
        <ele>47.72</ele>
        <time>2017-03-26T09:30:28Z</time>
      </trkpt>
      <trkpt lat="47.59525" lon="-0.42849">
        <ele>47.72</ele>
        <time>2017-03-26T09:30:29Z</time>
      </trkpt>
      <trkpt lat="47.59529" lon="-0.42847">
        <ele>47.24</ele>
        <time>2017-03-26T09:30:38Z</time>
      </trkpt>
      <trkpt lat="47.5953" lon="-0.42848">
        <ele>47.24</ele>
        <time>2017-03-26T09:30:39Z</time>
      </trkpt>
      <trkpt lat="47.59533" lon="-0.42851">
        <ele>47.72</ele>
        <time>2017-03-26T09:30:40Z</time>
      </trkpt>
      <trkpt lat="47.59536" lon="-0.42854">
        <ele>47.72</ele>
        <time>2017-03-26T09:30:41Z</time>
      </trkpt>
      <trkpt lat="47.59539" lon="-0.42856">
        <ele>47.24</ele>
        <time>2017-03-26T09:30:42Z</time>
      </trkpt>
      <trkpt lat="47.59543" lon="-0.42858">
        <ele>47.24</ele>
        <time>2017-03-26T09:30:43Z</time>
      </trkpt>
      <trkpt lat="47.59548" lon="-0.42861">
        <ele>46.76</ele>
        <time>2017-03-26T09:30:44Z</time>
      </trkpt>
      <trkpt lat="47.59553" lon="-0.42862">
        <ele>46.76</ele>
        <time>2017-03-26T09:30:45Z</time>
      </trkpt>
      <trkpt lat="47.59557" lon="-0.42864">
        <ele>46.76</ele>
        <time>2017-03-26T09:30:46Z</time>
      </trkpt>
      <trkpt lat="47.59576" lon="-0.42874">
        <ele>46.28</ele>
        <time>2017-03-26T09:30:50Z</time>
      </trkpt>
      <trkpt lat="47.59581" lon="-0.42874">
        <ele>45.8</ele>
        <time>2017-03-26T09:30:51Z</time>
      </trkpt>
      <trkpt lat="47.59586" lon="-0.42874">
        <ele>45.8</ele>
        <time>2017-03-26T09:30:52Z</time>
      </trkpt>
      <trkpt lat="47.59591" lon="-0.42876">
        <ele>46.28</ele>
        <time>2017-03-26T09:30:53Z</time>
      </trkpt>
      <trkpt lat="47.59596" lon="-0.42879">
        <ele>46.28</ele>
        <time>2017-03-26T09:30:54Z</time>
      </trkpt>
      <trkpt lat="47.596" lon="-0.42884">
        <ele>46.28</ele>
        <time>2017-03-26T09:30:55Z</time>
      </trkpt>
      <trkpt lat="47.59604" lon="-0.42889">
        <ele>45.8</ele>
        <time>2017-03-26T09:30:56Z</time>
      </trkpt>
      <trkpt lat="47.59608" lon="-0.42893">
        <ele>46.28</ele>
        <time>2017-03-26T09:30:57Z</time>
      </trkpt>
      <trkpt lat="47.59612" lon="-0.42896">
        <ele>45.8</ele>
        <time>2017-03-26T09:30:58Z</time>
      </trkpt>
      <trkpt lat="47.59616" lon="-0.42898">
        <ele>46.28</ele>
        <time>2017-03-26T09:30:59Z</time>
      </trkpt>
      <trkpt lat="47.59666" lon="-0.4292">
        <ele>46.76</ele>
        <time>2017-03-26T09:31:11Z</time>
      </trkpt>
      <trkpt lat="47.59689" lon="-0.42929">
        <ele>46.76</ele>
        <time>2017-03-26T09:31:18Z</time>
      </trkpt>
      <trkpt lat="47.59692" lon="-0.42928">
        <ele>46.76</ele>
        <time>2017-03-26T09:31:19Z</time>
      </trkpt>
      <trkpt lat="47.59695" lon="-0.42924">
        <ele>46.76</ele>
        <time>2017-03-26T09:31:20Z</time>
      </trkpt>
      <trkpt lat="47.59698" lon="-0.4292">
        <ele>46.76</ele>
        <time>2017-03-26T09:31:21Z</time>
      </trkpt>
      <trkpt lat="47.59699" lon="-0.42914">
        <ele>46.76</ele>
        <time>2017-03-26T09:31:22Z</time>
      </trkpt>
      <trkpt lat="47.59701" lon="-0.42908">
        <ele>46.76</ele>
        <time>2017-03-26T09:31:23Z</time>
      </trkpt>
      <trkpt lat="47.59703" lon="-0.42902">
        <ele>47.24</ele>
        <time>2017-03-26T09:31:24Z</time>
      </trkpt>
      <trkpt lat="47.59705" lon="-0.42896">
        <ele>46.76</ele>
        <time>2017-03-26T09:31:25Z</time>
      </trkpt>
      <trkpt lat="47.59717" lon="-0.42852">
        <ele>46.76</ele>
        <time>2017-03-26T09:31:32Z</time>
      </trkpt>
      <trkpt lat="47.59743" lon="-0.4277">
        <ele>47.24</ele>
        <time>2017-03-26T09:31:45Z</time>
      </trkpt>
      <trkpt lat="47.59745" lon="-0.42764">
        <ele>47.24</ele>
        <time>2017-03-26T09:31:46Z</time>
      </trkpt>
      <trkpt lat="47.59772" lon="-0.42674">
        <ele>46.76</ele>
        <time>2017-03-26T09:32:00Z</time>
      </trkpt>
      <trkpt lat="47.59788" lon="-0.42619">
        <ele>46.76</ele>
        <time>2017-03-26T09:32:08Z</time>
      </trkpt>
      <trkpt lat="47.5979" lon="-0.42612">
        <ele>46.76</ele>
        <time>2017-03-26T09:32:09Z</time>
      </trkpt>
      <trkpt lat="47.59825" lon="-0.42502">
        <ele>46.28</ele>
        <time>2017-03-26T09:32:26Z</time>
      </trkpt>
      <trkpt lat="47.59847" lon="-0.42432">
        <ele>45.8</ele>
        <time>2017-03-26T09:32:37Z</time>
      </trkpt>
      <trkpt lat="47.59849" lon="-0.42426">
        <ele>45.8</ele>
        <time>2017-03-26T09:32:38Z</time>
      </trkpt>
      <trkpt lat="47.59851" lon="-0.42419">
        <ele>45.32</ele>
        <time>2017-03-26T09:32:39Z</time>
      </trkpt>
      <trkpt lat="47.59853" lon="-0.42412">
        <ele>45.8</ele>
        <time>2017-03-26T09:32:40Z</time>
      </trkpt>
      <trkpt lat="47.59855" lon="-0.42405">
        <ele>45.8</ele>
        <time>2017-03-26T09:32:41Z</time>
      </trkpt>
      <trkpt lat="47.59858" lon="-0.42398">
        <ele>45.8</ele>
        <time>2017-03-26T09:32:42Z</time>
      </trkpt>
      <trkpt lat="47.59864" lon="-0.42376">
        <ele>45.8</ele>
        <time>2017-03-26T09:32:45Z</time>
      </trkpt>
      <trkpt lat="47.59866" lon="-0.42369">
        <ele>45.8</ele>
        <time>2017-03-26T09:32:46Z</time>
      </trkpt>
      <trkpt lat="47.5987" lon="-0.42355">
        <ele>45.32</ele>
        <time>2017-03-26T09:32:48Z</time>
      </trkpt>
      <trkpt lat="47.59884" lon="-0.42312">
        <ele>44.84</ele>
        <time>2017-03-26T09:32:55Z</time>
      </trkpt>
      <trkpt lat="47.59886" lon="-0.42306">
        <ele>44.84</ele>
        <time>2017-03-26T09:32:56Z</time>
      </trkpt>
      <trkpt lat="47.59903" lon="-0.42243">
        <ele>44.84</ele>
        <time>2017-03-26T09:33:08Z</time>
      </trkpt>
      <trkpt lat="47.59923" lon="-0.4218">
        <ele>45.8</ele>
        <time>2017-03-26T09:33:20Z</time>
      </trkpt>
      <trkpt lat="47.59931" lon="-0.42157">
        <ele>45.8</ele>
        <time>2017-03-26T09:33:24Z</time>
      </trkpt>
      <trkpt lat="47.59932" lon="-0.42151">
        <ele>45.8</ele>
        <time>2017-03-26T09:33:25Z</time>
      </trkpt>
      <trkpt lat="47.59947" lon="-0.42128">
        <ele>45.32</ele>
        <time>2017-03-26T09:33:31Z</time>
      </trkpt>
      <trkpt lat="47.59948" lon="-0.42124">
        <ele>44.84</ele>
        <time>2017-03-26T09:33:32Z</time>
      </trkpt>
      <trkpt lat="47.59947" lon="-0.42119">
        <ele>45.8</ele>
        <time>2017-03-26T09:33:33Z</time>
      </trkpt>
      <trkpt lat="47.59946" lon="-0.42115">
        <ele>45.32</ele>
        <time>2017-03-26T09:33:34Z</time>
      </trkpt>
      <trkpt lat="47.59944" lon="-0.4211">
        <ele>45.8</ele>
        <time>2017-03-26T09:33:35Z</time>
      </trkpt>
      <trkpt lat="47.59958" lon="-0.42059">
        <ele>45.8</ele>
        <time>2017-03-26T09:33:45Z</time>
      </trkpt>
      <trkpt lat="47.5999" lon="-0.4196">
        <ele>44.84</ele>
        <time>2017-03-26T09:34:01Z</time>
      </trkpt>
      <trkpt lat="47.60019" lon="-0.41859">
        <ele>41.95</ele>
        <time>2017-03-26T09:34:16Z</time>
      </trkpt>
      <trkpt lat="47.60025" lon="-0.41831">
        <ele>40.99</ele>
        <time>2017-03-26T09:34:20Z</time>
      </trkpt>
      <trkpt lat="47.60026" lon="-0.41823">
        <ele>40.03</ele>
        <time>2017-03-26T09:34:21Z</time>
      </trkpt>
      <trkpt lat="47.60027" lon="-0.41808">
        <ele>40.03</ele>
        <time>2017-03-26T09:34:23Z</time>
      </trkpt>
      <trkpt lat="47.60028" lon="-0.41801">
        <ele>39.55</ele>
        <time>2017-03-26T09:34:24Z</time>
      </trkpt>
      <trkpt lat="47.6003" lon="-0.41793">
        <ele>38.59</ele>
        <time>2017-03-26T09:34:25Z</time>
      </trkpt>
      <trkpt lat="47.60029" lon="-0.41786">
        <ele>38.59</ele>
        <time>2017-03-26T09:34:26Z</time>
      </trkpt>
      <trkpt lat="47.60026" lon="-0.41779">
        <ele>38.59</ele>
        <time>2017-03-26T09:34:27Z</time>
      </trkpt>
      <trkpt lat="47.60023" lon="-0.41772">
        <ele>38.11</ele>
        <time>2017-03-26T09:34:28Z</time>
      </trkpt>
      <trkpt lat="47.60019" lon="-0.41767">
        <ele>38.11</ele>
        <time>2017-03-26T09:34:29Z</time>
      </trkpt>
      <trkpt lat="47.60014" lon="-0.41762">
        <ele>38.11</ele>
        <time>2017-03-26T09:34:30Z</time>
      </trkpt>
      <trkpt lat="47.6001" lon="-0.41756">
        <ele>38.11</ele>
        <time>2017-03-26T09:34:31Z</time>
      </trkpt>
      <trkpt lat="47.60007" lon="-0.4175">
        <ele>38.11</ele>
        <time>2017-03-26T09:34:32Z</time>
      </trkpt>
      <trkpt lat="47.5996" lon="-0.41669">
        <ele>37.15</ele>
        <time>2017-03-26T09:34:46Z</time>
      </trkpt>
      <trkpt lat="47.59925" lon="-0.41612">
        <ele>37.63</ele>
        <time>2017-03-26T09:34:59Z</time>
      </trkpt>
      <trkpt lat="47.59922" lon="-0.4161">
        <ele>38.11</ele>
        <time>2017-03-26T09:35:00Z</time>
      </trkpt>
      <trkpt lat="47.5992" lon="-0.4161">
        <ele>38.11</ele>
        <time>2017-03-26T09:35:01Z</time>
      </trkpt>
      <trkpt lat="47.5991" lon="-0.41616">
        <ele>38.11</ele>
        <time>2017-03-26T09:35:04Z</time>
      </trkpt>
      <trkpt lat="47.59906" lon="-0.41619">
        <ele>39.07</ele>
        <time>2017-03-26T09:35:05Z</time>
      </trkpt>
      <trkpt lat="47.59903" lon="-0.41623">
        <ele>39.07</ele>
        <time>2017-03-26T09:35:06Z</time>
      </trkpt>
      <trkpt lat="47.59879" lon="-0.41659">
        <ele>41.47</ele>
        <time>2017-03-26T09:35:14Z</time>
      </trkpt>
      <trkpt lat="47.59844" lon="-0.41721">
        <ele>43.4</ele>
        <time>2017-03-26T09:35:28Z</time>
      </trkpt>
      <trkpt lat="47.59812" lon="-0.41777">
        <ele>45.32</ele>
        <time>2017-03-26T09:35:43Z</time>
      </trkpt>
      <trkpt lat="47.59776" lon="-0.41841">
        <ele>47.24</ele>
        <time>2017-03-26T09:36:01Z</time>
      </trkpt>
      <trkpt lat="47.59743" lon="-0.41889">
        <ele>49.16</ele>
        <time>2017-03-26T09:36:16Z</time>
      </trkpt>
      <trkpt lat="47.59741" lon="-0.41889">
        <ele>48.68</ele>
        <time>2017-03-26T09:36:17Z</time>
      </trkpt>
      <trkpt lat="47.59739" lon="-0.41889">
        <ele>48.68</ele>
        <time>2017-03-26T09:36:18Z</time>
      </trkpt>
      <trkpt lat="47.59734" lon="-0.41884">
        <ele>49.65</ele>
        <time>2017-03-26T09:36:20Z</time>
      </trkpt>
      <trkpt lat="47.59728" lon="-0.41859">
        <ele>50.13</ele>
        <time>2017-03-26T09:36:25Z</time>
      </trkpt>
      <trkpt lat="47.59703" lon="-0.41778">
        <ele>52.53</ele>
        <time>2017-03-26T09:36:39Z</time>
      </trkpt>
      <trkpt lat="47.59681" lon="-0.41711">
        <ele>53.49</ele>
        <time>2017-03-26T09:36:51Z</time>
      </trkpt>
      <trkpt lat="47.59677" lon="-0.41695">
        <ele>53.49</ele>
        <time>2017-03-26T09:36:54Z</time>
      </trkpt>
      <trkpt lat="47.5967" lon="-0.41674">
        <ele>53.49</ele>
        <time>2017-03-26T09:36:58Z</time>
      </trkpt>
      <trkpt lat="47.59663" lon="-0.41658">
        <ele>53.97</ele>
        <time>2017-03-26T09:37:01Z</time>
      </trkpt>
      <trkpt lat="47.5966" lon="-0.41653">
        <ele>53.97</ele>
        <time>2017-03-26T09:37:02Z</time>
      </trkpt>
      <trkpt lat="47.59629" lon="-0.41596">
        <ele>54.93</ele>
        <time>2017-03-26T09:37:15Z</time>
      </trkpt>
      <trkpt lat="47.59596" lon="-0.41557">
        <ele>55.41</ele>
        <time>2017-03-26T09:37:27Z</time>
      </trkpt>
      <trkpt lat="47.59572" lon="-0.41553">
        <ele>55.89</ele>
        <time>2017-03-26T09:37:35Z</time>
      </trkpt>
      <trkpt lat="47.59571" lon="-0.41551">
        <ele>55.89</ele>
        <time>2017-03-26T09:37:36Z</time>
      </trkpt>
      <trkpt lat="47.59563" lon="-0.41542">
        <ele>55.89</ele>
        <time>2017-03-26T09:37:39Z</time>
      </trkpt>
      <trkpt lat="47.5956" lon="-0.41541">
        <ele>56.37</ele>
        <time>2017-03-26T09:37:40Z</time>
      </trkpt>
      <trkpt lat="47.59557" lon="-0.4154">
        <ele>55.89</ele>
        <time>2017-03-26T09:37:41Z</time>
      </trkpt>
      <trkpt lat="47.59554" lon="-0.41539">
        <ele>55.89</ele>
        <time>2017-03-26T09:37:42Z</time>
      </trkpt>
      <trkpt lat="47.59548" lon="-0.41534">
        <ele>55.89</ele>
        <time>2017-03-26T09:37:44Z</time>
      </trkpt>
      <trkpt lat="47.59522" lon="-0.41503">
        <ele>54.93</ele>
        <time>2017-03-26T09:37:52Z</time>
      </trkpt>
      <trkpt lat="47.59511" lon="-0.41487">
        <ele>53.49</ele>
        <time>2017-03-26T09:37:57Z</time>
      </trkpt>
      <trkpt lat="47.5951" lon="-0.41467">
        <ele>52.53</ele>
        <time>2017-03-26T09:38:01Z</time>
      </trkpt>
      <trkpt lat="47.59494" lon="-0.41451">
        <ele>52.05</ele>
        <time>2017-03-26T09:38:06Z</time>
      </trkpt>
      <trkpt lat="47.59465" lon="-0.4143">
        <ele>51.57</ele>
        <time>2017-03-26T09:38:14Z</time>
      </trkpt>
      <trkpt lat="47.5944" lon="-0.41405">
        <ele>50.13</ele>
        <time>2017-03-26T09:38:21Z</time>
      </trkpt>
      <trkpt lat="47.59419" lon="-0.41395">
        <ele>48.68</ele>
        <time>2017-03-26T09:38:25Z</time>
      </trkpt>
      <trkpt lat="47.59391" lon="-0.41377">
        <ele>46.76</ele>
        <time>2017-03-26T09:38:31Z</time>
      </trkpt>
      <trkpt lat="47.59352" lon="-0.41331">
        <ele>48.2</ele>
        <time>2017-03-26T09:38:42Z</time>
      </trkpt>
      <trkpt lat="47.59329" lon="-0.41322">
        <ele>51.09</ele>
        <time>2017-03-26T09:38:52Z</time>
      </trkpt>
      <trkpt lat="47.59326" lon="-0.41326">
        <ele>50.61</ele>
        <time>2017-03-26T09:38:54Z</time>
      </trkpt>
      <trkpt lat="47.59324" lon="-0.4133">
        <ele>52.05</ele>
        <time>2017-03-26T09:38:56Z</time>
      </trkpt>
      <trkpt lat="47.59322" lon="-0.41331">
        <ele>52.05</ele>
        <time>2017-03-26T09:38:57Z</time>
      </trkpt>
      <trkpt lat="47.59321" lon="-0.41333">
        <ele>52.53</ele>
        <time>2017-03-26T09:38:58Z</time>
      </trkpt>
      <trkpt lat="47.5932" lon="-0.41334">
        <ele>52.53</ele>
        <time>2017-03-26T09:38:59Z</time>
      </trkpt>
      <trkpt lat="47.59319" lon="-0.41336">
        <ele>52.53</ele>
        <time>2017-03-26T09:39:00Z</time>
      </trkpt>
      <trkpt lat="47.59318" lon="-0.41338">
        <ele>53.01</ele>
        <time>2017-03-26T09:39:01Z</time>
      </trkpt>
      <trkpt lat="47.59316" lon="-0.41341">
        <ele>53.49</ele>
        <time>2017-03-26T09:39:02Z</time>
      </trkpt>
      <trkpt lat="47.59315" lon="-0.41343">
        <ele>53.01</ele>
        <time>2017-03-26T09:39:03Z</time>
      </trkpt>
      <trkpt lat="47.59314" lon="-0.41346">
        <ele>53.97</ele>
        <time>2017-03-26T09:39:04Z</time>
      </trkpt>
      <trkpt lat="47.59313" lon="-0.41348">
        <ele>53.97</ele>
        <time>2017-03-26T09:39:05Z</time>
      </trkpt>
      <trkpt lat="47.59312" lon="-0.4135">
        <ele>53.97</ele>
        <time>2017-03-26T09:39:06Z</time>
      </trkpt>
      <trkpt lat="47.59312" lon="-0.41352">
        <ele>54.45</ele>
        <time>2017-03-26T09:39:07Z</time>
      </trkpt>
      <trkpt lat="47.59311" lon="-0.41354">
        <ele>54.93</ele>
        <time>2017-03-26T09:39:08Z</time>
      </trkpt>
      <trkpt lat="47.59311" lon="-0.41356">
        <ele>55.41</ele>
        <time>2017-03-26T09:39:09Z</time>
      </trkpt>
      <trkpt lat="47.5931" lon="-0.41358">
        <ele>55.41</ele>
        <time>2017-03-26T09:39:10Z</time>
      </trkpt>
      <trkpt lat="47.59309" lon="-0.4136">
        <ele>55.41</ele>
        <time>2017-03-26T09:39:11Z</time>
      </trkpt>
      <trkpt lat="47.59308" lon="-0.41361">
        <ele>55.41</ele>
        <time>2017-03-26T09:39:12Z</time>
      </trkpt>
      <trkpt lat="47.59308" lon="-0.41369">
        <ele>56.37</ele>
        <time>2017-03-26T09:39:17Z</time>
      </trkpt>
      <trkpt lat="47.59308" lon="-0.41372">
        <ele>55.89</ele>
        <time>2017-03-26T09:39:18Z</time>
      </trkpt>
      <trkpt lat="47.59308" lon="-0.41374">
        <ele>55.41</ele>
        <time>2017-03-26T09:39:19Z</time>
      </trkpt>
      <trkpt lat="47.59308" lon="-0.41376">
        <ele>55.89</ele>
        <time>2017-03-26T09:39:20Z</time>
      </trkpt>
      <trkpt lat="47.59308" lon="-0.41378">
        <ele>56.37</ele>
        <time>2017-03-26T09:39:21Z</time>
      </trkpt>
      <trkpt lat="47.59303" lon="-0.41394">
        <ele>56.37</ele>
        <time>2017-03-26T09:39:31Z</time>
      </trkpt>
      <trkpt lat="47.59302" lon="-0.41394">
        <ele>56.37</ele>
        <time>2017-03-26T09:39:32Z</time>
      </trkpt>
      <trkpt lat="47.59301" lon="-0.41394">
        <ele>56.86</ele>
        <time>2017-03-26T09:39:33Z</time>
      </trkpt>
      <trkpt lat="47.59295" lon="-0.41396">
        <ele>56.86</ele>
        <time>2017-03-26T09:39:45Z</time>
      </trkpt>
      <trkpt lat="47.59292" lon="-0.41401">
        <ele>56.86</ele>
        <time>2017-03-26T09:40:02Z</time>
      </trkpt>
      <trkpt lat="47.59283" lon="-0.41405">
        <ele>57.34</ele>
        <time>2017-03-26T09:40:24Z</time>
      </trkpt>
      <trkpt lat="47.59253" lon="-0.41431">
        <ele>57.82</ele>
        <time>2017-03-26T09:40:36Z</time>
      </trkpt>
      <trkpt lat="47.59197" lon="-0.4148">
        <ele>58.78</ele>
        <time>2017-03-26T09:40:52Z</time>
      </trkpt>
      <trkpt lat="47.59145" lon="-0.41524">
        <ele>59.26</ele>
        <time>2017-03-26T09:41:06Z</time>
      </trkpt>
      <trkpt lat="47.591" lon="-0.41564">
        <ele>58.3</ele>
        <time>2017-03-26T09:41:17Z</time>
      </trkpt>
      <trkpt lat="47.59096" lon="-0.41567">
        <ele>58.3</ele>
        <time>2017-03-26T09:41:18Z</time>
      </trkpt>
      <trkpt lat="47.59093" lon="-0.41572">
        <ele>57.82</ele>
        <time>2017-03-26T09:41:19Z</time>
      </trkpt>
      <trkpt lat="47.59091" lon="-0.41577">
        <ele>57.82</ele>
        <time>2017-03-26T09:41:20Z</time>
      </trkpt>
      <trkpt lat="47.59089" lon="-0.41582">
        <ele>57.82</ele>
        <time>2017-03-26T09:41:21Z</time>
      </trkpt>
      <trkpt lat="47.59087" lon="-0.41588">
        <ele>57.34</ele>
        <time>2017-03-26T09:41:22Z</time>
      </trkpt>
      <trkpt lat="47.59086" lon="-0.41595">
        <ele>57.34</ele>
        <time>2017-03-26T09:41:23Z</time>
      </trkpt>
      <trkpt lat="47.59087" lon="-0.41603">
        <ele>56.86</ele>
        <time>2017-03-26T09:41:24Z</time>
      </trkpt>
      <trkpt lat="47.59089" lon="-0.4161">
        <ele>56.86</ele>
        <time>2017-03-26T09:41:25Z</time>
      </trkpt>
      <trkpt lat="47.59091" lon="-0.41616">
        <ele>56.86</ele>
        <time>2017-03-26T09:41:26Z</time>
      </trkpt>
      <trkpt lat="47.59094" lon="-0.41623">
        <ele>56.86</ele>
        <time>2017-03-26T09:41:27Z</time>
      </trkpt>
      <trkpt lat="47.59097" lon="-0.4163">
        <ele>56.37</ele>
        <time>2017-03-26T09:41:28Z</time>
      </trkpt>
      <trkpt lat="47.59099" lon="-0.41637">
        <ele>56.37</ele>
        <time>2017-03-26T09:41:29Z</time>
      </trkpt>
      <trkpt lat="47.59105" lon="-0.41657">
        <ele>55.41</ele>
        <time>2017-03-26T09:41:32Z</time>
      </trkpt>
      <trkpt lat="47.59105" lon="-0.41662">
        <ele>55.41</ele>
        <time>2017-03-26T09:41:33Z</time>
      </trkpt>
      <trkpt lat="47.59102" lon="-0.41666">
        <ele>55.41</ele>
        <time>2017-03-26T09:41:34Z</time>
      </trkpt>
      <trkpt lat="47.59099" lon="-0.41668">
        <ele>54.93</ele>
        <time>2017-03-26T09:41:35Z</time>
      </trkpt>
      <trkpt lat="47.59094" lon="-0.41669">
        <ele>54.45</ele>
        <time>2017-03-26T09:41:36Z</time>
      </trkpt>
      <trkpt lat="47.59089" lon="-0.41669">
        <ele>54.45</ele>
        <time>2017-03-26T09:41:37Z</time>
      </trkpt>
      <trkpt lat="47.59058" lon="-0.41667">
        <ele>53.49</ele>
        <time>2017-03-26T09:41:42Z</time>
      </trkpt>
      <trkpt lat="47.58993" lon="-0.41664">
        <ele>54.45</ele>
        <time>2017-03-26T09:41:54Z</time>
      </trkpt>
      <trkpt lat="47.58976" lon="-0.41665">
        <ele>53.49</ele>
        <time>2017-03-26T09:41:57Z</time>
      </trkpt>
      <trkpt lat="47.58924" lon="-0.41662">
        <ele>55.41</ele>
        <time>2017-03-26T09:42:08Z</time>
      </trkpt>
      <trkpt lat="47.58872" lon="-0.41652">
        <ele>56.86</ele>
        <time>2017-03-26T09:42:20Z</time>
      </trkpt>
      <trkpt lat="47.58829" lon="-0.41647">
        <ele>58.3</ele>
        <time>2017-03-26T09:42:31Z</time>
      </trkpt>
      <trkpt lat="47.5878" lon="-0.41644">
        <ele>58.78</ele>
        <time>2017-03-26T09:42:43Z</time>
      </trkpt>
      <trkpt lat="47.58768" lon="-0.41643">
        <ele>59.26</ele>
        <time>2017-03-26T09:42:46Z</time>
      </trkpt>
      <trkpt lat="47.5874" lon="-0.4164">
        <ele>58.78</ele>
        <time>2017-03-26T09:42:53Z</time>
      </trkpt>
      <trkpt lat="47.58736" lon="-0.41636">
        <ele>58.78</ele>
        <time>2017-03-26T09:42:54Z</time>
      </trkpt>
      <trkpt lat="47.58734" lon="-0.41631">
        <ele>58.78</ele>
        <time>2017-03-26T09:42:55Z</time>
      </trkpt>
      <trkpt lat="47.58734" lon="-0.4162">
        <ele>58.78</ele>
        <time>2017-03-26T09:42:57Z</time>
      </trkpt>
      <trkpt lat="47.58731" lon="-0.4154">
        <ele>59.74</ele>
        <time>2017-03-26T09:43:10Z</time>
      </trkpt>
      <trkpt lat="47.58731" lon="-0.41535">
        <ele>59.74</ele>
        <time>2017-03-26T09:43:11Z</time>
      </trkpt>
      <trkpt lat="47.58728" lon="-0.41503">
        <ele>59.74</ele>
        <time>2017-03-26T09:43:16Z</time>
      </trkpt>
      <trkpt lat="47.58716" lon="-0.41403">
        <ele>60.22</ele>
        <time>2017-03-26T09:43:31Z</time>
      </trkpt>
      <trkpt lat="47.58707" lon="-0.41321">
        <ele>59.26</ele>
        <time>2017-03-26T09:43:43Z</time>
      </trkpt>
      <trkpt lat="47.58707" lon="-0.41314">
        <ele>59.74</ele>
        <time>2017-03-26T09:43:44Z</time>
      </trkpt>
      <trkpt lat="47.58707" lon="-0.41299">
        <ele>59.74</ele>
        <time>2017-03-26T09:43:46Z</time>
      </trkpt>
      <trkpt lat="47.58706" lon="-0.41272">
        <ele>59.26</ele>
        <time>2017-03-26T09:43:50Z</time>
      </trkpt>
      <trkpt lat="47.58708" lon="-0.41268">
        <ele>59.26</ele>
        <time>2017-03-26T09:43:51Z</time>
      </trkpt>
      <trkpt lat="47.58711" lon="-0.41268">
        <ele>59.26</ele>
        <time>2017-03-26T09:43:52Z</time>
      </trkpt>
      <trkpt lat="47.58729" lon="-0.41273">
        <ele>58.78</ele>
        <time>2017-03-26T09:43:57Z</time>
      </trkpt>
      <trkpt lat="47.5877" lon="-0.41267">
        <ele>59.26</ele>
        <time>2017-03-26T09:44:06Z</time>
      </trkpt>
      <trkpt lat="47.58788" lon="-0.41267">
        <ele>59.26</ele>
        <time>2017-03-26T09:44:10Z</time>
      </trkpt>
      <trkpt lat="47.58828" lon="-0.41269">
        <ele>59.26</ele>
        <time>2017-03-26T09:44:18Z</time>
      </trkpt>
      <trkpt lat="47.58842" lon="-0.41272">
        <ele>58.78</ele>
        <time>2017-03-26T09:44:21Z</time>
      </trkpt>
      <trkpt lat="47.5886" lon="-0.41282">
        <ele>59.26</ele>
        <time>2017-03-26T09:44:25Z</time>
      </trkpt>
      <trkpt lat="47.58878" lon="-0.41292">
        <ele>59.74</ele>
        <time>2017-03-26T09:44:29Z</time>
      </trkpt>
      <trkpt lat="47.58891" lon="-0.41298">
        <ele>59.74</ele>
        <time>2017-03-26T09:44:32Z</time>
      </trkpt>
      <trkpt lat="47.58902" lon="-0.41325">
        <ele>59.26</ele>
        <time>2017-03-26T09:44:37Z</time>
      </trkpt>
      <trkpt lat="47.58899" lon="-0.41388">
        <ele>59.74</ele>
        <time>2017-03-26T09:44:47Z</time>
      </trkpt>
      <trkpt lat="47.58898" lon="-0.41405">
        <ele>59.74</ele>
        <time>2017-03-26T09:44:50Z</time>
      </trkpt>
      <trkpt lat="47.58909" lon="-0.41446">
        <ele>59.26</ele>
        <time>2017-03-26T09:44:59Z</time>
      </trkpt>
      <trkpt lat="47.58962" lon="-0.41459">
        <ele>58.78</ele>
        <time>2017-03-26T09:45:11Z</time>
      </trkpt>
      <trkpt lat="47.58989" lon="-0.41465">
        <ele>58.78</ele>
        <time>2017-03-26T09:45:17Z</time>
      </trkpt>
      <trkpt lat="47.59018" lon="-0.41468">
        <ele>59.26</ele>
        <time>2017-03-26T09:45:23Z</time>
      </trkpt>
      <trkpt lat="47.59042" lon="-0.41472">
        <ele>58.78</ele>
        <time>2017-03-26T09:45:29Z</time>
      </trkpt>
      <trkpt lat="47.5904" lon="-0.41475">
        <ele>58.78</ele>
        <time>2017-03-26T09:45:31Z</time>
      </trkpt>
      <trkpt lat="47.59039" lon="-0.41473">
        <ele>58.78</ele>
        <time>2017-03-26T09:45:32Z</time>
      </trkpt>
      <trkpt lat="47.59041" lon="-0.4146">
        <ele>58.78</ele>
        <time>2017-03-26T09:45:37Z</time>
      </trkpt>
      <trkpt lat="47.5904" lon="-0.41454">
        <ele>59.74</ele>
        <time>2017-03-26T09:45:38Z</time>
      </trkpt>
      <trkpt lat="47.5901" lon="-0.41366">
        <ele>59.26</ele>
        <time>2017-03-26T09:45:51Z</time>
      </trkpt>
      <trkpt lat="47.58996" lon="-0.41311">
        <ele>58.78</ele>
        <time>2017-03-26T09:46:00Z</time>
      </trkpt>
      <trkpt lat="47.58994" lon="-0.41305">
        <ele>59.26</ele>
        <time>2017-03-26T09:46:01Z</time>
      </trkpt>
      <trkpt lat="47.5899" lon="-0.41292">
        <ele>58.78</ele>
        <time>2017-03-26T09:46:04Z</time>
      </trkpt>
      <trkpt lat="47.58991" lon="-0.41291">
        <ele>58.78</ele>
        <time>2017-03-26T09:46:05Z</time>
      </trkpt>
      <trkpt lat="47.58996" lon="-0.41288">
        <ele>57.82</ele>
        <time>2017-03-26T09:46:08Z</time>
      </trkpt>
      <trkpt lat="47.58997" lon="-0.41285">
        <ele>57.82</ele>
        <time>2017-03-26T09:46:09Z</time>
      </trkpt>
      <trkpt lat="47.58996" lon="-0.4128">
        <ele>57.82</ele>
        <time>2017-03-26T09:46:10Z</time>
      </trkpt>
      <trkpt lat="47.58994" lon="-0.41276">
        <ele>58.3</ele>
        <time>2017-03-26T09:46:11Z</time>
      </trkpt>
      <trkpt lat="47.58991" lon="-0.41265">
        <ele>57.82</ele>
        <time>2017-03-26T09:46:13Z</time>
      </trkpt>
      <trkpt lat="47.58968" lon="-0.41174">
        <ele>55.89</ele>
        <time>2017-03-26T09:46:26Z</time>
      </trkpt>
      <trkpt lat="47.58968" lon="-0.41167">
        <ele>55.41</ele>
        <time>2017-03-26T09:46:27Z</time>
      </trkpt>
      <trkpt lat="47.5897" lon="-0.41161">
        <ele>54.93</ele>
        <time>2017-03-26T09:46:28Z</time>
      </trkpt>
      <trkpt lat="47.58973" lon="-0.41156">
        <ele>53.97</ele>
        <time>2017-03-26T09:46:29Z</time>
      </trkpt>
      <trkpt lat="47.58978" lon="-0.41153">
        <ele>54.45</ele>
        <time>2017-03-26T09:46:30Z</time>
      </trkpt>
      <trkpt lat="47.58984" lon="-0.41151">
        <ele>53.49</ele>
        <time>2017-03-26T09:46:31Z</time>
      </trkpt>
      <trkpt lat="47.5899" lon="-0.4115">
        <ele>53.49</ele>
        <time>2017-03-26T09:46:32Z</time>
      </trkpt>
      <trkpt lat="47.59042" lon="-0.41141">
        <ele>50.13</ele>
        <time>2017-03-26T09:46:39Z</time>
      </trkpt>
      <trkpt lat="47.59087" lon="-0.41136">
        <ele>46.76</ele>
        <time>2017-03-26T09:46:44Z</time>
      </trkpt>
      <trkpt lat="47.59107" lon="-0.41135">
        <ele>45.8</ele>
        <time>2017-03-26T09:46:46Z</time>
      </trkpt>
      <trkpt lat="47.59133" lon="-0.41134">
        <ele>44.84</ele>
        <time>2017-03-26T09:46:49Z</time>
      </trkpt>
      <trkpt lat="47.59198" lon="-0.41125">
        <ele>41.95</ele>
        <time>2017-03-26T09:46:58Z</time>
      </trkpt>
      <trkpt lat="47.59201" lon="-0.41128">
        <ele>41.47</ele>
        <time>2017-03-26T09:46:59Z</time>
      </trkpt>
      <trkpt lat="47.59203" lon="-0.41132">
        <ele>41.95</ele>
        <time>2017-03-26T09:47:00Z</time>
      </trkpt>
      <trkpt lat="47.59216" lon="-0.41167">
        <ele>44.36</ele>
        <time>2017-03-26T09:47:10Z</time>
      </trkpt>
      <trkpt lat="47.59218" lon="-0.41169">
        <ele>44.36</ele>
        <time>2017-03-26T09:47:11Z</time>
      </trkpt>
      <trkpt lat="47.5922" lon="-0.41172">
        <ele>44.84</ele>
        <time>2017-03-26T09:47:12Z</time>
      </trkpt>
      <trkpt lat="47.59246" lon="-0.41227">
        <ele>47.24</ele>
        <time>2017-03-26T09:47:25Z</time>
      </trkpt>
      <trkpt lat="47.59254" lon="-0.4125">
        <ele>48.2</ele>
        <time>2017-03-26T09:47:31Z</time>
      </trkpt>
      <trkpt lat="47.59255" lon="-0.41254">
        <ele>48.2</ele>
        <time>2017-03-26T09:47:32Z</time>
      </trkpt>
      <trkpt lat="47.59257" lon="-0.41257">
        <ele>48.68</ele>
        <time>2017-03-26T09:47:33Z</time>
      </trkpt>
      <trkpt lat="47.59258" lon="-0.4126">
        <ele>49.16</ele>
        <time>2017-03-26T09:47:34Z</time>
      </trkpt>
      <trkpt lat="47.59259" lon="-0.41263">
        <ele>48.68</ele>
        <time>2017-03-26T09:47:35Z</time>
      </trkpt>
      <trkpt lat="47.59261" lon="-0.41267">
        <ele>49.16</ele>
        <time>2017-03-26T09:47:36Z</time>
      </trkpt>
      <trkpt lat="47.59262" lon="-0.4127">
        <ele>49.16</ele>
        <time>2017-03-26T09:47:37Z</time>
      </trkpt>
      <trkpt lat="47.59266" lon="-0.41281">
        <ele>49.65</ele>
        <time>2017-03-26T09:47:41Z</time>
      </trkpt>
      <trkpt lat="47.59266" lon="-0.41283">
        <ele>50.13</ele>
        <time>2017-03-26T09:47:42Z</time>
      </trkpt>
      <trkpt lat="47.59267" lon="-0.41285">
        <ele>50.13</ele>
        <time>2017-03-26T09:47:43Z</time>
      </trkpt>
      <trkpt lat="47.59268" lon="-0.41288">
        <ele>51.09</ele>
        <time>2017-03-26T09:47:44Z</time>
      </trkpt>
      <trkpt lat="47.59269" lon="-0.4129">
        <ele>51.57</ele>
        <time>2017-03-26T09:47:45Z</time>
      </trkpt>
      <trkpt lat="47.59271" lon="-0.41293">
        <ele>51.57</ele>
        <time>2017-03-26T09:47:46Z</time>
      </trkpt>
      <trkpt lat="47.59286" lon="-0.41328">
        <ele>53.49</ele>
        <time>2017-03-26T09:47:59Z</time>
      </trkpt>
      <trkpt lat="47.59299" lon="-0.41358">
        <ele>54.93</ele>
        <time>2017-03-26T09:48:11Z</time>
      </trkpt>
      <trkpt lat="47.59307" lon="-0.4138">
        <ele>54.93</ele>
        <time>2017-03-26T09:48:18Z</time>
      </trkpt>
      <trkpt lat="47.59309" lon="-0.41381">
        <ele>55.41</ele>
        <time>2017-03-26T09:48:19Z</time>
      </trkpt>
      <trkpt lat="47.59312" lon="-0.41381">
        <ele>55.41</ele>
        <time>2017-03-26T09:48:20Z</time>
      </trkpt>
      <trkpt lat="47.59314" lon="-0.41379">
        <ele>54.45</ele>
        <time>2017-03-26T09:48:21Z</time>
      </trkpt>
      <trkpt lat="47.59317" lon="-0.41374">
        <ele>54.45</ele>
        <time>2017-03-26T09:48:22Z</time>
      </trkpt>
      <trkpt lat="47.59318" lon="-0.41369">
        <ele>53.97</ele>
        <time>2017-03-26T09:48:23Z</time>
      </trkpt>
      <trkpt lat="47.5932" lon="-0.41363">
        <ele>53.97</ele>
        <time>2017-03-26T09:48:24Z</time>
      </trkpt>
      <trkpt lat="47.59322" lon="-0.41358">
        <ele>53.01</ele>
        <time>2017-03-26T09:48:25Z</time>
      </trkpt>
      <trkpt lat="47.5933" lon="-0.41337">
        <ele>51.09</ele>
        <time>2017-03-26T09:48:28Z</time>
      </trkpt>
      <trkpt lat="47.59336" lon="-0.41318">
        <ele>49.65</ele>
        <time>2017-03-26T09:48:30Z</time>
      </trkpt>
      <trkpt lat="47.59338" lon="-0.41308">
        <ele>48.2</ele>
        <time>2017-03-26T09:48:31Z</time>
      </trkpt>
      <trkpt lat="47.5934" lon="-0.41297">
        <ele>48.2</ele>
        <time>2017-03-26T09:48:32Z</time>
      </trkpt>
      <trkpt lat="47.59342" lon="-0.41286">
        <ele>47.24</ele>
        <time>2017-03-26T09:48:33Z</time>
      </trkpt>
      <trkpt lat="47.59344" lon="-0.41276">
        <ele>46.76</ele>
        <time>2017-03-26T09:48:34Z</time>
      </trkpt>
      <trkpt lat="47.59347" lon="-0.41264">
        <ele>46.28</ele>
        <time>2017-03-26T09:48:35Z</time>
      </trkpt>
      <trkpt lat="47.59352" lon="-0.41218">
        <ele>42.92</ele>
        <time>2017-03-26T09:48:39Z</time>
      </trkpt>
      <trkpt lat="47.59354" lon="-0.41206">
        <ele>41.95</ele>
        <time>2017-03-26T09:48:40Z</time>
      </trkpt>
      <trkpt lat="47.59356" lon="-0.41197">
        <ele>41.47</ele>
        <time>2017-03-26T09:48:41Z</time>
      </trkpt>
      <trkpt lat="47.59359" lon="-0.41188">
        <ele>40.03</ele>
        <time>2017-03-26T09:48:42Z</time>
      </trkpt>
      <trkpt lat="47.59361" lon="-0.41181">
        <ele>39.07</ele>
        <time>2017-03-26T09:48:43Z</time>
      </trkpt>
      <trkpt lat="47.59361" lon="-0.41175">
        <ele>37.63</ele>
        <time>2017-03-26T09:48:44Z</time>
      </trkpt>
      <trkpt lat="47.59361" lon="-0.41169">
        <ele>37.63</ele>
        <time>2017-03-26T09:48:45Z</time>
      </trkpt>
      <trkpt lat="47.59359" lon="-0.41163">
        <ele>37.15</ele>
        <time>2017-03-26T09:48:46Z</time>
      </trkpt>
      <trkpt lat="47.59357" lon="-0.41158">
        <ele>37.63</ele>
        <time>2017-03-26T09:48:47Z</time>
      </trkpt>
      <trkpt lat="47.59354" lon="-0.41154">
        <ele>37.15</ele>
        <time>2017-03-26T09:48:48Z</time>
      </trkpt>
      <trkpt lat="47.59351" lon="-0.41151">
        <ele>38.11</ele>
        <time>2017-03-26T09:48:49Z</time>
      </trkpt>
      <trkpt lat="47.59348" lon="-0.4115">
        <ele>38.11</ele>
        <time>2017-03-26T09:48:50Z</time>
      </trkpt>
      <trkpt lat="47.59345" lon="-0.41149">
        <ele>38.11</ele>
        <time>2017-03-26T09:48:51Z</time>
      </trkpt>
      <trkpt lat="47.59342" lon="-0.41148">
        <ele>39.07</ele>
        <time>2017-03-26T09:48:52Z</time>
      </trkpt>
      <trkpt lat="47.59313" lon="-0.4113">
        <ele>39.55</ele>
        <time>2017-03-26T09:49:03Z</time>
      </trkpt>
      <trkpt lat="47.59272" lon="-0.41111">
        <ele>39.55</ele>
        <time>2017-03-26T09:49:15Z</time>
      </trkpt>
      <trkpt lat="47.59262" lon="-0.41103">
        <ele>39.55</ele>
        <time>2017-03-26T09:49:18Z</time>
      </trkpt>
      <trkpt lat="47.59261" lon="-0.41098">
        <ele>39.55</ele>
        <time>2017-03-26T09:49:19Z</time>
      </trkpt>
      <trkpt lat="47.59262" lon="-0.41092">
        <ele>39.55</ele>
        <time>2017-03-26T09:49:20Z</time>
      </trkpt>
      <trkpt lat="47.59265" lon="-0.41087">
        <ele>39.07</ele>
        <time>2017-03-26T09:49:21Z</time>
      </trkpt>
      <trkpt lat="47.59268" lon="-0.41081">
        <ele>38.59</ele>
        <time>2017-03-26T09:49:22Z</time>
      </trkpt>
      <trkpt lat="47.59287" lon="-0.41038">
        <ele>36.19</ele>
        <time>2017-03-26T09:49:28Z</time>
      </trkpt>
      <trkpt lat="47.59318" lon="-0.40983">
        <ele>34.26</ele>
        <time>2017-03-26T09:49:35Z</time>
      </trkpt>
      <trkpt lat="47.5934" lon="-0.40947">
        <ele>33.3</ele>
        <time>2017-03-26T09:49:40Z</time>
      </trkpt>
      <trkpt lat="47.59346" lon="-0.40942">
        <ele>32.82</ele>
        <time>2017-03-26T09:49:41Z</time>
      </trkpt>
      <trkpt lat="47.59351" lon="-0.4094">
        <ele>32.34</ele>
        <time>2017-03-26T09:49:42Z</time>
      </trkpt>
      <trkpt lat="47.59357" lon="-0.4094">
        <ele>32.34</ele>
        <time>2017-03-26T09:49:43Z</time>
      </trkpt>
      <trkpt lat="47.59362" lon="-0.40942">
        <ele>32.82</ele>
        <time>2017-03-26T09:49:44Z</time>
      </trkpt>
      <trkpt lat="47.59367" lon="-0.40946">
        <ele>32.34</ele>
        <time>2017-03-26T09:49:45Z</time>
      </trkpt>
      <trkpt lat="47.59372" lon="-0.40949">
        <ele>32.34</ele>
        <time>2017-03-26T09:49:46Z</time>
      </trkpt>
      <trkpt lat="47.5941" lon="-0.40978">
        <ele>32.34</ele>
        <time>2017-03-26T09:49:54Z</time>
      </trkpt>
      <trkpt lat="47.59465" lon="-0.41012">
        <ele>32.82</ele>
        <time>2017-03-26T09:50:06Z</time>
      </trkpt>
      <trkpt lat="47.59545" lon="-0.41061">
        <ele>32.82</ele>
        <time>2017-03-26T09:50:23Z</time>
      </trkpt>
      <trkpt lat="47.59555" lon="-0.41065">
        <ele>32.34</ele>
        <time>2017-03-26T09:50:25Z</time>
      </trkpt>
      <trkpt lat="47.59646" lon="-0.41081">
        <ele>32.82</ele>
        <time>2017-03-26T09:50:41Z</time>
      </trkpt>
      <trkpt lat="47.59731" lon="-0.41116">
        <ele>31.86</ele>
        <time>2017-03-26T09:50:55Z</time>
      </trkpt>
      <trkpt lat="47.59807" lon="-0.4117">
        <ele>31.86</ele>
        <time>2017-03-26T09:51:09Z</time>
      </trkpt>
      <trkpt lat="47.59872" lon="-0.41227">
        <ele>31.86</ele>
        <time>2017-03-26T09:51:21Z</time>
      </trkpt>
      <trkpt lat="47.59959" lon="-0.41299">
        <ele>31.86</ele>
        <time>2017-03-26T09:51:36Z</time>
      </trkpt>
      <trkpt lat="47.60026" lon="-0.41356">
        <ele>31.38</ele>
        <time>2017-03-26T09:51:49Z</time>
      </trkpt>
      <trkpt lat="47.60057" lon="-0.41383">
        <ele>31.38</ele>
        <time>2017-03-26T09:51:59Z</time>
      </trkpt>
      <trkpt lat="47.60072" lon="-0.41405">
        <ele>30.9</ele>
        <time>2017-03-26T09:52:04Z</time>
      </trkpt>
      <trkpt lat="47.60076" lon="-0.4141">
        <ele>30.42</ele>
        <time>2017-03-26T09:52:05Z</time>
      </trkpt>
      <trkpt lat="47.60079" lon="-0.41415">
        <ele>30.9</ele>
        <time>2017-03-26T09:52:06Z</time>
      </trkpt>
      <trkpt lat="47.60083" lon="-0.41419">
        <ele>31.38</ele>
        <time>2017-03-26T09:52:07Z</time>
      </trkpt>
      <trkpt lat="47.60087" lon="-0.41424">
        <ele>30.9</ele>
        <time>2017-03-26T09:52:08Z</time>
      </trkpt>
      <trkpt lat="47.60105" lon="-0.41452">
        <ele>31.38</ele>
        <time>2017-03-26T09:52:13Z</time>
      </trkpt>
      <trkpt lat="47.60109" lon="-0.41455">
        <ele>31.38</ele>
        <time>2017-03-26T09:52:14Z</time>
      </trkpt>
      <trkpt lat="47.60113" lon="-0.41458">
        <ele>30.9</ele>
        <time>2017-03-26T09:52:15Z</time>
      </trkpt>
      <trkpt lat="47.60116" lon="-0.41463">
        <ele>31.38</ele>
        <time>2017-03-26T09:52:16Z</time>
      </trkpt>
      <trkpt lat="47.60118" lon="-0.41469">
        <ele>31.38</ele>
        <time>2017-03-26T09:52:17Z</time>
      </trkpt>
      <trkpt lat="47.60119" lon="-0.41475">
        <ele>31.86</ele>
        <time>2017-03-26T09:52:18Z</time>
      </trkpt>
      <trkpt lat="47.60118" lon="-0.41481">
        <ele>31.38</ele>
        <time>2017-03-26T09:52:19Z</time>
      </trkpt>
      <trkpt lat="47.60115" lon="-0.41487">
        <ele>31.86</ele>
        <time>2017-03-26T09:52:20Z</time>
      </trkpt>
      <trkpt lat="47.60093" lon="-0.41536">
        <ele>31.86</ele>
        <time>2017-03-26T09:52:31Z</time>
      </trkpt>
      <trkpt lat="47.60091" lon="-0.41547">
        <ele>31.38</ele>
        <time>2017-03-26T09:52:35Z</time>
      </trkpt>
      <trkpt lat="47.60082" lon="-0.41601">
        <ele>31.86</ele>
        <time>2017-03-26T09:52:46Z</time>
      </trkpt>
      <trkpt lat="47.60065" lon="-0.41667">
        <ele>32.82</ele>
        <time>2017-03-26T09:52:59Z</time>
      </trkpt>
      <trkpt lat="47.60052" lon="-0.41714">
        <ele>34.26</ele>
        <time>2017-03-26T09:53:08Z</time>
      </trkpt>
      <trkpt lat="47.60038" lon="-0.41774">
        <ele>35.71</ele>
        <time>2017-03-26T09:53:21Z</time>
      </trkpt>
      <trkpt lat="47.60034" lon="-0.41798">
        <ele>37.15</ele>
        <time>2017-03-26T09:53:27Z</time>
      </trkpt>
      <trkpt lat="47.60035" lon="-0.41802">
        <ele>37.63</ele>
        <time>2017-03-26T09:53:28Z</time>
      </trkpt>
      <trkpt lat="47.60037" lon="-0.41806">
        <ele>37.63</ele>
        <time>2017-03-26T09:53:29Z</time>
      </trkpt>
      <trkpt lat="47.6004" lon="-0.4181">
        <ele>37.63</ele>
        <time>2017-03-26T09:53:30Z</time>
      </trkpt>
      <trkpt lat="47.60042" lon="-0.41813">
        <ele>38.11</ele>
        <time>2017-03-26T09:53:31Z</time>
      </trkpt>
      <trkpt lat="47.60045" lon="-0.41816">
        <ele>38.11</ele>
        <time>2017-03-26T09:53:32Z</time>
      </trkpt>
      <trkpt lat="47.60077" lon="-0.41877">
        <ele>39.07</ele>
        <time>2017-03-26T09:53:47Z</time>
      </trkpt>
      <trkpt lat="47.60101" lon="-0.41919">
        <ele>38.59</ele>
        <time>2017-03-26T09:53:56Z</time>
      </trkpt>
      <trkpt lat="47.60121" lon="-0.41956">
        <ele>38.11</ele>
        <time>2017-03-26T09:54:03Z</time>
      </trkpt>
      <trkpt lat="47.60124" lon="-0.41961">
        <ele>38.59</ele>
        <time>2017-03-26T09:54:04Z</time>
      </trkpt>
      <trkpt lat="47.60127" lon="-0.41965">
        <ele>38.59</ele>
        <time>2017-03-26T09:54:05Z</time>
      </trkpt>
      <trkpt lat="47.60143" lon="-0.41994">
        <ele>38.59</ele>
        <time>2017-03-26T09:54:11Z</time>
      </trkpt>
      <trkpt lat="47.60146" lon="-0.41999">
        <ele>38.59</ele>
        <time>2017-03-26T09:54:12Z</time>
      </trkpt>
      <trkpt lat="47.6016" lon="-0.4202">
        <ele>39.07</ele>
        <time>2017-03-26T09:54:17Z</time>
      </trkpt>
      <trkpt lat="47.60181" lon="-0.42058">
        <ele>39.07</ele>
        <time>2017-03-26T09:54:25Z</time>
      </trkpt>
      <trkpt lat="47.60184" lon="-0.42063">
        <ele>39.07</ele>
        <time>2017-03-26T09:54:26Z</time>
      </trkpt>
      <trkpt lat="47.60187" lon="-0.42067">
        <ele>39.07</ele>
        <time>2017-03-26T09:54:27Z</time>
      </trkpt>
      <trkpt lat="47.60215" lon="-0.42102">
        <ele>39.55</ele>
        <time>2017-03-26T09:54:35Z</time>
      </trkpt>
      <trkpt lat="47.60218" lon="-0.42106">
        <ele>39.55</ele>
        <time>2017-03-26T09:54:36Z</time>
      </trkpt>
      <trkpt lat="47.60222" lon="-0.42109">
        <ele>39.55</ele>
        <time>2017-03-26T09:54:37Z</time>
      </trkpt>
      <trkpt lat="47.60225" lon="-0.42113">
        <ele>39.55</ele>
        <time>2017-03-26T09:54:38Z</time>
      </trkpt>
      <trkpt lat="47.60228" lon="-0.42117">
        <ele>39.55</ele>
        <time>2017-03-26T09:54:39Z</time>
      </trkpt>
      <trkpt lat="47.60231" lon="-0.4212">
        <ele>39.55</ele>
        <time>2017-03-26T09:54:40Z</time>
      </trkpt>
      <trkpt lat="47.60285" lon="-0.42187">
        <ele>40.99</ele>
        <time>2017-03-26T09:54:57Z</time>
      </trkpt>
      <trkpt lat="47.60347" lon="-0.42263">
        <ele>39.55</ele>
        <time>2017-03-26T09:55:13Z</time>
      </trkpt>
      <trkpt lat="47.60408" lon="-0.42359">
        <ele>39.07</ele>
        <time>2017-03-26T09:55:27Z</time>
      </trkpt>
      <trkpt lat="47.60478" lon="-0.42494">
        <ele>36.67</ele>
        <time>2017-03-26T09:55:43Z</time>
      </trkpt>
      <trkpt lat="47.60524" lon="-0.42579">
        <ele>39.07</ele>
        <time>2017-03-26T09:55:54Z</time>
      </trkpt>
      <trkpt lat="47.6055" lon="-0.4263">
        <ele>40.51</ele>
        <time>2017-03-26T09:56:05Z</time>
      </trkpt>
      <trkpt lat="47.60574" lon="-0.42677">
        <ele>41.47</ele>
        <time>2017-03-26T09:56:18Z</time>
      </trkpt>
      <trkpt lat="47.60576" lon="-0.42677">
        <ele>40.99</ele>
        <time>2017-03-26T09:56:19Z</time>
      </trkpt>
      <trkpt lat="47.60577" lon="-0.42668">
        <ele>40.99</ele>
        <time>2017-03-26T09:56:22Z</time>
      </trkpt>
      <trkpt lat="47.60576" lon="-0.42664">
        <ele>40.99</ele>
        <time>2017-03-26T09:56:23Z</time>
      </trkpt>
      <trkpt lat="47.60574" lon="-0.42661">
        <ele>40.99</ele>
        <time>2017-03-26T09:56:24Z</time>
      </trkpt>
      <trkpt lat="47.60564" lon="-0.42635">
        <ele>40.03</ele>
        <time>2017-03-26T09:56:30Z</time>
      </trkpt>
      <trkpt lat="47.60585" lon="-0.42624">
        <ele>38.11</ele>
        <time>2017-03-26T09:56:36Z</time>
      </trkpt>
      <trkpt lat="47.60597" lon="-0.4263">
        <ele>37.63</ele>
        <time>2017-03-26T09:56:39Z</time>
      </trkpt>
      <trkpt lat="47.60611" lon="-0.42696">
        <ele>40.51</ele>
        <time>2017-03-26T09:56:52Z</time>
      </trkpt>
      <trkpt lat="47.6061" lon="-0.42727">
        <ele>41.47</ele>
        <time>2017-03-26T09:56:58Z</time>
      </trkpt>
      <trkpt lat="47.60608" lon="-0.42731">
        <ele>41.47</ele>
        <time>2017-03-26T09:56:59Z</time>
      </trkpt>
      <trkpt lat="47.60595" lon="-0.42775">
        <ele>41.47</ele>
        <time>2017-03-26T09:57:09Z</time>
      </trkpt>
      <trkpt lat="47.60591" lon="-0.42788">
        <ele>40.99</ele>
        <time>2017-03-26T09:57:12Z</time>
      </trkpt>
      <trkpt lat="47.60578" lon="-0.42792">
        <ele>41.47</ele>
        <time>2017-03-26T09:57:16Z</time>
      </trkpt>
      <trkpt lat="47.60575" lon="-0.4279">
        <ele>41.95</ele>
        <time>2017-03-26T09:57:17Z</time>
      </trkpt>
      <trkpt lat="47.60572" lon="-0.42789">
        <ele>41.47</ele>
        <time>2017-03-26T09:57:18Z</time>
      </trkpt>
      <trkpt lat="47.60568" lon="-0.42788">
        <ele>41.95</ele>
        <time>2017-03-26T09:57:19Z</time>
      </trkpt>
      <trkpt lat="47.60565" lon="-0.4279">
        <ele>41.47</ele>
        <time>2017-03-26T09:57:20Z</time>
      </trkpt>
      <trkpt lat="47.60562" lon="-0.42794">
        <ele>41.47</ele>
        <time>2017-03-26T09:57:21Z</time>
      </trkpt>
      <trkpt lat="47.60559" lon="-0.42798">
        <ele>41.47</ele>
        <time>2017-03-26T09:57:22Z</time>
      </trkpt>
      <trkpt lat="47.60556" lon="-0.42802">
        <ele>41.47</ele>
        <time>2017-03-26T09:57:23Z</time>
      </trkpt>
      <trkpt lat="47.60548" lon="-0.42809">
        <ele>41.47</ele>
        <time>2017-03-26T09:57:25Z</time>
      </trkpt>
      <trkpt lat="47.60544" lon="-0.42812">
        <ele>41.47</ele>
        <time>2017-03-26T09:57:26Z</time>
      </trkpt>
      <trkpt lat="47.60516" lon="-0.42826">
        <ele>41.47</ele>
        <time>2017-03-26T09:57:32Z</time>
      </trkpt>
      <trkpt lat="47.60492" lon="-0.42838">
        <ele>40.51</ele>
        <time>2017-03-26T09:57:37Z</time>
      </trkpt>
      <trkpt lat="47.60489" lon="-0.42842">
        <ele>40.51</ele>
        <time>2017-03-26T09:57:38Z</time>
      </trkpt>
      <trkpt lat="47.60485" lon="-0.42845">
        <ele>40.51</ele>
        <time>2017-03-26T09:57:39Z</time>
      </trkpt>
      <trkpt lat="47.60481" lon="-0.42847">
        <ele>40.51</ele>
        <time>2017-03-26T09:57:40Z</time>
      </trkpt>
      <trkpt lat="47.60476" lon="-0.42849">
        <ele>40.51</ele>
        <time>2017-03-26T09:57:41Z</time>
      </trkpt>
      <trkpt lat="47.60468" lon="-0.42853">
        <ele>40.51</ele>
        <time>2017-03-26T09:57:43Z</time>
      </trkpt>
      <trkpt lat="47.60464" lon="-0.42856">
        <ele>40.03</ele>
        <time>2017-03-26T09:57:44Z</time>
      </trkpt>
      <trkpt lat="47.6042" lon="-0.42869">
        <ele>40.51</ele>
        <time>2017-03-26T09:57:54Z</time>
      </trkpt>
      <trkpt lat="47.60411" lon="-0.42872">
        <ele>40.99</ele>
        <time>2017-03-26T09:57:56Z</time>
      </trkpt>
      <trkpt lat="47.60406" lon="-0.42872">
        <ele>40.99</ele>
        <time>2017-03-26T09:57:57Z</time>
      </trkpt>
      <trkpt lat="47.60396" lon="-0.42876">
        <ele>40.99</ele>
        <time>2017-03-26T09:57:59Z</time>
      </trkpt>
      <trkpt lat="47.60387" lon="-0.42892">
        <ele>40.99</ele>
        <time>2017-03-26T09:58:02Z</time>
      </trkpt>
      <trkpt lat="47.60383" lon="-0.42896">
        <ele>40.99</ele>
        <time>2017-03-26T09:58:03Z</time>
      </trkpt>
      <trkpt lat="47.60379" lon="-0.42899">
        <ele>40.99</ele>
        <time>2017-03-26T09:58:04Z</time>
      </trkpt>
      <trkpt lat="47.60377" lon="-0.42903">
        <ele>40.51</ele>
        <time>2017-03-26T09:58:05Z</time>
      </trkpt>
      <trkpt lat="47.60376" lon="-0.42908">
        <ele>40.03</ele>
        <time>2017-03-26T09:58:06Z</time>
      </trkpt>
      <trkpt lat="47.60375" lon="-0.42912">
        <ele>40.51</ele>
        <time>2017-03-26T09:58:07Z</time>
      </trkpt>
      <trkpt lat="47.60374" lon="-0.42918">
        <ele>40.51</ele>
        <time>2017-03-26T09:58:08Z</time>
      </trkpt>
      <trkpt lat="47.60374" lon="-0.42923">
        <ele>40.51</ele>
        <time>2017-03-26T09:58:09Z</time>
      </trkpt>
      <trkpt lat="47.60373" lon="-0.42929">
        <ele>40.51</ele>
        <time>2017-03-26T09:58:10Z</time>
      </trkpt>
      <trkpt lat="47.60373" lon="-0.42935">
        <ele>40.51</ele>
        <time>2017-03-26T09:58:11Z</time>
      </trkpt>
      <trkpt lat="47.60372" lon="-0.42942">
        <ele>40.51</ele>
        <time>2017-03-26T09:58:12Z</time>
      </trkpt>
      <trkpt lat="47.60371" lon="-0.42948">
        <ele>40.03</ele>
        <time>2017-03-26T09:58:13Z</time>
      </trkpt>
      <trkpt lat="47.60369" lon="-0.42954">
        <ele>40.99</ele>
        <time>2017-03-26T09:58:14Z</time>
      </trkpt>
      <trkpt lat="47.60366" lon="-0.4296">
        <ele>40.51</ele>
        <time>2017-03-26T09:58:15Z</time>
      </trkpt>
      <trkpt lat="47.60364" lon="-0.42965">
        <ele>40.51</ele>
        <time>2017-03-26T09:58:16Z</time>
      </trkpt>
      <trkpt lat="47.60363" lon="-0.42971">
        <ele>40.51</ele>
        <time>2017-03-26T09:58:17Z</time>
      </trkpt>
      <trkpt lat="47.60361" lon="-0.42977">
        <ele>40.51</ele>
        <time>2017-03-26T09:58:18Z</time>
      </trkpt>
      <trkpt lat="47.6036" lon="-0.42983">
        <ele>40.51</ele>
        <time>2017-03-26T09:58:19Z</time>
      </trkpt>
      <trkpt lat="47.60358" lon="-0.42996">
        <ele>40.51</ele>
        <time>2017-03-26T09:58:21Z</time>
      </trkpt>
      <trkpt lat="47.60356" lon="-0.43002">
        <ele>40.51</ele>
        <time>2017-03-26T09:58:22Z</time>
      </trkpt>
      <trkpt lat="47.60353" lon="-0.43006">
        <ele>40.51</ele>
        <time>2017-03-26T09:58:23Z</time>
      </trkpt>
      <trkpt lat="47.6035" lon="-0.43011">
        <ele>40.99</ele>
        <time>2017-03-26T09:58:24Z</time>
      </trkpt>
      <trkpt lat="47.60348" lon="-0.43015">
        <ele>40.51</ele>
        <time>2017-03-26T09:58:25Z</time>
      </trkpt>
      <trkpt lat="47.60347" lon="-0.4302">
        <ele>40.51</ele>
        <time>2017-03-26T09:58:26Z</time>
      </trkpt>
      <trkpt lat="47.60344" lon="-0.43026">
        <ele>40.51</ele>
        <time>2017-03-26T09:58:27Z</time>
      </trkpt>
      <trkpt lat="47.60341" lon="-0.43032">
        <ele>40.03</ele>
        <time>2017-03-26T09:58:28Z</time>
      </trkpt>
      <trkpt lat="47.60337" lon="-0.43037">
        <ele>40.51</ele>
        <time>2017-03-26T09:58:29Z</time>
      </trkpt>
      <trkpt lat="47.60333" lon="-0.43041">
        <ele>40.51</ele>
        <time>2017-03-26T09:58:30Z</time>
      </trkpt>
      <trkpt lat="47.60329" lon="-0.43045">
        <ele>40.51</ele>
        <time>2017-03-26T09:58:31Z</time>
      </trkpt>
      <trkpt lat="47.60325" lon="-0.43048">
        <ele>40.51</ele>
        <time>2017-03-26T09:58:32Z</time>
      </trkpt>
      <trkpt lat="47.60311" lon="-0.43062">
        <ele>40.03</ele>
        <time>2017-03-26T09:58:36Z</time>
      </trkpt>
      <trkpt lat="47.60311" lon="-0.43069">
        <ele>40.51</ele>
        <time>2017-03-26T09:58:37Z</time>
      </trkpt>
      <trkpt lat="47.60311" lon="-0.43077">
        <ele>40.51</ele>
        <time>2017-03-26T09:58:38Z</time>
      </trkpt>
      <trkpt lat="47.60312" lon="-0.43084">
        <ele>40.51</ele>
        <time>2017-03-26T09:58:39Z</time>
      </trkpt>
      <trkpt lat="47.60314" lon="-0.4309">
        <ele>40.51</ele>
        <time>2017-03-26T09:58:40Z</time>
      </trkpt>
      <trkpt lat="47.60336" lon="-0.43147">
        <ele>40.03</ele>
        <time>2017-03-26T09:58:49Z</time>
      </trkpt>
      <trkpt lat="47.6034" lon="-0.43149">
        <ele>39.55</ele>
        <time>2017-03-26T09:58:50Z</time>
      </trkpt>
      <trkpt lat="47.60343" lon="-0.43149">
        <ele>40.03</ele>
        <time>2017-03-26T09:58:51Z</time>
      </trkpt>
      <trkpt lat="47.60347" lon="-0.43148">
        <ele>40.03</ele>
        <time>2017-03-26T09:58:52Z</time>
      </trkpt>
      <trkpt lat="47.60352" lon="-0.43148">
        <ele>39.55</ele>
        <time>2017-03-26T09:58:53Z</time>
      </trkpt>
      <trkpt lat="47.60356" lon="-0.43148">
        <ele>40.03</ele>
        <time>2017-03-26T09:58:54Z</time>
      </trkpt>
      <trkpt lat="47.60372" lon="-0.43146">
        <ele>40.03</ele>
        <time>2017-03-26T09:58:58Z</time>
      </trkpt>
      <trkpt lat="47.60376" lon="-0.43148">
        <ele>39.55</ele>
        <time>2017-03-26T09:58:59Z</time>
      </trkpt>
      <trkpt lat="47.6042" lon="-0.43176">
        <ele>40.51</ele>
        <time>2017-03-26T09:59:09Z</time>
      </trkpt>
      <trkpt lat="47.60438" lon="-0.43191">
        <ele>39.55</ele>
        <time>2017-03-26T09:59:14Z</time>
      </trkpt>
      <trkpt lat="47.60448" lon="-0.43202">
        <ele>39.55</ele>
        <time>2017-03-26T09:59:17Z</time>
      </trkpt>
      <trkpt lat="47.60449" lon="-0.43208">
        <ele>39.55</ele>
        <time>2017-03-26T09:59:18Z</time>
      </trkpt>
      <trkpt lat="47.60448" lon="-0.43214">
        <ele>39.07</ele>
        <time>2017-03-26T09:59:19Z</time>
      </trkpt>
      <trkpt lat="47.60447" lon="-0.43219">
        <ele>39.07</ele>
        <time>2017-03-26T09:59:20Z</time>
      </trkpt>
      <trkpt lat="47.60445" lon="-0.43224">
        <ele>39.07</ele>
        <time>2017-03-26T09:59:21Z</time>
      </trkpt>
      <trkpt lat="47.60443" lon="-0.43228">
        <ele>39.55</ele>
        <time>2017-03-26T09:59:22Z</time>
      </trkpt>
      <trkpt lat="47.6044" lon="-0.43232">
        <ele>39.55</ele>
        <time>2017-03-26T09:59:23Z</time>
      </trkpt>
      <trkpt lat="47.60415" lon="-0.43267">
        <ele>39.55</ele>
        <time>2017-03-26T09:59:34Z</time>
      </trkpt>
      <trkpt lat="47.60394" lon="-0.43259">
        <ele>39.55</ele>
        <time>2017-03-26T09:59:44Z</time>
      </trkpt>
      <trkpt lat="47.60355" lon="-0.43219">
        <ele>40.51</ele>
        <time>2017-03-26T09:59:55Z</time>
      </trkpt>
      <trkpt lat="47.6035" lon="-0.43219">
        <ele>40.03</ele>
        <time>2017-03-26T09:59:56Z</time>
      </trkpt>
      <trkpt lat="47.60345" lon="-0.43221">
        <ele>40.03</ele>
        <time>2017-03-26T09:59:57Z</time>
      </trkpt>
      <trkpt lat="47.60341" lon="-0.43226">
        <ele>39.55</ele>
        <time>2017-03-26T09:59:58Z</time>
      </trkpt>
      <trkpt lat="47.60337" lon="-0.43231">
        <ele>39.55</ele>
        <time>2017-03-26T09:59:59Z</time>
      </trkpt>
      <trkpt lat="47.60334" lon="-0.43238">
        <ele>39.55</ele>
        <time>2017-03-26T10:00:00Z</time>
      </trkpt>
      <trkpt lat="47.60276" lon="-0.43335">
        <ele>39.07</ele>
        <time>2017-03-26T10:00:16Z</time>
      </trkpt>
      <trkpt lat="47.60214" lon="-0.43447">
        <ele>38.59</ele>
        <time>2017-03-26T10:00:33Z</time>
      </trkpt>
      <trkpt lat="47.6015" lon="-0.43555">
        <ele>37.15</ele>
        <time>2017-03-26T10:00:49Z</time>
      </trkpt>
      <trkpt lat="47.60084" lon="-0.43672">
        <ele>36.19</ele>
        <time>2017-03-26T10:01:05Z</time>
      </trkpt>
      <trkpt lat="47.6001" lon="-0.43793">
        <ele>34.74</ele>
        <time>2017-03-26T10:01:21Z</time>
      </trkpt>
      <trkpt lat="47.59934" lon="-0.43928">
        <ele>33.78</ele>
        <time>2017-03-26T10:01:39Z</time>
      </trkpt>
      <trkpt lat="47.59914" lon="-0.43963">
        <ele>33.3</ele>
        <time>2017-03-26T10:01:44Z</time>
      </trkpt>
      <trkpt lat="47.59847" lon="-0.44077">
        <ele>32.82</ele>
        <time>2017-03-26T10:02:01Z</time>
      </trkpt>
      <trkpt lat="47.59817" lon="-0.44126">
        <ele>32.82</ele>
        <time>2017-03-26T10:02:09Z</time>
      </trkpt>
      <trkpt lat="47.59813" lon="-0.4413">
        <ele>32.82</ele>
        <time>2017-03-26T10:02:10Z</time>
      </trkpt>
      <trkpt lat="47.59808" lon="-0.44132">
        <ele>32.82</ele>
        <time>2017-03-26T10:02:11Z</time>
      </trkpt>
      <trkpt lat="47.59803" lon="-0.44131">
        <ele>33.3</ele>
        <time>2017-03-26T10:02:12Z</time>
      </trkpt>
      <trkpt lat="47.59798" lon="-0.44126">
        <ele>33.3</ele>
        <time>2017-03-26T10:02:13Z</time>
      </trkpt>
      <trkpt lat="47.59794" lon="-0.44121">
        <ele>33.3</ele>
        <time>2017-03-26T10:02:14Z</time>
      </trkpt>
      <trkpt lat="47.59729" lon="-0.44039">
        <ele>34.26</ele>
        <time>2017-03-26T10:02:29Z</time>
      </trkpt>
      <trkpt lat="47.59664" lon="-0.4396">
        <ele>33.78</ele>
        <time>2017-03-26T10:02:44Z</time>
      </trkpt>
      <trkpt lat="47.59594" lon="-0.43878">
        <ele>34.26</ele>
        <time>2017-03-26T10:03:00Z</time>
      </trkpt>
      <trkpt lat="47.59518" lon="-0.43787">
        <ele>33.3</ele>
        <time>2017-03-26T10:03:18Z</time>
      </trkpt>
      <trkpt lat="47.59509" lon="-0.43778">
        <ele>33.3</ele>
        <time>2017-03-26T10:03:20Z</time>
      </trkpt>
      <trkpt lat="47.59505" lon="-0.43776">
        <ele>33.3</ele>
        <time>2017-03-26T10:03:21Z</time>
      </trkpt>
      <trkpt lat="47.59499" lon="-0.43776">
        <ele>33.3</ele>
        <time>2017-03-26T10:03:22Z</time>
      </trkpt>
      <trkpt lat="47.59495" lon="-0.4378">
        <ele>33.3</ele>
        <time>2017-03-26T10:03:23Z</time>
      </trkpt>
      <trkpt lat="47.59491" lon="-0.43786">
        <ele>33.3</ele>
        <time>2017-03-26T10:03:24Z</time>
      </trkpt>
      <trkpt lat="47.59488" lon="-0.43793">
        <ele>33.3</ele>
        <time>2017-03-26T10:03:25Z</time>
      </trkpt>
      <trkpt lat="47.59485" lon="-0.438">
        <ele>32.82</ele>
        <time>2017-03-26T10:03:26Z</time>
      </trkpt>
      <trkpt lat="47.59482" lon="-0.43807">
        <ele>33.3</ele>
        <time>2017-03-26T10:03:27Z</time>
      </trkpt>
      <trkpt lat="47.59478" lon="-0.43813">
        <ele>33.3</ele>
        <time>2017-03-26T10:03:28Z</time>
      </trkpt>
      <trkpt lat="47.59414" lon="-0.43925">
        <ele>32.34</ele>
        <time>2017-03-26T10:03:45Z</time>
      </trkpt>
      <trkpt lat="47.5933" lon="-0.4408">
        <ele>30.42</ele>
        <time>2017-03-26T10:04:07Z</time>
      </trkpt>
      <trkpt lat="47.59318" lon="-0.44097">
        <ele>26.09</ele>
        <time>2017-03-26T10:04:10Z</time>
      </trkpt>
      <trkpt lat="47.59314" lon="-0.44103">
        <ele>37.15</ele>
        <time>2017-03-26T10:04:11Z</time>
      </trkpt>
      <trkpt lat="47.59311" lon="-0.44108">
        <ele>31.38</ele>
        <time>2017-03-26T10:04:12Z</time>
      </trkpt>
      <trkpt lat="47.59303" lon="-0.44118">
        <ele>30.42</ele>
        <time>2017-03-26T10:04:14Z</time>
      </trkpt>
      <trkpt lat="47.59255" lon="-0.44174">
        <ele>30.9</ele>
        <time>2017-03-26T10:04:25Z</time>
      </trkpt>
      <trkpt lat="47.59167" lon="-0.44244">
        <ele>30.9</ele>
        <time>2017-03-26T10:04:42Z</time>
      </trkpt>
      <trkpt lat="47.5915" lon="-0.44252">
        <ele>31.38</ele>
        <time>2017-03-26T10:04:45Z</time>
      </trkpt>
      <trkpt lat="47.59059" lon="-0.44266">
        <ele>31.86</ele>
        <time>2017-03-26T10:05:01Z</time>
      </trkpt>
      <trkpt lat="47.5898" lon="-0.44276">
        <ele>32.34</ele>
        <time>2017-03-26T10:05:16Z</time>
      </trkpt>
      <trkpt lat="47.58976" lon="-0.44278">
        <ele>31.86</ele>
        <time>2017-03-26T10:05:17Z</time>
      </trkpt>
      <trkpt lat="47.58974" lon="-0.44281">
        <ele>31.86</ele>
        <time>2017-03-26T10:05:18Z</time>
      </trkpt>
      <trkpt lat="47.58973" lon="-0.44285">
        <ele>31.86</ele>
        <time>2017-03-26T10:05:19Z</time>
      </trkpt>
      <trkpt lat="47.58985" lon="-0.4432">
        <ele>32.34</ele>
        <time>2017-03-26T10:05:27Z</time>
      </trkpt>
      <trkpt lat="47.58996" lon="-0.44332">
        <ele>32.34</ele>
        <time>2017-03-26T10:05:31Z</time>
      </trkpt>
      <trkpt lat="47.59019" lon="-0.44384">
        <ele>31.86</ele>
        <time>2017-03-26T10:05:45Z</time>
      </trkpt>
      <trkpt lat="47.59046" lon="-0.4444">
        <ele>33.3</ele>
        <time>2017-03-26T10:06:01Z</time>
      </trkpt>
      <trkpt lat="47.59074" lon="-0.44503">
        <ele>33.78</ele>
        <time>2017-03-26T10:06:19Z</time>
      </trkpt>
      <trkpt lat="47.59099" lon="-0.44561">
        <ele>35.23</ele>
        <time>2017-03-26T10:06:36Z</time>
      </trkpt>
      <trkpt lat="47.59125" lon="-0.4462">
        <ele>35.71</ele>
        <time>2017-03-26T10:06:53Z</time>
      </trkpt>
      <trkpt lat="47.59153" lon="-0.44666">
        <ele>35.71</ele>
        <time>2017-03-26T10:07:07Z</time>
      </trkpt>
      <trkpt lat="47.5919" lon="-0.44709">
        <ele>35.71</ele>
        <time>2017-03-26T10:07:21Z</time>
      </trkpt>
      <trkpt lat="47.59214" lon="-0.44737">
        <ele>35.23</ele>
        <time>2017-03-26T10:07:28Z</time>
      </trkpt>
      <trkpt lat="47.59217" lon="-0.44741">
        <ele>35.23</ele>
        <time>2017-03-26T10:07:29Z</time>
      </trkpt>
      <trkpt lat="47.5922" lon="-0.44745">
        <ele>35.23</ele>
        <time>2017-03-26T10:07:30Z</time>
      </trkpt>
      <trkpt lat="47.59224" lon="-0.44749">
        <ele>35.23</ele>
        <time>2017-03-26T10:07:31Z</time>
      </trkpt>
      <trkpt lat="47.59228" lon="-0.44753">
        <ele>35.23</ele>
        <time>2017-03-26T10:07:32Z</time>
      </trkpt>
      <trkpt lat="47.59231" lon="-0.44756">
        <ele>35.23</ele>
        <time>2017-03-26T10:07:33Z</time>
      </trkpt>
      <trkpt lat="47.59235" lon="-0.4476">
        <ele>35.23</ele>
        <time>2017-03-26T10:07:34Z</time>
      </trkpt>
      <trkpt lat="47.59283" lon="-0.44817">
        <ele>34.74</ele>
        <time>2017-03-26T10:07:47Z</time>
      </trkpt>
      <trkpt lat="47.593" lon="-0.44835">
        <ele>34.74</ele>
        <time>2017-03-26T10:07:51Z</time>
      </trkpt>
      <trkpt lat="47.59303" lon="-0.44839">
        <ele>34.74</ele>
        <time>2017-03-26T10:07:52Z</time>
      </trkpt>
      <trkpt lat="47.59306" lon="-0.44845">
        <ele>34.74</ele>
        <time>2017-03-26T10:07:53Z</time>
      </trkpt>
      <trkpt lat="47.59306" lon="-0.44852">
        <ele>34.74</ele>
        <time>2017-03-26T10:07:54Z</time>
      </trkpt>
      <trkpt lat="47.59305" lon="-0.44859">
        <ele>35.23</ele>
        <time>2017-03-26T10:07:55Z</time>
      </trkpt>
      <trkpt lat="47.59303" lon="-0.44864">
        <ele>35.23</ele>
        <time>2017-03-26T10:07:56Z</time>
      </trkpt>
      <trkpt lat="47.59301" lon="-0.4487">
        <ele>35.71</ele>
        <time>2017-03-26T10:07:57Z</time>
      </trkpt>
      <trkpt lat="47.59298" lon="-0.44875">
        <ele>35.71</ele>
        <time>2017-03-26T10:07:58Z</time>
      </trkpt>
      <trkpt lat="47.59296" lon="-0.4488">
        <ele>36.19</ele>
        <time>2017-03-26T10:07:59Z</time>
      </trkpt>
      <trkpt lat="47.59267" lon="-0.44925">
        <ele>39.07</ele>
        <time>2017-03-26T10:08:11Z</time>
      </trkpt>
      <trkpt lat="47.59249" lon="-0.44959">
        <ele>41.95</ele>
        <time>2017-03-26T10:08:23Z</time>
      </trkpt>
      <trkpt lat="47.59244" lon="-0.44969">
        <ele>42.92</ele>
        <time>2017-03-26T10:08:27Z</time>
      </trkpt>
      <trkpt lat="47.59242" lon="-0.44971">
        <ele>43.4</ele>
        <time>2017-03-26T10:08:28Z</time>
      </trkpt>
      <trkpt lat="47.59227" lon="-0.44997">
        <ele>46.28</ele>
        <time>2017-03-26T10:08:39Z</time>
      </trkpt>
      <trkpt lat="47.59212" lon="-0.45021">
        <ele>49.65</ele>
        <time>2017-03-26T10:08:50Z</time>
      </trkpt>
      <trkpt lat="47.59193" lon="-0.45054">
        <ele>52.05</ele>
        <time>2017-03-26T10:09:05Z</time>
      </trkpt>
      <trkpt lat="47.59175" lon="-0.45088">
        <ele>54.93</ele>
        <time>2017-03-26T10:09:20Z</time>
      </trkpt>
      <trkpt lat="47.59157" lon="-0.45124">
        <ele>56.86</ele>
        <time>2017-03-26T10:09:33Z</time>
      </trkpt>
      <trkpt lat="47.59129" lon="-0.45178">
        <ele>53.97</ele>
        <time>2017-03-26T10:09:44Z</time>
      </trkpt>
      <trkpt lat="47.59123" lon="-0.45216">
        <ele>53.97</ele>
        <time>2017-03-26T10:09:52Z</time>
      </trkpt>
      <trkpt lat="47.59124" lon="-0.45276">
        <ele>53.97</ele>
        <time>2017-03-26T10:10:03Z</time>
      </trkpt>
      <trkpt lat="47.59124" lon="-0.45282">
        <ele>54.45</ele>
        <time>2017-03-26T10:10:04Z</time>
      </trkpt>
      <trkpt lat="47.59124" lon="-0.45288">
        <ele>53.97</ele>
        <time>2017-03-26T10:10:05Z</time>
      </trkpt>
      <trkpt lat="47.59132" lon="-0.45388">
        <ele>55.41</ele>
        <time>2017-03-26T10:10:21Z</time>
      </trkpt>
      <trkpt lat="47.59157" lon="-0.45427">
        <ele>56.37</ele>
        <time>2017-03-26T10:10:31Z</time>
      </trkpt>
      <trkpt lat="47.59184" lon="-0.45455">
        <ele>57.82</ele>
        <time>2017-03-26T10:10:39Z</time>
      </trkpt>
      <trkpt lat="47.59197" lon="-0.45469">
        <ele>58.78</ele>
        <time>2017-03-26T10:10:43Z</time>
      </trkpt>
      <trkpt lat="47.59201" lon="-0.45471">
        <ele>58.3</ele>
        <time>2017-03-26T10:10:44Z</time>
      </trkpt>
      <trkpt lat="47.59209" lon="-0.45474">
        <ele>58.78</ele>
        <time>2017-03-26T10:10:46Z</time>
      </trkpt>
      <trkpt lat="47.59214" lon="-0.45475">
        <ele>58.3</ele>
        <time>2017-03-26T10:10:47Z</time>
      </trkpt>
      <trkpt lat="47.59218" lon="-0.45475">
        <ele>58.78</ele>
        <time>2017-03-26T10:10:48Z</time>
      </trkpt>
      <trkpt lat="47.59258" lon="-0.45477">
        <ele>58.3</ele>
        <time>2017-03-26T10:10:56Z</time>
      </trkpt>
      <trkpt lat="47.59263" lon="-0.45478">
        <ele>58.3</ele>
        <time>2017-03-26T10:10:57Z</time>
      </trkpt>
      <trkpt lat="47.59268" lon="-0.4548">
        <ele>58.3</ele>
        <time>2017-03-26T10:10:58Z</time>
      </trkpt>
      <trkpt lat="47.59297" lon="-0.45497">
        <ele>57.34</ele>
        <time>2017-03-26T10:11:04Z</time>
      </trkpt>
      <trkpt lat="47.59301" lon="-0.455">
        <ele>56.86</ele>
        <time>2017-03-26T10:11:05Z</time>
      </trkpt>
      <trkpt lat="47.59302" lon="-0.45503">
        <ele>56.37</ele>
        <time>2017-03-26T10:11:06Z</time>
      </trkpt>
      <trkpt lat="47.59301" lon="-0.45508">
        <ele>56.86</ele>
        <time>2017-03-26T10:11:07Z</time>
      </trkpt>
      <trkpt lat="47.593" lon="-0.45513">
        <ele>56.86</ele>
        <time>2017-03-26T10:11:08Z</time>
      </trkpt>
      <trkpt lat="47.59297" lon="-0.45518">
        <ele>56.37</ele>
        <time>2017-03-26T10:11:09Z</time>
      </trkpt>
      <trkpt lat="47.59294" lon="-0.45523">
        <ele>56.37</ele>
        <time>2017-03-26T10:11:10Z</time>
      </trkpt>
      <trkpt lat="47.5929" lon="-0.45528">
        <ele>56.37</ele>
        <time>2017-03-26T10:11:11Z</time>
      </trkpt>
      <trkpt lat="47.59239" lon="-0.45601">
        <ele>54.45</ele>
        <time>2017-03-26T10:11:23Z</time>
      </trkpt>
      <trkpt lat="47.59234" lon="-0.45609">
        <ele>54.45</ele>
        <time>2017-03-26T10:11:24Z</time>
      </trkpt>
      <trkpt lat="47.59213" lon="-0.4564">
        <ele>53.49</ele>
        <time>2017-03-26T10:11:28Z</time>
      </trkpt>
      <trkpt lat="47.59211" lon="-0.45649">
        <ele>53.01</ele>
        <time>2017-03-26T10:11:29Z</time>
      </trkpt>
      <trkpt lat="47.59211" lon="-0.4566">
        <ele>53.01</ele>
        <time>2017-03-26T10:11:30Z</time>
      </trkpt>
      <trkpt lat="47.59212" lon="-0.45669">
        <ele>53.97</ele>
        <time>2017-03-26T10:11:31Z</time>
      </trkpt>
      <trkpt lat="47.59215" lon="-0.45677">
        <ele>53.97</ele>
        <time>2017-03-26T10:11:32Z</time>
      </trkpt>
      <trkpt lat="47.5922" lon="-0.45684">
        <ele>53.97</ele>
        <time>2017-03-26T10:11:33Z</time>
      </trkpt>
      <trkpt lat="47.59226" lon="-0.4569">
        <ele>53.97</ele>
        <time>2017-03-26T10:11:34Z</time>
      </trkpt>
      <trkpt lat="47.59231" lon="-0.45697">
        <ele>54.45</ele>
        <time>2017-03-26T10:11:35Z</time>
      </trkpt>
      <trkpt lat="47.59254" lon="-0.45741">
        <ele>54.45</ele>
        <time>2017-03-26T10:11:41Z</time>
      </trkpt>
      <trkpt lat="47.59258" lon="-0.45757">
        <ele>54.93</ele>
        <time>2017-03-26T10:11:43Z</time>
      </trkpt>
      <trkpt lat="47.5926" lon="-0.45765">
        <ele>54.93</ele>
        <time>2017-03-26T10:11:44Z</time>
      </trkpt>
      <trkpt lat="47.59261" lon="-0.45864">
        <ele>56.86</ele>
        <time>2017-03-26T10:11:57Z</time>
      </trkpt>
      <trkpt lat="47.5926" lon="-0.45872">
        <ele>57.34</ele>
        <time>2017-03-26T10:11:58Z</time>
      </trkpt>
      <trkpt lat="47.59259" lon="-0.45879">
        <ele>57.34</ele>
        <time>2017-03-26T10:11:59Z</time>
      </trkpt>
      <trkpt lat="47.59258" lon="-0.45885">
        <ele>57.34</ele>
        <time>2017-03-26T10:12:00Z</time>
      </trkpt>
      <trkpt lat="47.59257" lon="-0.45892">
        <ele>57.34</ele>
        <time>2017-03-26T10:12:01Z</time>
      </trkpt>
      <trkpt lat="47.5925" lon="-0.45951">
        <ele>60.22</ele>
        <time>2017-03-26T10:12:11Z</time>
      </trkpt>
      <trkpt lat="47.59237" lon="-0.46026">
        <ele>61.66</ele>
        <time>2017-03-26T10:12:25Z</time>
      </trkpt>
      <trkpt lat="47.59229" lon="-0.46096">
        <ele>63.1</ele>
        <time>2017-03-26T10:12:39Z</time>
      </trkpt>
      <trkpt lat="47.59212" lon="-0.46179">
        <ele>63.1</ele>
        <time>2017-03-26T10:12:55Z</time>
      </trkpt>
      <trkpt lat="47.59215" lon="-0.46214">
        <ele>62.62</ele>
        <time>2017-03-26T10:13:01Z</time>
      </trkpt>
      <trkpt lat="47.59216" lon="-0.4622">
        <ele>62.62</ele>
        <time>2017-03-26T10:13:02Z</time>
      </trkpt>
      <trkpt lat="47.59215" lon="-0.4627">
        <ele>63.1</ele>
        <time>2017-03-26T10:13:11Z</time>
      </trkpt>
      <trkpt lat="47.59209" lon="-0.46287">
        <ele>63.1</ele>
        <time>2017-03-26T10:13:14Z</time>
      </trkpt>
      <trkpt lat="47.59207" lon="-0.46293">
        <ele>63.1</ele>
        <time>2017-03-26T10:13:15Z</time>
      </trkpt>
      <trkpt lat="47.59171" lon="-0.46395">
        <ele>63.1</ele>
        <time>2017-03-26T10:13:33Z</time>
      </trkpt>
      <trkpt lat="47.59149" lon="-0.46435">
        <ele>64.07</ele>
        <time>2017-03-26T10:13:42Z</time>
      </trkpt>
      <trkpt lat="47.59081" lon="-0.4647">
        <ele>63.58</ele>
        <time>2017-03-26T10:13:57Z</time>
      </trkpt>
      <trkpt lat="47.59034" lon="-0.46498">
        <ele>63.1</ele>
        <time>2017-03-26T10:14:08Z</time>
      </trkpt>
      <trkpt lat="47.59026" lon="-0.46505">
        <ele>64.07</ele>
        <time>2017-03-26T10:14:10Z</time>
      </trkpt>
      <trkpt lat="47.58955" lon="-0.46594">
        <ele>65.51</ele>
        <time>2017-03-26T10:14:31Z</time>
      </trkpt>
      <trkpt lat="47.58926" lon="-0.46624">
        <ele>65.99</ele>
        <time>2017-03-26T10:14:39Z</time>
      </trkpt>
      <trkpt lat="47.58922" lon="-0.46627">
        <ele>65.99</ele>
        <time>2017-03-26T10:14:40Z</time>
      </trkpt>
      <trkpt lat="47.58918" lon="-0.46631">
        <ele>65.99</ele>
        <time>2017-03-26T10:14:41Z</time>
      </trkpt>
      <trkpt lat="47.5887" lon="-0.46669">
        <ele>65.99</ele>
        <time>2017-03-26T10:14:52Z</time>
      </trkpt>
      <trkpt lat="47.58865" lon="-0.46672">
        <ele>65.99</ele>
        <time>2017-03-26T10:14:53Z</time>
      </trkpt>
      <trkpt lat="47.58812" lon="-0.46714">
        <ele>66.47</ele>
        <time>2017-03-26T10:15:05Z</time>
      </trkpt>
      <trkpt lat="47.58808" lon="-0.46716">
        <ele>66.47</ele>
        <time>2017-03-26T10:15:06Z</time>
      </trkpt>
      <trkpt lat="47.58784" lon="-0.46728">
        <ele>65.99</ele>
        <time>2017-03-26T10:15:14Z</time>
      </trkpt>
      <trkpt lat="47.58785" lon="-0.46726">
        <ele>65.99</ele>
        <time>2017-03-26T10:15:15Z</time>
      </trkpt>
      <trkpt lat="47.58786" lon="-0.46725">
        <ele>65.99</ele>
        <time>2017-03-26T10:15:16Z</time>
      </trkpt>
      <trkpt lat="47.58819" lon="-0.46707">
        <ele>65.99</ele>
        <time>2017-03-26T10:15:26Z</time>
      </trkpt>
      <trkpt lat="47.58864" lon="-0.46673">
        <ele>65.99</ele>
        <time>2017-03-26T10:15:39Z</time>
      </trkpt>
      <trkpt lat="47.5892" lon="-0.46632">
        <ele>65.51</ele>
        <time>2017-03-26T10:15:55Z</time>
      </trkpt>
      <trkpt lat="47.58928" lon="-0.46623">
        <ele>65.51</ele>
        <time>2017-03-26T10:15:58Z</time>
      </trkpt>
      <trkpt lat="47.58919" lon="-0.46603">
        <ele>65.51</ele>
        <time>2017-03-26T10:16:03Z</time>
      </trkpt>
      <trkpt lat="47.58888" lon="-0.46558">
        <ele>64.55</ele>
        <time>2017-03-26T10:16:19Z</time>
      </trkpt>
      <trkpt lat="47.58888" lon="-0.46558">
        <ele>65.03</ele>
        <time>2017-03-26T10:16:43Z</time>
      </trkpt>
      <trkpt lat="47.5888" lon="-0.46547">
        <ele>64.55</ele>
        <time>2017-03-26T10:17:05Z</time>
      </trkpt>
      <trkpt lat="47.58847" lon="-0.46498">
        <ele>65.03</ele>
        <time>2017-03-26T10:17:17Z</time>
      </trkpt>
      <trkpt lat="47.58828" lon="-0.46471">
        <ele>65.03</ele>
        <time>2017-03-26T10:17:23Z</time>
      </trkpt>
      <trkpt lat="47.58812" lon="-0.46449">
        <ele>64.55</ele>
        <time>2017-03-26T10:17:28Z</time>
      </trkpt>
      <trkpt lat="47.58806" lon="-0.4644">
        <ele>64.07</ele>
        <time>2017-03-26T10:17:30Z</time>
      </trkpt>
      <trkpt lat="47.58796" lon="-0.46425">
        <ele>64.07</ele>
        <time>2017-03-26T10:17:33Z</time>
      </trkpt>
      <trkpt lat="47.58761" lon="-0.46362">
        <ele>64.07</ele>
        <time>2017-03-26T10:17:44Z</time>
      </trkpt>
      <trkpt lat="47.58747" lon="-0.46323">
        <ele>63.58</ele>
        <time>2017-03-26T10:17:51Z</time>
      </trkpt>
      <trkpt lat="47.58745" lon="-0.46317">
        <ele>63.58</ele>
        <time>2017-03-26T10:17:52Z</time>
      </trkpt>
      <trkpt lat="47.58744" lon="-0.46312">
        <ele>63.58</ele>
        <time>2017-03-26T10:17:53Z</time>
      </trkpt>
      <trkpt lat="47.58741" lon="-0.46308">
        <ele>63.58</ele>
        <time>2017-03-26T10:17:54Z</time>
      </trkpt>
      <trkpt lat="47.58739" lon="-0.46306">
        <ele>63.58</ele>
        <time>2017-03-26T10:17:55Z</time>
      </trkpt>
      <trkpt lat="47.58737" lon="-0.46307">
        <ele>63.58</ele>
        <time>2017-03-26T10:17:56Z</time>
      </trkpt>
      <trkpt lat="47.58735" lon="-0.46308">
        <ele>63.1</ele>
        <time>2017-03-26T10:17:57Z</time>
      </trkpt>
      <trkpt lat="47.58734" lon="-0.46311">
        <ele>63.1</ele>
        <time>2017-03-26T10:17:58Z</time>
      </trkpt>
      <trkpt lat="47.58732" lon="-0.46314">
        <ele>63.1</ele>
        <time>2017-03-26T10:17:59Z</time>
      </trkpt>
      <trkpt lat="47.58703" lon="-0.46358">
        <ele>64.07</ele>
        <time>2017-03-26T10:18:09Z</time>
      </trkpt>
      <trkpt lat="47.58668" lon="-0.46413">
        <ele>63.58</ele>
        <time>2017-03-26T10:18:21Z</time>
      </trkpt>
      <trkpt lat="47.58666" lon="-0.46425">
        <ele>63.58</ele>
        <time>2017-03-26T10:18:23Z</time>
      </trkpt>
      <trkpt lat="47.58666" lon="-0.46431">
        <ele>63.58</ele>
        <time>2017-03-26T10:18:24Z</time>
      </trkpt>
      <trkpt lat="47.58668" lon="-0.46438">
        <ele>63.58</ele>
        <time>2017-03-26T10:18:25Z</time>
      </trkpt>
      <trkpt lat="47.58677" lon="-0.46487">
        <ele>63.58</ele>
        <time>2017-03-26T10:18:33Z</time>
      </trkpt>
      <trkpt lat="47.58681" lon="-0.46587">
        <ele>64.55</ele>
        <time>2017-03-26T10:18:49Z</time>
      </trkpt>
      <trkpt lat="47.58681" lon="-0.46593">
        <ele>64.07</ele>
        <time>2017-03-26T10:18:50Z</time>
      </trkpt>
      <trkpt lat="47.58682" lon="-0.46599">
        <ele>64.55</ele>
        <time>2017-03-26T10:18:51Z</time>
      </trkpt>
      <trkpt lat="47.58688" lon="-0.46682">
        <ele>64.55</ele>
        <time>2017-03-26T10:19:05Z</time>
      </trkpt>
      <trkpt lat="47.58689" lon="-0.4675">
        <ele>64.55</ele>
        <time>2017-03-26T10:19:16Z</time>
      </trkpt>
      <trkpt lat="47.58686" lon="-0.46754">
        <ele>64.55</ele>
        <time>2017-03-26T10:19:17Z</time>
      </trkpt>
      <trkpt lat="47.58682" lon="-0.46756">
        <ele>64.07</ele>
        <time>2017-03-26T10:19:18Z</time>
      </trkpt>
      <trkpt lat="47.58678" lon="-0.46758">
        <ele>64.07</ele>
        <time>2017-03-26T10:19:19Z</time>
      </trkpt>
      <trkpt lat="47.58674" lon="-0.4676">
        <ele>64.55</ele>
        <time>2017-03-26T10:19:20Z</time>
      </trkpt>
      <trkpt lat="47.58656" lon="-0.46765">
        <ele>64.07</ele>
        <time>2017-03-26T10:19:24Z</time>
      </trkpt>
      <trkpt lat="47.58589" lon="-0.46798">
        <ele>63.58</ele>
        <time>2017-03-26T10:19:38Z</time>
      </trkpt>
      <trkpt lat="47.58584" lon="-0.46802">
        <ele>64.07</ele>
        <time>2017-03-26T10:19:39Z</time>
      </trkpt>
      <trkpt lat="47.58527" lon="-0.46879">
        <ele>64.07</ele>
        <time>2017-03-26T10:19:54Z</time>
      </trkpt>
      <trkpt lat="47.58444" lon="-0.4693">
        <ele>64.07</ele>
        <time>2017-03-26T10:20:11Z</time>
      </trkpt>
      <trkpt lat="47.58423" lon="-0.4694">
        <ele>63.58</ele>
        <time>2017-03-26T10:20:15Z</time>
      </trkpt>
      <trkpt lat="47.58418" lon="-0.46944">
        <ele>64.07</ele>
        <time>2017-03-26T10:20:16Z</time>
      </trkpt>
      <trkpt lat="47.58398" lon="-0.46956">
        <ele>64.07</ele>
        <time>2017-03-26T10:20:20Z</time>
      </trkpt>
      <trkpt lat="47.58394" lon="-0.46961">
        <ele>64.07</ele>
        <time>2017-03-26T10:20:21Z</time>
      </trkpt>
      <trkpt lat="47.5839" lon="-0.46967">
        <ele>63.58</ele>
        <time>2017-03-26T10:20:22Z</time>
      </trkpt>
      <trkpt lat="47.58387" lon="-0.46974">
        <ele>63.1</ele>
        <time>2017-03-26T10:20:23Z</time>
      </trkpt>
      <trkpt lat="47.58385" lon="-0.46981">
        <ele>63.58</ele>
        <time>2017-03-26T10:20:24Z</time>
      </trkpt>
      <trkpt lat="47.58384" lon="-0.46989">
        <ele>63.1</ele>
        <time>2017-03-26T10:20:25Z</time>
      </trkpt>
      <trkpt lat="47.58383" lon="-0.46997">
        <ele>63.58</ele>
        <time>2017-03-26T10:20:26Z</time>
      </trkpt>
      <trkpt lat="47.58373" lon="-0.47064">
        <ele>63.58</ele>
        <time>2017-03-26T10:20:35Z</time>
      </trkpt>
      <trkpt lat="47.58371" lon="-0.47071">
        <ele>64.07</ele>
        <time>2017-03-26T10:20:36Z</time>
      </trkpt>
      <trkpt lat="47.58368" lon="-0.47077">
        <ele>63.58</ele>
        <time>2017-03-26T10:20:37Z</time>
      </trkpt>
      <trkpt lat="47.58362" lon="-0.47089">
        <ele>63.58</ele>
        <time>2017-03-26T10:20:39Z</time>
      </trkpt>
      <trkpt lat="47.58358" lon="-0.47095">
        <ele>64.07</ele>
        <time>2017-03-26T10:20:40Z</time>
      </trkpt>
      <trkpt lat="47.58286" lon="-0.47175">
        <ele>63.58</ele>
        <time>2017-03-26T10:20:57Z</time>
      </trkpt>
      <trkpt lat="47.58222" lon="-0.47202">
        <ele>62.62</ele>
        <time>2017-03-26T10:21:10Z</time>
      </trkpt>
      <trkpt lat="47.58153" lon="-0.47254">
        <ele>61.66</ele>
        <time>2017-03-26T10:21:25Z</time>
      </trkpt>
      <trkpt lat="47.58047" lon="-0.4734">
        <ele>59.74</ele>
        <time>2017-03-26T10:21:44Z</time>
      </trkpt>
      <trkpt lat="47.58017" lon="-0.47362">
        <ele>59.26</ele>
        <time>2017-03-26T10:21:49Z</time>
      </trkpt>
      <trkpt lat="47.58012" lon="-0.47369">
        <ele>58.78</ele>
        <time>2017-03-26T10:21:50Z</time>
      </trkpt>
      <trkpt lat="47.58008" lon="-0.47376">
        <ele>58.78</ele>
        <time>2017-03-26T10:21:51Z</time>
      </trkpt>
      <trkpt lat="47.58004" lon="-0.47384">
        <ele>58.78</ele>
        <time>2017-03-26T10:21:52Z</time>
      </trkpt>
      <trkpt lat="47.58" lon="-0.47392">
        <ele>58.78</ele>
        <time>2017-03-26T10:21:53Z</time>
      </trkpt>
      <trkpt lat="47.57997" lon="-0.47401">
        <ele>58.3</ele>
        <time>2017-03-26T10:21:54Z</time>
      </trkpt>
      <trkpt lat="47.57994" lon="-0.4741">
        <ele>58.3</ele>
        <time>2017-03-26T10:21:55Z</time>
      </trkpt>
      <trkpt lat="47.57934" lon="-0.47516">
        <ele>57.82</ele>
        <time>2017-03-26T10:22:10Z</time>
      </trkpt>
      <trkpt lat="47.57892" lon="-0.47573">
        <ele>57.82</ele>
        <time>2017-03-26T10:22:20Z</time>
      </trkpt>
      <trkpt lat="47.57889" lon="-0.4758">
        <ele>57.82</ele>
        <time>2017-03-26T10:22:21Z</time>
      </trkpt>
      <trkpt lat="47.57887" lon="-0.47587">
        <ele>57.82</ele>
        <time>2017-03-26T10:22:22Z</time>
      </trkpt>
      <trkpt lat="47.57885" lon="-0.47595">
        <ele>57.34</ele>
        <time>2017-03-26T10:22:23Z</time>
      </trkpt>
      <trkpt lat="47.57883" lon="-0.47603">
        <ele>57.82</ele>
        <time>2017-03-26T10:22:24Z</time>
      </trkpt>
      <trkpt lat="47.57869" lon="-0.47671">
        <ele>57.82</ele>
        <time>2017-03-26T10:22:33Z</time>
      </trkpt>
      <trkpt lat="47.57869" lon="-0.47678">
        <ele>57.82</ele>
        <time>2017-03-26T10:22:34Z</time>
      </trkpt>
      <trkpt lat="47.5787" lon="-0.47685">
        <ele>58.3</ele>
        <time>2017-03-26T10:22:35Z</time>
      </trkpt>
      <trkpt lat="47.57873" lon="-0.4769">
        <ele>58.3</ele>
        <time>2017-03-26T10:22:36Z</time>
      </trkpt>
      <trkpt lat="47.57877" lon="-0.47695">
        <ele>58.3</ele>
        <time>2017-03-26T10:22:37Z</time>
      </trkpt>
      <trkpt lat="47.57881" lon="-0.47697">
        <ele>58.3</ele>
        <time>2017-03-26T10:22:38Z</time>
      </trkpt>
      <trkpt lat="47.57886" lon="-0.47699">
        <ele>58.3</ele>
        <time>2017-03-26T10:22:39Z</time>
      </trkpt>
      <trkpt lat="47.5794" lon="-0.47718">
        <ele>58.78</ele>
        <time>2017-03-26T10:22:50Z</time>
      </trkpt>
      <trkpt lat="47.57944" lon="-0.47722">
        <ele>59.26</ele>
        <time>2017-03-26T10:22:51Z</time>
      </trkpt>
      <trkpt lat="47.57947" lon="-0.47727">
        <ele>58.3</ele>
        <time>2017-03-26T10:22:52Z</time>
      </trkpt>
      <trkpt lat="47.57947" lon="-0.47734">
        <ele>58.78</ele>
        <time>2017-03-26T10:22:53Z</time>
      </trkpt>
      <trkpt lat="47.57947" lon="-0.47741">
        <ele>58.78</ele>
        <time>2017-03-26T10:22:54Z</time>
      </trkpt>
      <trkpt lat="47.57946" lon="-0.47748">
        <ele>58.78</ele>
        <time>2017-03-26T10:22:55Z</time>
      </trkpt>
      <trkpt lat="47.57945" lon="-0.47755">
        <ele>58.78</ele>
        <time>2017-03-26T10:22:56Z</time>
      </trkpt>
      <trkpt lat="47.57943" lon="-0.47824">
        <ele>56.86</ele>
        <time>2017-03-26T10:23:04Z</time>
      </trkpt>
      <trkpt lat="47.5795" lon="-0.47905">
        <ele>52.05</ele>
        <time>2017-03-26T10:23:10Z</time>
      </trkpt>
      <trkpt lat="47.57954" lon="-0.4792">
        <ele>51.09</ele>
        <time>2017-03-26T10:23:11Z</time>
      </trkpt>
      <trkpt lat="47.57962" lon="-0.4795">
        <ele>50.61</ele>
        <time>2017-03-26T10:23:13Z</time>
      </trkpt>
      <trkpt lat="47.57979" lon="-0.48009">
        <ele>47.24</ele>
        <time>2017-03-26T10:23:17Z</time>
      </trkpt>
      <trkpt lat="47.57982" lon="-0.48023">
        <ele>47.24</ele>
        <time>2017-03-26T10:23:18Z</time>
      </trkpt>
      <trkpt lat="47.57989" lon="-0.48068">
        <ele>46.28</ele>
        <time>2017-03-26T10:23:21Z</time>
      </trkpt>
      <trkpt lat="47.57989" lon="-0.48083">
        <ele>45.32</ele>
        <time>2017-03-26T10:23:22Z</time>
      </trkpt>
      <trkpt lat="47.57988" lon="-0.48097">
        <ele>45.8</ele>
        <time>2017-03-26T10:23:23Z</time>
      </trkpt>
      <trkpt lat="47.57977" lon="-0.48176">
        <ele>44.36</ele>
        <time>2017-03-26T10:23:29Z</time>
      </trkpt>
      <trkpt lat="47.57974" lon="-0.48187">
        <ele>43.88</ele>
        <time>2017-03-26T10:23:30Z</time>
      </trkpt>
      <trkpt lat="47.57969" lon="-0.48197">
        <ele>44.36</ele>
        <time>2017-03-26T10:23:31Z</time>
      </trkpt>
      <trkpt lat="47.57964" lon="-0.48204">
        <ele>43.88</ele>
        <time>2017-03-26T10:23:32Z</time>
      </trkpt>
      <trkpt lat="47.57957" lon="-0.48209">
        <ele>43.88</ele>
        <time>2017-03-26T10:23:33Z</time>
      </trkpt>
      <trkpt lat="47.57949" lon="-0.48213">
        <ele>43.88</ele>
        <time>2017-03-26T10:23:34Z</time>
      </trkpt>
      <trkpt lat="47.57907" lon="-0.48234">
        <ele>43.88</ele>
        <time>2017-03-26T10:23:40Z</time>
      </trkpt>
      <trkpt lat="47.57903" lon="-0.48241">
        <ele>43.88</ele>
        <time>2017-03-26T10:23:41Z</time>
      </trkpt>
      <trkpt lat="47.579" lon="-0.48249">
        <ele>43.88</ele>
        <time>2017-03-26T10:23:42Z</time>
      </trkpt>
      <trkpt lat="47.57898" lon="-0.48257">
        <ele>44.36</ele>
        <time>2017-03-26T10:23:43Z</time>
      </trkpt>
      <trkpt lat="47.57899" lon="-0.48265">
        <ele>45.32</ele>
        <time>2017-03-26T10:23:44Z</time>
      </trkpt>
      <trkpt lat="47.57899" lon="-0.48273">
        <ele>45.32</ele>
        <time>2017-03-26T10:23:45Z</time>
      </trkpt>
      <trkpt lat="47.579" lon="-0.48289">
        <ele>45.8</ele>
        <time>2017-03-26T10:23:47Z</time>
      </trkpt>
      <trkpt lat="47.579" lon="-0.48299">
        <ele>45.32</ele>
        <time>2017-03-26T10:23:48Z</time>
      </trkpt>
      <trkpt lat="47.57898" lon="-0.48308">
        <ele>45.32</ele>
        <time>2017-03-26T10:23:49Z</time>
      </trkpt>
      <trkpt lat="47.57895" lon="-0.48317">
        <ele>44.84</ele>
        <time>2017-03-26T10:23:50Z</time>
      </trkpt>
      <trkpt lat="47.57891" lon="-0.48325">
        <ele>44.84</ele>
        <time>2017-03-26T10:23:51Z</time>
      </trkpt>
      <trkpt lat="47.57887" lon="-0.48333">
        <ele>44.36</ele>
        <time>2017-03-26T10:23:52Z</time>
      </trkpt>
      <trkpt lat="47.57852" lon="-0.48395">
        <ele>44.36</ele>
        <time>2017-03-26T10:24:00Z</time>
      </trkpt>
      <trkpt lat="47.5785" lon="-0.48403">
        <ele>43.88</ele>
        <time>2017-03-26T10:24:01Z</time>
      </trkpt>
      <trkpt lat="47.57848" lon="-0.48411">
        <ele>44.36</ele>
        <time>2017-03-26T10:24:02Z</time>
      </trkpt>
      <trkpt lat="47.57847" lon="-0.48419">
        <ele>44.84</ele>
        <time>2017-03-26T10:24:03Z</time>
      </trkpt>
      <trkpt lat="47.57848" lon="-0.48426">
        <ele>44.84</ele>
        <time>2017-03-26T10:24:04Z</time>
      </trkpt>
      <trkpt lat="47.57849" lon="-0.48433">
        <ele>45.32</ele>
        <time>2017-03-26T10:24:05Z</time>
      </trkpt>
      <trkpt lat="47.57851" lon="-0.4844">
        <ele>45.32</ele>
        <time>2017-03-26T10:24:06Z</time>
      </trkpt>
      <trkpt lat="47.57853" lon="-0.48447">
        <ele>45.32</ele>
        <time>2017-03-26T10:24:07Z</time>
      </trkpt>
      <trkpt lat="47.57859" lon="-0.48493">
        <ele>46.76</ele>
        <time>2017-03-26T10:24:14Z</time>
      </trkpt>
      <trkpt lat="47.57862" lon="-0.48498">
        <ele>46.76</ele>
        <time>2017-03-26T10:24:15Z</time>
      </trkpt>
      <trkpt lat="47.57865" lon="-0.48501">
        <ele>46.76</ele>
        <time>2017-03-26T10:24:16Z</time>
      </trkpt>
      <trkpt lat="47.57868" lon="-0.48502">
        <ele>46.76</ele>
        <time>2017-03-26T10:24:17Z</time>
      </trkpt>
      <trkpt lat="47.57872" lon="-0.48502">
        <ele>46.76</ele>
        <time>2017-03-26T10:24:18Z</time>
      </trkpt>
      <trkpt lat="47.57875" lon="-0.485">
        <ele>46.76</ele>
        <time>2017-03-26T10:24:19Z</time>
      </trkpt>
      <trkpt lat="47.57879" lon="-0.48498">
        <ele>46.76</ele>
        <time>2017-03-26T10:24:20Z</time>
      </trkpt>
      <trkpt lat="47.57893" lon="-0.48494">
        <ele>47.24</ele>
        <time>2017-03-26T10:24:23Z</time>
      </trkpt>
      <trkpt lat="47.57898" lon="-0.48494">
        <ele>47.72</ele>
        <time>2017-03-26T10:24:24Z</time>
      </trkpt>
      <trkpt lat="47.57976" lon="-0.48485">
        <ele>50.13</ele>
        <time>2017-03-26T10:24:42Z</time>
      </trkpt>
      <trkpt lat="47.58034" lon="-0.48477">
        <ele>52.53</ele>
        <time>2017-03-26T10:24:57Z</time>
      </trkpt>
      <trkpt lat="47.58084" lon="-0.48462">
        <ele>53.49</ele>
        <time>2017-03-26T10:25:11Z</time>
      </trkpt>
      <trkpt lat="47.58143" lon="-0.48435">
        <ele>54.93</ele>
        <time>2017-03-26T10:25:27Z</time>
      </trkpt>
      <trkpt lat="47.58155" lon="-0.48429">
        <ele>54.45</ele>
        <time>2017-03-26T10:25:30Z</time>
      </trkpt>
      <trkpt lat="47.58167" lon="-0.48429">
        <ele>54.45</ele>
        <time>2017-03-26T10:25:33Z</time>
      </trkpt>
      <trkpt lat="47.5817" lon="-0.48432">
        <ele>54.45</ele>
        <time>2017-03-26T10:25:34Z</time>
      </trkpt>
      <trkpt lat="47.58171" lon="-0.48437">
        <ele>53.97</ele>
        <time>2017-03-26T10:25:35Z</time>
      </trkpt>
      <trkpt lat="47.58171" lon="-0.48441">
        <ele>54.45</ele>
        <time>2017-03-26T10:25:36Z</time>
      </trkpt>
      <trkpt lat="47.58171" lon="-0.48446">
        <ele>54.45</ele>
        <time>2017-03-26T10:25:37Z</time>
      </trkpt>
      <trkpt lat="47.58169" lon="-0.48451">
        <ele>53.97</ele>
        <time>2017-03-26T10:25:38Z</time>
      </trkpt>
      <trkpt lat="47.58168" lon="-0.48456">
        <ele>54.45</ele>
        <time>2017-03-26T10:25:39Z</time>
      </trkpt>
      <trkpt lat="47.58167" lon="-0.48461">
        <ele>54.45</ele>
        <time>2017-03-26T10:25:40Z</time>
      </trkpt>
      <trkpt lat="47.58162" lon="-0.48517">
        <ele>55.89</ele>
        <time>2017-03-26T10:25:52Z</time>
      </trkpt>
      <trkpt lat="47.58153" lon="-0.4857">
        <ele>57.34</ele>
        <time>2017-03-26T10:26:06Z</time>
      </trkpt>
      <trkpt lat="47.58134" lon="-0.48613">
        <ele>58.78</ele>
        <time>2017-03-26T10:26:18Z</time>
      </trkpt>
      <trkpt lat="47.58131" lon="-0.48621">
        <ele>58.3</ele>
        <time>2017-03-26T10:26:20Z</time>
      </trkpt>
      <trkpt lat="47.58132" lon="-0.4863">
        <ele>58.3</ele>
        <time>2017-03-26T10:26:22Z</time>
      </trkpt>
      <trkpt lat="47.58133" lon="-0.48635">
        <ele>58.3</ele>
        <time>2017-03-26T10:26:23Z</time>
      </trkpt>
      <trkpt lat="47.58135" lon="-0.4864">
        <ele>58.78</ele>
        <time>2017-03-26T10:26:24Z</time>
      </trkpt>
      <trkpt lat="47.58158" lon="-0.48717">
        <ele>59.26</ele>
        <time>2017-03-26T10:26:40Z</time>
      </trkpt>
      <trkpt lat="47.58183" lon="-0.48806">
        <ele>59.26</ele>
        <time>2017-03-26T10:26:58Z</time>
      </trkpt>
      <trkpt lat="47.58183" lon="-0.48835">
        <ele>58.78</ele>
        <time>2017-03-26T10:27:07Z</time>
      </trkpt>
      <trkpt lat="47.58183" lon="-0.48832">
        <ele>57.82</ele>
        <time>2017-03-26T10:27:20Z</time>
      </trkpt>
      <trkpt lat="47.58184" lon="-0.48829">
        <ele>58.78</ele>
        <time>2017-03-26T10:27:44Z</time>
      </trkpt>
      <trkpt lat="47.58183" lon="-0.48836">
        <ele>58.78</ele>
        <time>2017-03-26T10:27:47Z</time>
      </trkpt>
      <trkpt lat="47.58185" lon="-0.48838">
        <ele>58.78</ele>
        <time>2017-03-26T10:27:48Z</time>
      </trkpt>
      <trkpt lat="47.58186" lon="-0.48841">
        <ele>57.82</ele>
        <time>2017-03-26T10:27:49Z</time>
      </trkpt>
      <trkpt lat="47.58187" lon="-0.48844">
        <ele>57.82</ele>
        <time>2017-03-26T10:27:50Z</time>
      </trkpt>
      <trkpt lat="47.58188" lon="-0.48847">
        <ele>57.82</ele>
        <time>2017-03-26T10:27:51Z</time>
      </trkpt>
      <trkpt lat="47.58189" lon="-0.4885">
        <ele>57.82</ele>
        <time>2017-03-26T10:27:52Z</time>
      </trkpt>
      <trkpt lat="47.58191" lon="-0.48852">
        <ele>56.86</ele>
        <time>2017-03-26T10:27:53Z</time>
      </trkpt>
      <trkpt lat="47.58193" lon="-0.48856">
        <ele>57.34</ele>
        <time>2017-03-26T10:27:54Z</time>
      </trkpt>
      <trkpt lat="47.58194" lon="-0.48859">
        <ele>56.86</ele>
        <time>2017-03-26T10:27:55Z</time>
      </trkpt>
      <trkpt lat="47.58195" lon="-0.48862">
        <ele>56.86</ele>
        <time>2017-03-26T10:27:56Z</time>
      </trkpt>
      <trkpt lat="47.58214" lon="-0.48918">
        <ele>53.97</ele>
        <time>2017-03-26T10:28:09Z</time>
      </trkpt>
      <trkpt lat="47.58234" lon="-0.48971">
        <ele>52.05</ele>
        <time>2017-03-26T10:28:20Z</time>
      </trkpt>
      <trkpt lat="47.58248" lon="-0.49017">
        <ele>50.13</ele>
        <time>2017-03-26T10:28:29Z</time>
      </trkpt>
      <trkpt lat="47.58274" lon="-0.49081">
        <ele>46.76</ele>
        <time>2017-03-26T10:28:42Z</time>
      </trkpt>
      <trkpt lat="47.58287" lon="-0.49135">
        <ele>45.32</ele>
        <time>2017-03-26T10:28:54Z</time>
      </trkpt>
      <trkpt lat="47.58293" lon="-0.49213">
        <ele>42.92</ele>
        <time>2017-03-26T10:29:08Z</time>
      </trkpt>
      <trkpt lat="47.58299" lon="-0.49267">
        <ele>40.99</ele>
        <time>2017-03-26T10:29:20Z</time>
      </trkpt>
      <trkpt lat="47.58308" lon="-0.49299">
        <ele>40.03</ele>
        <time>2017-03-26T10:29:26Z</time>
      </trkpt>
      <trkpt lat="47.58327" lon="-0.49358">
        <ele>37.15</ele>
        <time>2017-03-26T10:29:37Z</time>
      </trkpt>
      <trkpt lat="47.5834" lon="-0.49398">
        <ele>35.71</ele>
        <time>2017-03-26T10:29:42Z</time>
      </trkpt>
      <trkpt lat="47.58366" lon="-0.49494">
        <ele>31.86</ele>
        <time>2017-03-26T10:29:50Z</time>
      </trkpt>
      <trkpt lat="47.58386" lon="-0.49579">
        <ele>28.5</ele>
        <time>2017-03-26T10:29:56Z</time>
      </trkpt>
      <trkpt lat="47.5841" lon="-0.49677">
        <ele>25.61</ele>
        <time>2017-03-26T10:30:04Z</time>
      </trkpt>
      <trkpt lat="47.58411" lon="-0.49689">
        <ele>24.65</ele>
        <time>2017-03-26T10:30:08Z</time>
      </trkpt>
      <trkpt lat="47.58414" lon="-0.49693">
        <ele>25.13</ele>
        <time>2017-03-26T10:30:18Z</time>
      </trkpt>
      <trkpt lat="47.58425" lon="-0.49718">
        <ele>24.65</ele>
        <time>2017-03-26T10:30:23Z</time>
      </trkpt>
      <trkpt lat="47.58453" lon="-0.4981">
        <ele>23.69</ele>
        <time>2017-03-26T10:30:33Z</time>
      </trkpt>
      <trkpt lat="47.58454" lon="-0.4982">
        <ele>23.69</ele>
        <time>2017-03-26T10:30:34Z</time>
      </trkpt>
      <trkpt lat="47.58454" lon="-0.4984">
        <ele>23.69</ele>
        <time>2017-03-26T10:30:36Z</time>
      </trkpt>
      <trkpt lat="47.58452" lon="-0.4985">
        <ele>23.69</ele>
        <time>2017-03-26T10:30:37Z</time>
      </trkpt>
      <trkpt lat="47.58449" lon="-0.49858">
        <ele>24.17</ele>
        <time>2017-03-26T10:30:38Z</time>
      </trkpt>
      <trkpt lat="47.58443" lon="-0.49865">
        <ele>24.17</ele>
        <time>2017-03-26T10:30:39Z</time>
      </trkpt>
      <trkpt lat="47.58438" lon="-0.49869">
        <ele>24.17</ele>
        <time>2017-03-26T10:30:40Z</time>
      </trkpt>
      <trkpt lat="47.58432" lon="-0.49874">
        <ele>23.69</ele>
        <time>2017-03-26T10:30:41Z</time>
      </trkpt>
      <trkpt lat="47.58426" lon="-0.49879">
        <ele>23.69</ele>
        <time>2017-03-26T10:30:42Z</time>
      </trkpt>
      <trkpt lat="47.5842" lon="-0.49883">
        <ele>23.69</ele>
        <time>2017-03-26T10:30:43Z</time>
      </trkpt>
      <trkpt lat="47.58326" lon="-0.49956">
        <ele>22.73</ele>
        <time>2017-03-26T10:30:59Z</time>
      </trkpt>
      <trkpt lat="47.58321" lon="-0.4996">
        <ele>22.73</ele>
        <time>2017-03-26T10:31:00Z</time>
      </trkpt>
      <trkpt lat="47.58236" lon="-0.49995">
        <ele>22.73</ele>
        <time>2017-03-26T10:31:14Z</time>
      </trkpt>
      <trkpt lat="47.58119" lon="-0.5004">
        <ele>22.25</ele>
        <time>2017-03-26T10:31:33Z</time>
      </trkpt>
      <trkpt lat="47.58102" lon="-0.50046">
        <ele>22.73</ele>
        <time>2017-03-26T10:31:36Z</time>
      </trkpt>
      <trkpt lat="47.58091" lon="-0.50051">
        <ele>22.25</ele>
        <time>2017-03-26T10:31:38Z</time>
      </trkpt>
      <trkpt lat="47.58008" lon="-0.50083">
        <ele>21.77</ele>
        <time>2017-03-26T10:31:52Z</time>
      </trkpt>
      <trkpt lat="47.57902" lon="-0.50135">
        <ele>21.77</ele>
        <time>2017-03-26T10:32:11Z</time>
      </trkpt>
      <trkpt lat="47.57892" lon="-0.50139">
        <ele>22.25</ele>
        <time>2017-03-26T10:32:13Z</time>
      </trkpt>
      <trkpt lat="47.57829" lon="-0.5017">
        <ele>21.77</ele>
        <time>2017-03-26T10:32:25Z</time>
      </trkpt>
      <trkpt lat="47.57824" lon="-0.50173">
        <ele>21.77</ele>
        <time>2017-03-26T10:32:26Z</time>
      </trkpt>
      <trkpt lat="47.57819" lon="-0.50175">
        <ele>21.29</ele>
        <time>2017-03-26T10:32:27Z</time>
      </trkpt>
      <trkpt lat="47.57726" lon="-0.50211">
        <ele>21.77</ele>
        <time>2017-03-26T10:32:45Z</time>
      </trkpt>
      <trkpt lat="47.57711" lon="-0.50217">
        <ele>22.25</ele>
        <time>2017-03-26T10:32:48Z</time>
      </trkpt>
      <trkpt lat="47.57676" lon="-0.50227">
        <ele>21.77</ele>
        <time>2017-03-26T10:32:55Z</time>
      </trkpt>
      <trkpt lat="47.57671" lon="-0.50229">
        <ele>22.73</ele>
        <time>2017-03-26T10:32:56Z</time>
      </trkpt>
      <trkpt lat="47.57604" lon="-0.50249">
        <ele>22.25</ele>
        <time>2017-03-26T10:33:10Z</time>
      </trkpt>
      <trkpt lat="47.57584" lon="-0.50255">
        <ele>23.21</ele>
        <time>2017-03-26T10:33:14Z</time>
      </trkpt>
      <trkpt lat="47.57504" lon="-0.50273">
        <ele>22.73</ele>
        <time>2017-03-26T10:33:29Z</time>
      </trkpt>
      <trkpt lat="47.57433" lon="-0.50302">
        <ele>22.73</ele>
        <time>2017-03-26T10:33:42Z</time>
      </trkpt>
      <trkpt lat="47.57403" lon="-0.50318">
        <ele>22.73</ele>
        <time>2017-03-26T10:33:48Z</time>
      </trkpt>
      <trkpt lat="47.57398" lon="-0.50322">
        <ele>22.73</ele>
        <time>2017-03-26T10:33:49Z</time>
      </trkpt>
      <trkpt lat="47.57332" lon="-0.50363">
        <ele>21.77</ele>
        <time>2017-03-26T10:34:02Z</time>
      </trkpt>
      <trkpt lat="47.57318" lon="-0.50371">
        <ele>22.25</ele>
        <time>2017-03-26T10:34:05Z</time>
      </trkpt>
      <trkpt lat="47.57314" lon="-0.50371">
        <ele>21.77</ele>
        <time>2017-03-26T10:34:06Z</time>
      </trkpt>
      <trkpt lat="47.5731" lon="-0.50369">
        <ele>21.77</ele>
        <time>2017-03-26T10:34:07Z</time>
      </trkpt>
      <trkpt lat="47.57304" lon="-0.50351">
        <ele>23.69</ele>
        <time>2017-03-26T10:34:12Z</time>
      </trkpt>
      <trkpt lat="47.57303" lon="-0.50335">
        <ele>26.57</ele>
        <time>2017-03-26T10:34:24Z</time>
      </trkpt>
      <trkpt lat="47.573" lon="-0.5033">
        <ele>26.57</ele>
        <time>2017-03-26T10:34:30Z</time>
      </trkpt>
      <trkpt lat="47.57296" lon="-0.50328">
        <ele>26.57</ele>
        <time>2017-03-26T10:34:32Z</time>
      </trkpt>
      <trkpt lat="47.57294" lon="-0.50329">
        <ele>26.09</ele>
        <time>2017-03-26T10:34:33Z</time>
      </trkpt>
      <trkpt lat="47.57292" lon="-0.5033">
        <ele>26.57</ele>
        <time>2017-03-26T10:34:34Z</time>
      </trkpt>
      <trkpt lat="47.5729" lon="-0.50332">
        <ele>26.57</ele>
        <time>2017-03-26T10:34:35Z</time>
      </trkpt>
      <trkpt lat="47.57266" lon="-0.50346">
        <ele>26.09</ele>
        <time>2017-03-26T10:34:45Z</time>
      </trkpt>
      <trkpt lat="47.57265" lon="-0.50344">
        <ele>26.09</ele>
        <time>2017-03-26T10:34:46Z</time>
      </trkpt>
      <trkpt lat="47.57263" lon="-0.50342">
        <ele>26.09</ele>
        <time>2017-03-26T10:34:47Z</time>
      </trkpt>
      <trkpt lat="47.57262" lon="-0.5034">
        <ele>26.57</ele>
        <time>2017-03-26T10:34:48Z</time>
      </trkpt>
      <trkpt lat="47.5726" lon="-0.50339">
        <ele>26.09</ele>
        <time>2017-03-26T10:34:49Z</time>
      </trkpt>
      <trkpt lat="47.57259" lon="-0.50339">
        <ele>26.57</ele>
        <time>2017-03-26T10:34:50Z</time>
      </trkpt>
      <trkpt lat="47.5723" lon="-0.5034">
        <ele>29.94</ele>
        <time>2017-03-26T10:35:04Z</time>
      </trkpt>
      <trkpt lat="47.57229" lon="-0.50338">
        <ele>29.94</ele>
        <time>2017-03-26T10:35:05Z</time>
      </trkpt>
      <trkpt lat="47.57221" lon="-0.50334">
        <ele>31.86</ele>
        <time>2017-03-26T10:35:11Z</time>
      </trkpt>
      <trkpt lat="47.57206" lon="-0.50332">
        <ele>34.26</ele>
        <time>2017-03-26T10:35:23Z</time>
      </trkpt>
      <trkpt lat="47.57195" lon="-0.50326">
        <ele>37.15</ele>
        <time>2017-03-26T10:35:34Z</time>
      </trkpt>
      <trkpt lat="47.57194" lon="-0.50316">
        <ele>39.07</ele>
        <time>2017-03-26T10:35:44Z</time>
      </trkpt>
      <trkpt lat="47.57193" lon="-0.5031">
        <ele>41.47</ele>
        <time>2017-03-26T10:35:58Z</time>
      </trkpt>
      <trkpt lat="47.57191" lon="-0.50303">
        <ele>41.95</ele>
        <time>2017-03-26T10:36:15Z</time>
      </trkpt>
      <trkpt lat="47.57188" lon="-0.50295">
        <ele>42.92</ele>
        <time>2017-03-26T10:36:25Z</time>
      </trkpt>
      <trkpt lat="47.57187" lon="-0.50289">
        <ele>43.4</ele>
        <time>2017-03-26T10:36:30Z</time>
      </trkpt>
      <trkpt lat="47.5718" lon="-0.50271">
        <ele>44.36</ele>
        <time>2017-03-26T10:36:43Z</time>
      </trkpt>
      <trkpt lat="47.57161" lon="-0.50278">
        <ele>44.36</ele>
        <time>2017-03-26T10:36:54Z</time>
      </trkpt>
      <trkpt lat="47.5713" lon="-0.50295">
        <ele>45.32</ele>
        <time>2017-03-26T10:37:09Z</time>
      </trkpt>
      <trkpt lat="47.57092" lon="-0.50283">
        <ele>45.32</ele>
        <time>2017-03-26T10:37:22Z</time>
      </trkpt>
      <trkpt lat="47.57032" lon="-0.50255">
        <ele>41.95</ele>
        <time>2017-03-26T10:37:34Z</time>
      </trkpt>
      <trkpt lat="47.57027" lon="-0.50256">
        <ele>40.99</ele>
        <time>2017-03-26T10:37:35Z</time>
      </trkpt>
      <trkpt lat="47.57022" lon="-0.50257">
        <ele>40.99</ele>
        <time>2017-03-26T10:37:36Z</time>
      </trkpt>
      <trkpt lat="47.57017" lon="-0.50259">
        <ele>40.51</ele>
        <time>2017-03-26T10:37:37Z</time>
      </trkpt>
      <trkpt lat="47.57013" lon="-0.50262">
        <ele>40.03</ele>
        <time>2017-03-26T10:37:38Z</time>
      </trkpt>
      <trkpt lat="47.57009" lon="-0.50265">
        <ele>40.03</ele>
        <time>2017-03-26T10:37:39Z</time>
      </trkpt>
      <trkpt lat="47.57006" lon="-0.50268">
        <ele>39.55</ele>
        <time>2017-03-26T10:37:40Z</time>
      </trkpt>
      <trkpt lat="47.57004" lon="-0.50272">
        <ele>39.07</ele>
        <time>2017-03-26T10:37:41Z</time>
      </trkpt>
      <trkpt lat="47.57001" lon="-0.50274">
        <ele>39.07</ele>
        <time>2017-03-26T10:37:42Z</time>
      </trkpt>
      <trkpt lat="47.56999" lon="-0.50272">
        <ele>39.07</ele>
        <time>2017-03-26T10:37:43Z</time>
      </trkpt>
      <trkpt lat="47.56998" lon="-0.50269">
        <ele>38.59</ele>
        <time>2017-03-26T10:37:44Z</time>
      </trkpt>
      <trkpt lat="47.56997" lon="-0.50266">
        <ele>38.59</ele>
        <time>2017-03-26T10:37:45Z</time>
      </trkpt>
      <trkpt lat="47.56997" lon="-0.50263">
        <ele>38.59</ele>
        <time>2017-03-26T10:37:46Z</time>
      </trkpt>
      <trkpt lat="47.57" lon="-0.50265">
        <ele>38.11</ele>
        <time>2017-03-26T10:38:00Z</time>
      </trkpt>
      <trkpt lat="47.56999" lon="-0.50265">
        <ele>40.03</ele>
        <time>2017-03-26T10:38:17Z</time>
      </trkpt>
      <trkpt lat="47.56999" lon="-0.50265">
        <ele>38.11</ele>
        <time>2017-03-26T10:38:19Z</time>
      </trkpt>
      <trkpt lat="47.57" lon="-0.50266">
        <ele>38.59</ele>
        <time>2017-03-26T10:38:46Z</time>
      </trkpt>
      <trkpt lat="47.57001" lon="-0.50265">
        <ele>39.55</ele>
        <time>2017-03-26T10:39:11Z</time>
      </trkpt>
    </trkseg>
  </trk>
</gpx>